[[[{"header":{"parameterUnit":"kt","parameterCategory":2,"dx":1,"dy":1,"la1":29.764190673828125,"la2":30.86408042907715,"lo1":-88.46762084960938,"lo2":-86.9344482421875,"nx":47,"ny":34,"refTime":"2022-10-14T00:00:00:Z","depth":"0","parameterNumber":2,"parameterNumberName":"U-component_of_CURRENTS"},"data":[0.008,-0.0059,-0.016,-0.008,0.0235,0.0625,0.0966,0.1281,0.149,0.1383,0.1025,0.0694,0.0491,0.0363,0.031,0.0368,0.055,0.0785,0.0945,0.1057,0.1078,0.0908,0.0641,0.0395,0.0192,-0.0251,-0.1009,-0.1773,-0.2066,-0.1687,-0.1164,-0.1276,-0.1863,-0.228,-0.2435,-0.2424,-0.2371,-0.2365,-0.2365,-0.2339,-0.2269,-0.2168,-0.2007,-0.1821,-0.1655,-0.1532,-0.149,0.0096,-0.0091,-0.0347,-0.0502,-0.0427,-0.0107,0.0272,0.0555,0.0657,0.0614,0.0507,0.04,0.0342,0.0326,0.0416,0.0646,0.086,0.1052,0.1207,0.1249,0.1175,0.102,0.0785,0.0379,-0.0278,-0.1121,-0.1874,-0.2189,-0.2312,-0.2258,-0.1751,-0.1217,-0.1239,-0.1703,-0.2093,-0.2285,-0.2328,-0.2339,-0.2306,-0.2237,-0.2152,-0.2088,-0.204,-0.1997,-0.197,-0.1986,-0.204,0.016,0.0048,-0.0256,-0.0545,-0.0619,-0.0518,-0.0315,-0.0075,0.0139,0.0256,0.0315,0.0379,0.0454,0.0598,0.0806,0.0966,0.1062,0.1137,0.1228,0.1271,0.1207,0.1121,0.1014,0.0742,0.0005,-0.1046,-0.1821,-0.213,-0.2125,-0.2061,-0.197,-0.1687,-0.1255,-0.1132,-0.1511,-0.1805,-0.1911,-0.204,-0.205,-0.1991,-0.1949,-0.1949,-0.2018,-0.2104,-0.2184,-0.2242,-0.2253,0.0251,0.0214,0.0091,-0.0144,-0.0358,-0.0422,-0.0326,-0.0133,0.0059,0.024,0.039,0.0545,0.0758,0.0961,0.1095,0.1153,0.1164,0.1164,0.118,0.1201,0.1201,0.1153,0.1137,0.1185,0.1009,0.0422,-0.023,-0.0651,-0.0982,-0.1329,-0.1431,-0.1442,-0.157,-0.1426,-0.1228,-0.1265,-0.1479,-0.1698,-0.1751,-0.1741,-0.1762,-0.1815,-0.1869,-0.1954,-0.2077,-0.2178,-0.221,0.039,0.0352,0.031,0.0219,0.0091,0.0005,0.0005,0.0107,0.0288,0.0491,0.0689,0.087,0.1014,0.1127,0.1191,0.1212,0.1196,0.1175,0.1169,0.1169,0.1169,0.1148,0.1132,0.1201,0.1351,0.1356,0.1062,0.0651,0.0251,-0.0166,-0.0603,-0.0966,-0.1132,-0.141,-0.1789,-0.1623,-0.1308,-0.1351,-0.1463,-0.1554,-0.1612,-0.1644,-0.1639,-0.1639,-0.1692,-0.1778,-0.1815,0.0545,0.0507,0.0481,0.0459,0.0448,0.0454,0.0491,0.0577,0.0694,0.0806,0.0908,0.0998,0.1073,0.1148,0.1201,0.1217,0.1201,0.1175,0.1164,0.1164,0.1153,0.1121,0.1089,0.1084,0.1159,0.1249,0.1196,0.0956,0.0646,0.031,-0.008,-0.0523,-0.0934,-0.1132,-0.1393,-0.1815,-0.2029,-0.1831,-0.1463,-0.1367,-0.1484,-0.1516,-0.1415,-0.1319,-0.1233,-0.118,-0.1201,0.0673,0.0651,0.0641,0.0635,0.0641,0.0662,0.0699,0.0753,0.0817,0.0892,0.0966,0.1036,0.1111,0.1175,0.1217,0.1217,0.1196,0.1164,0.1137,0.1111,0.1078,0.1052,0.103,0.1025,0.103,0.1025,0.0988,0.0918,0.0801,0.0561,0.0224,-0.0176,-0.0619,-0.0977,-0.1185,-0.1479,-0.1815,-0.2141,-0.2264,-0.2077,-0.1778,-0.1543,-0.141,-0.1244,-0.1078,-0.0945,-0.0902,0.0635,0.0683,0.0715,0.0726,0.0726,0.0737,0.0758,0.0796,0.0854,0.0929,0.102,0.1111,0.1191,0.1239,0.1255,0.1233,0.1196,0.1153,0.1121,0.1111,0.1111,0.11,0.1068,0.1014,0.095,0.0876,0.0796,0.0726,0.0667,0.0598,0.04,0.0021,-0.0443,-0.0828,-0.1089,-0.1308,-0.1671,-0.2072,-0.2216,-0.2467,-0.2611,-0.2376,-0.1991,-0.1607,-0.1313,-0.1068,-0.095,-0.0219,0.0171,0.0571,0.0753,0.0801,0.0812,0.0822,0.086,0.0924,0.1014,0.1127,0.1233,0.1313,0.1351,0.1345,0.1313,0.1265,0.1223,0.1196,0.1201,0.1212,0.1196,0.1116,0.1009,0.0902,0.0817,0.0753,0.0689,0.0598,0.0497,0.0395,0.0149,-0.0294,-0.0753,-0.1084,-0.1351,-0.1575,-0.1831,-0.2253,-0.2435,-0.2376,-0.2605,-0.2808,-0.2589,-0.2072,-0.1548,-0.1239,-0.0662,-0.0529,-0.0219,0.0283,0.0737,0.0892,0.0902,0.0929,0.0998,0.1111,0.1249,0.1372,0.1436,0.1468,0.1484,0.1468,0.1426,0.1377,0.134,0.1303,0.1239,0.1127,0.1004,0.0908,0.0854,0.0817,0.078,0.0705,0.0566,0.0406,0.0267,0.0133,-0.0171,-0.063,-0.0993,-0.1196,-0.1388,-0.166,-0.1821,-0.1853,-0.2098,-0.2381,-0.2493,-0.2888,-0.3022,-0.2477,-0.1933,-0.0865,-0.0945,-0.0667,-0.0283,0.0021,0.0278,0.0529,0.0721,0.0876,0.095,0.0876,0.071,0.0646,0.0897,0.1388,0.1644,0.1612,0.1516,0.142,0.1303,0.1153,0.1009,0.0892,0.0828,0.0785,0.0721,0.0635,0.0523,0.039,0.0256,0.0133,0.0043,-0.0085,-0.039,-0.079,-0.1014,-0.1052,-0.1084,-0.1191,-0.1335,-0.1522,-0.166,-0.2056,-0.268,-0.2904,-0.2846,-0.2846,-0.0838,-0.1143,-0.1014,-0.0774,-0.0683,-0.0828,-0.1009,-0.0747,-0.0262,-0.0075,-0.0155,-0.0075,-0.0069,0.0502,0.1463,0.1757,0.1741,0.1586,0.1431,0.1255,0.1025,0.0812,0.0641,0.0464,0.0235,-0.0021,-0.0246,-0.039,-0.0438,-0.0384,-0.0267,-0.0208,-0.0235,-0.0374,-0.0603,-0.0769,-0.0817,-0.0865,-0.0908,-0.0897,-0.0881,-0.1052,-0.1618,-0.2226,-0.2856,-0.3364,-0.3486,-0.0347,-0.0513,-0.0395,-0.0566,-0.0828,-0.1468,-0.228,-0.2024,-0.1367,-0.1137,-0.0838,0.0283,0.0235,0.0982,0.2413,0.2002,0.1676,0.1495,0.1383,0.1207,0.0908,0.0582,0.0272,-0.0027,-0.0326,-0.0641,-0.095,-0.1191,-0.1287,-0.1313,-0.1351,-0.1361,-0.1399,-0.1479,-0.1474,-0.1223,-0.0806,-0.0646,-0.0838,-0.1095,-0.1308,-0.1415,-0.1468,-0.1757,-0.2381,-0.2931,-0.3129,0,0,-0.039,-0.0801,-0.0198,-0.0646,-0.2162,-0.1799,-0.0721,-0.0769,-0.1458,-0.1821,0,0.1452,0.2317,0.1543,0.1383,0.1404,0.134,0.118,0.0961,0.0651,0.0182,-0.0294,-0.0603,-0.0801,-0.1057,-0.141,-0.1783,-0.1986,-0.2093,-0.221,-0.2306,-0.2296,-0.2109,-0.1778,-0.134,-0.0897,-0.0822,-0.1276,-0.1799,-0.2061,-0.1975,-0.166,-0.1548,-0.1794,-0.2189,0.0806,0.1943,0.1559,-0.0155,-0.0806,0,0,-0.0374,-0.0368,-0.1111,-0.4282,-0.764,-0.4544,-0.0144,0,0,0,0,0,0,0,0,0.0016,-0.023,-0.0507,-0.0534,-0.0561,-0.0641,-0.0908,-0.1351,-0.1853,-0.2296,-0.2499,-0.2456,-0.2344,-0.2216,-0.1959,-0.1575,-0.1281,-0.1356,-0.1671,-0.1911,-0.1927,-0.1703,-0.1458,-0.1313,-0.1324,0.1089,0.1052,0.0609,-0.0502,-0.1847,-0.1239,0.1233,0.1111,-0.0214,0,0,0,-0.4111,-0.945,-0.8964,-0.6482,-0.4907,-0.3284,-0.1869,-0.0988,-0.071,0,0,0,0,0,0,0,-0.0459,-0.0828,-0.063,-0.0646,-0.1137,-0.1591,-0.189,-0.2221,-0.2296,-0.1949,-0.149,-0.1233,-0.1217,-0.142,-0.1676,-0.181,-0.1714,-0.1474,-0.1244,0.2045,0.142,0.0854,0.0844,0.0534,0.0267,0.0021,-0.15,-0.4255,-0.5793,-0.5526,-0.2904,-0.1596,-0.433,-0.5969,-0.5419,-0.4218,-0.307,-0.22,-0.1351,-0.0828,0,0,0,0,0,0,0,0,0,0,0,0,-0.0534,-0.1484,-0.2104,-0.2237,-0.141,-0.0609,-0.0448,-0.0422,-0.0598,-0.0833,-0.1111,-0.1281,-0.1233,-0.1078,0,0.0262,0.0561,0.0427,0.0,-0.0256,0,0,0,0,0,-0.1271,-0.3193,-0.4592,-0.5099,-0.4341,-0.3235,-0.213,-0.1554,-0.1506,0,0,0,0,0,0,0,0,0,0,0,0,0,0,0,0,-0.2595,-0.284,0,0,-0.0128,-0.023,-0.0326,-0.0454,-0.0587,-0.0694,-0.0635,0,0,0,0.0091,0.0101,0.0027,0,0,0,0,0,-0.1127,-0.3006,-0.4122,-0.418,-0.3412,-0.228,-0.1495,-0.1575,0,0,0,0,0,0,0,0,0,0,0,0,0,0,0,0,0,0,-0.5184,-0.6183,0,0,0,0,0,0,0,-0.008,0,0,0,0,0,0,0,0,0,0,0,-0.1287,-0.3033,-0.3668,-0.3673,-0.3214,-0.1895,-0.086,0,0,0,0,0,0,0,0,0,0,0,0,0,0,0,0,0,0,0,0,-0.3001,-0.4229,-0.1901,-0.1351,0,0,0,0,0,0,0,0,0,0,0,0,0,0,0,0,-0.1308,-0.2584,-0.2899,-0.3337,-0.3332,-0.3235,0,0,0,0,0,0,0,0,0,0,0,0,0,0,0,0,0,0,0,0,0,0,-0.1442,-0.3775,-0.4447,-0.2536,-0.0763,-0.0699,0,0,0,0,0,0,0,0,0,0,0,0,0,0,-0.2296,-0.2088,-0.3182,-0.3284,-0.3161,0,0,0,0,0,0,0,0,0,0,0,0,0,0,0,0,0,0,0,0,0,0,0,0,0,0,-0.0128,-0.0256,0,0,0,0,0,0,0,0,0,0,0,0,0,0,-0.0416,-0.1858,-0.3107,-0.3193,-0.3054,0,0,0,0,0,0,0,0,0,0,0,0,0,0,0,0,0,0,0,0,0,0,0,0,0,0,0,0,0,0,0,0,0,0,0,0,0,0,0,0,0,0,-0.0582,-0.236,-0.3508,-0.315,-0.283,0,0,0,0,0,0,0,0,0,0,0,0,0,0,0,0,0,0,0,0,0,0,0,0,0,0,0,0,0,0,0,0,0,0,0,0,0,0,0,0,0,0,-0.1815,-0.3241,-0.3059,-0.2782,-0.2301,0,0,0,0,0,0,0,0,0,0,0,0,0,0,0,0,0,0,0,0,0,0,0,0,0,0,0,0,0,0,0,0,0,0,0,0,0,0,0,0,0,0,0,-0.1452,-0.2344,-0.149,-0.1196,0,0,0,0,0,0,0,0,0,0,0,0,0,0,0,0,0,0,0,0,0,0,0,0,0,0,0,0,0,0,0,0,0,0,0,0,0,0,0,0,0,0,0,-0.0112,0.0464,0.0902,0.0657,0,0,0,0,0,0,0,0,0,0,0,0,0,0,0,0,0,0,0,0,0,0,0,0,0,0,0,0,0,0,0,0,0,0,0,0,0,0,0,0,0,0,0,0,0.0689,0.1372,0,0,0,0,0,0,0,0,0,0,0,0,0,0,0,0,0,0,0,0,0,0,0,0,0,0,0,0,0,0,0,0,0,0,0,0,0,0,0,0,0,0,0,0,0,0,0,0,0,0,0,0,0,0,0,0,0,0,0,0,0,0,0,0,0,0,0,0,0,0,0,0,0,0,0,0,0,0,0,0,0,0,0,0,0,0,0,0,0,0,0,0,0,0,0,0,0,0,0,0,0,0,0,0,0,0,0,0,0,0,0,0,0,0,0,0,0,0,0,0,0,0,0,0,0,0,0,0,0,0,0,0,0,0,0,0,0,0,0,0,0,0,0,0,0,0,0,0,0,0,0,0,0,0,0,0,0,0,0,0,0,0,0,0,0,0,0,0,0,0,0,0,0,0,0,0,0,0,0,0,0,0,0,0,0,0,0,0,0,0,0,0,0,0,0,0,0,0,0,0,0,0,0,0,0,0,0,0,0,0,0,0,0,0,0,0,0,0,0,0,0,0,0,0,0,0,0,0,0,0,0,0,0,0,0,0,0,0,0,0,0,0,0,0,0,0,0,0,0,0,0,0,0,0,0,0,0,0,0,0,0,0,0,0,0,0,0,0,0,0,0,0,0,0,0,0,0,0,0,0,0,0,0,0,0,0,0,0,0,0,0,0,0,0,0,0,0,0,0,0,0,0,0,0,0,0,0,0,0,0,0,0,0]}],[{"header":{"parameterUnit":"kt","parameterCategory":2,"dx":1,"dy":1,"la1":29.764190673828125,"la2":30.86408042907715,"lo1":-88.46762084960938,"lo2":-86.9344482421875,"nx":47,"ny":34,"refTime":"2022-10-14T00:00:00:Z","depth":"0","parameterNumber":3,"parameterNumberName":"V-component_of_CURRENTS"},"data":[-0.1516,-0.1943,-0.2189,-0.173,-0.0881,-0.0326,-0.0342,-0.0747,-0.1159,-0.142,-0.1431,-0.1345,-0.1228,-0.0977,-0.0812,-0.071,-0.063,-0.0502,-0.0737,-0.1116,-0.1436,-0.1217,-0.1089,-0.2034,-0.3177,-0.3001,-0.2654,-0.3145,-0.3433,-0.3529,-0.3567,-0.3406,-0.2819,-0.2216,-0.1687,-0.141,-0.1217,-0.1084,-0.095,-0.0753,-0.0491,-0.0262,-0.0064,0.0101,0.0203,0.024,0.0272,-0.1463,-0.1725,-0.205,-0.1885,-0.1329,-0.0812,-0.0657,-0.078,-0.095,-0.1036,-0.103,-0.1052,-0.0961,-0.0838,-0.0849,-0.0849,-0.0801,-0.0689,-0.0822,-0.1057,-0.1212,-0.1025,-0.0833,-0.1404,-0.244,-0.2467,-0.2371,-0.3107,-0.3956,-0.4047,-0.3759,-0.3615,-0.3364,-0.2867,-0.2317,-0.1922,-0.1559,-0.1377,-0.1244,-0.1105,-0.0886,-0.0673,-0.0545,-0.0411,-0.0331,-0.0288,-0.024,-0.1431,-0.149,-0.173,-0.1767,-0.1495,-0.1143,-0.0897,-0.0849,-0.0876,-0.0902,-0.0892,-0.0902,-0.0844,-0.0876,-0.0961,-0.0966,-0.0908,-0.0806,-0.0833,-0.0956,-0.1046,-0.0945,-0.0646,-0.0731,-0.141,-0.1975,-0.2248,-0.2883,-0.3839,-0.4399,-0.4383,-0.3887,-0.3545,-0.3353,-0.3102,-0.2744,-0.228,-0.2045,-0.1874,-0.173,-0.1527,-0.1287,-0.1132,-0.1062,-0.1014,-0.0977,-0.0881,-0.141,-0.1335,-0.141,-0.1506,-0.1436,-0.1271,-0.1073,-0.0961,-0.0902,-0.0929,-0.0918,-0.0897,-0.0892,-0.0961,-0.102,-0.102,-0.0956,-0.0865,-0.0822,-0.0854,-0.0902,-0.0849,-0.0609,-0.0422,-0.0619,-0.1217,-0.1767,-0.244,-0.3123,-0.393,-0.449,-0.4293,-0.3721,-0.3353,-0.331,-0.3348,-0.3081,-0.283,-0.2589,-0.2387,-0.2221,-0.2007,-0.1805,-0.1741,-0.1725,-0.1703,-0.1602,-0.1356,-0.1271,-0.1233,-0.1276,-0.1276,-0.1244,-0.1159,-0.1084,-0.1025,-0.1025,-0.1025,-0.1014,-0.1004,-0.1014,-0.1036,-0.1025,-0.0972,-0.0897,-0.0833,-0.0822,-0.0833,-0.0806,-0.0689,-0.0502,-0.0432,-0.0715,-0.1201,-0.1725,-0.2296,-0.2953,-0.3684,-0.4079,-0.3817,-0.3396,-0.3097,-0.3086,-0.3155,-0.3177,-0.3033,-0.2755,-0.2611,-0.2477,-0.2333,-0.2237,-0.2221,-0.22,-0.2104,-0.1265,-0.1217,-0.1169,-0.1159,-0.1164,-0.1175,-0.1169,-0.1164,-0.1159,-0.1159,-0.1169,-0.1159,-0.1127,-0.11,-0.1073,-0.1041,-0.0988,-0.0918,-0.0854,-0.0838,-0.0849,-0.0838,-0.078,-0.0667,-0.0555,-0.0651,-0.0897,-0.1217,-0.165,-0.212,-0.2712,-0.3326,-0.3502,-0.3353,-0.3102,-0.2878,-0.283,-0.2734,-0.276,-0.2691,-0.2696,-0.2547,-0.2445,-0.2355,-0.2285,-0.2226,-0.2114,-0.1201,-0.118,-0.1153,-0.1143,-0.1153,-0.1175,-0.1207,-0.1239,-0.126,-0.1281,-0.1303,-0.1303,-0.1271,-0.1217,-0.1148,-0.1078,-0.1004,-0.0924,-0.0865,-0.0844,-0.086,-0.0854,-0.0817,-0.0747,-0.0657,-0.0635,-0.0705,-0.0881,-0.1159,-0.1527,-0.1981,-0.2579,-0.3043,-0.3075,-0.2942,-0.2936,-0.2872,-0.2643,-0.2451,-0.2274,-0.2339,-0.2376,-0.2381,-0.2274,-0.2109,-0.1954,-0.1778,-0.1265,-0.126,-0.1217,-0.1196,-0.1201,-0.1233,-0.1281,-0.1329,-0.1367,-0.1399,-0.1426,-0.1426,-0.1388,-0.1319,-0.1223,-0.1121,-0.1014,-0.0918,-0.0854,-0.0838,-0.086,-0.0865,-0.0822,-0.0742,-0.0641,-0.0571,-0.0577,-0.0689,-0.0865,-0.1052,-0.141,-0.1959,-0.2515,-0.2808,-0.2643,-0.2563,-0.2744,-0.2856,-0.2632,-0.2419,-0.2232,-0.221,-0.2205,-0.2088,-0.1885,-0.1612,-0.1345,-0.1687,-0.1735,-0.1522,-0.1356,-0.1297,-0.1303,-0.1345,-0.141,-0.1463,-0.1506,-0.1527,-0.1506,-0.1452,-0.1356,-0.1239,-0.1127,-0.1009,-0.0908,-0.0844,-0.0854,-0.0892,-0.0902,-0.0838,-0.0721,-0.0598,-0.0502,-0.0491,-0.0593,-0.0737,-0.0806,-0.0956,-0.1388,-0.1975,-0.2376,-0.2403,-0.2242,-0.2328,-0.2515,-0.2675,-0.275,-0.2664,-0.267,-0.2536,-0.2125,-0.1709,-0.1281,-0.086,-0.2157,-0.2328,-0.2141,-0.1917,-0.157,-0.1356,-0.1377,-0.1463,-0.1554,-0.1639,-0.1676,-0.1618,-0.1554,-0.141,-0.1233,-0.1078,-0.095,-0.087,-0.0838,-0.087,-0.0913,-0.0908,-0.0833,-0.0731,-0.0619,-0.0518,-0.0475,-0.0529,-0.0609,-0.0646,-0.0683,-0.0897,-0.1372,-0.1895,-0.2125,-0.2066,-0.2007,-0.2024,-0.229,-0.26,-0.2723,-0.2883,-0.2995,-0.2755,-0.2098,-0.1319,-0.0598,-0.2184,-0.2595,-0.2787,-0.2605,-0.2088,-0.166,-0.1527,-0.1607,-0.1757,-0.1954,-0.2173,-0.2258,-0.2066,-0.1933,-0.1612,-0.1068,-0.0817,-0.078,-0.0796,-0.0838,-0.0865,-0.0849,-0.0817,-0.0801,-0.0774,-0.0721,-0.0657,-0.0625,-0.0545,-0.0497,-0.0518,-0.0619,-0.086,-0.1361,-0.1847,-0.197,-0.1863,-0.1703,-0.1858,-0.2269,-0.2296,-0.2248,-0.2541,-0.2798,-0.252,-0.1885,-0.1159,-0.1639,-0.2413,-0.3289,-0.3123,-0.2835,-0.2237,-0.1879,-0.2098,-0.2285,-0.252,-0.299,-0.3572,-0.2675,-0.3604,-0.2429,-0.1335,-0.0657,-0.0614,-0.0689,-0.079,-0.087,-0.0876,-0.0881,-0.094,-0.0956,-0.0956,-0.0929,-0.0876,-0.0699,-0.0593,-0.055,-0.0603,-0.0667,-0.1052,-0.1618,-0.1901,-0.1799,-0.1511,-0.1644,-0.1933,-0.1895,-0.1725,-0.1725,-0.1869,-0.2178,-0.1938,-0.158,-0.1201,-0.2168,-0.3508,-0.3609,-0.3967,-0.2403,-0.2306,-0.3641,-0.3588,-0.3572,-0.425,-0.5425,-0.2856,-0.7336,-0.3385,-0.1564,-0.0502,-0.039,-0.0497,-0.0598,-0.0678,-0.0817,-0.0865,-0.0956,-0.0918,-0.0924,-0.0972,-0.1036,-0.0929,-0.086,-0.0817,-0.0897,-0.0929,-0.1185,-0.1676,-0.2125,-0.1991,-0.1287,-0.142,-0.1911,-0.1917,-0.1644,-0.1244,-0.1111,-0.1404,-0.1484,-0.1516,0,0,-0.378,-0.4383,-0.5617,-0.2264,-0.2515,-0.5745,-0.536,-0.4143,-0.4949,-0.591,0,-1.2328,-0.3898,-0.1564,-0.0422,-0.0272,-0.0379,-0.0411,-0.0454,-0.0715,-0.0384,-0.0731,-0.0667,-0.071,-0.0817,-0.0972,-0.102,-0.1084,-0.1041,-0.1207,-0.1367,-0.1596,-0.2061,-0.2707,-0.2627,-0.1495,-0.1143,-0.1719,-0.1901,-0.1831,-0.1468,-0.102,-0.087,-0.1159,-0.1548,-0.0705,-0.0854,-0.3118,-0.4506,-0.5574,0,0,-0.6626,-0.653,-0.3999,-0.4827,-0.5291,-0.7192,-1.1511,0,0,0,0,0,0,0,0,0.0011,-0.0577,-0.0518,-0.0593,-0.0721,-0.0876,-0.079,-0.1041,-0.1078,-0.1345,-0.15,-0.1714,-0.2264,-0.3219,-0.3497,-0.2419,-0.1105,-0.1292,-0.165,-0.1799,-0.173,-0.1303,-0.0844,-0.079,-0.1116,-0.1196,-0.1164,-0.1415,-0.2963,-0.3401,-0.1383,-0.1591,-0.5334,-0.575,0,0,0,-1.0625,-0.6215,-0.0828,-0.0828,-0.1025,-0.0982,-0.087,-0.0662,-0.0053,0,0,0,0,0,0,0,-0.0363,-0.0844,-0.1046,-0.1415,-0.1452,-0.1484,-0.1986,-0.3257,-0.4052,-0.3839,-0.1783,-0.1062,-0.1351,-0.1452,-0.1564,-0.141,-0.0977,-0.0641,-0.0662,-0.0982,-0.0198,-0.0432,-0.1159,-0.1671,-0.244,-0.3182,-0.4079,-0.464,0.0,0.0,-0.4068,-0.5841,-0.3481,-0.1789,-0.2269,-0.2589,-0.2317,-0.1831,-0.1468,-0.0101,0,0,0,0,0,0,0,0,0,0,0,0,-0.1367,-0.173,-0.2942,-0.441,-0.5003,-0.2344,-0.0886,-0.0993,-0.0972,-0.1046,-0.1132,-0.087,-0.063,-0.0571,0,0.0224,-0.0198,-0.0283,-0.079,-0.15,0,0,0,0,0,-0.764,-0.3994,-0.213,-0.2024,-0.3321,-0.3615,-0.2835,-0.1703,-0.1538,0,0,0,0,0,0,0,0,0,0,0,0,0,0,0,0,-0.4528,-0.4768,0,0,-0.0796,-0.0683,-0.0662,-0.087,-0.0699,-0.0577,-0.0491,0,0,0,-0.0112,-0.047,-0.0886,0,0,0,0,0,-0.6519,-0.2445,-0.1228,-0.2424,-0.4207,-0.4624,-0.315,-0.1479,0,0,0,0,0,0,0,0,0,0,0,0,0,0,0,0,0,0,-0.4175,-0.3155,0,0,0,0,0,0,0,-0.0432,0,0,0,0,0,0,0,0,0,0,0,-0.5061,-0.1447,-0.0838,-0.2878,-0.4859,-0.551,-0.33,0,0,0,0,0,0,0,0,0,0,0,0,0,0,0,0,0,0,0,0,-0.6311,-0.1709,-0.0982,-0.0427,0,0,0,0,0,0,0,0,0,0,0,0,0,0,0,0,-0.3465,-0.1607,-0.0571,-0.2942,-0.4981,-0.5697,0,0,0,0,0,0,0,0,0,0,0,0,0,0,0,0,0,0,0,0,0,0,-0.3417,-0.1959,-0.0854,0.0,-0.0331,-0.0037,0,0,0,0,0,0,0,0,0,0,0,0,0,0,-0.3305,0.0043,-0.2654,-0.4794,-0.5339,0,0,0,0,0,0,0,0,0,0,0,0,0,0,0,0,0,0,0,0,0,0,0,0,0,0,-0.0662,-0.008,0,0,0,0,0,0,0,0,0,0,0,0,0,0,-0.4405,0.086,-0.2189,-0.4677,-0.5147,0,0,0,0,0,0,0,0,0,0,0,0,0,0,0,0,0,0,0,0,0,0,0,0,0,0,0,0,0,0,0,0,0,0,0,0,0,0,0,0,0,0,-0.3711,0.095,-0.1965,-0.48,-0.5077,0,0,0,0,0,0,0,0,0,0,0,0,0,0,0,0,0,0,0,0,0,0,0,0,0,0,0,0,0,0,0,0,0,0,0,0,0,0,0,0,0,0,-0.3193,-0.0988,-0.1938,-0.5131,-0.4773,0,0,0,0,0,0,0,0,0,0,0,0,0,0,0,0,0,0,0,0,0,0,0,0,0,0,0,0,0,0,0,0,0,0,0,0,0,0,0,0,0,0,0,-0.1746,-0.2477,-0.5216,-0.4159,0,0,0,0,0,0,0,0,0,0,0,0,0,0,0,0,0,0,0,0,0,0,0,0,0,0,0,0,0,0,0,0,0,0,0,0,0,0,0,0,0,0,0,-0.0812,-0.1228,-0.4116,-0.378,0,0,0,0,0,0,0,0,0,0,0,0,0,0,0,0,0,0,0,0,0,0,0,0,0,0,0,0,0,0,0,0,0,0,0,0,0,0,0,0,0,0,0,0,0.0619,-0.3139,0,0,0,0,0,0,0,0,0,0,0,0,0,0,0,0,0,0,0,0,0,0,0,0,0,0,0,0,0,0,0,0,0,0,0,0,0,0,0,0,0,0,0,0,0,0,0,0,0,0,0,0,0,0,0,0,0,0,0,0,0,0,0,0,0,0,0,0,0,0,0,0,0,0,0,0,0,0,0,0,0,0,0,0,0,0,0,0,0,0,0,0,0,0,0,0,0,0,0,0,0,0,0,0,0,0,0,0,0,0,0,0,0,0,0,0,0,0,0,0,0,0,0,0,0,0,0,0,0,0,0,0,0,0,0,0,0,0,0,0,0,0,0,0,0,0,0,0,0,0,0,0,0,0,0,0,0,0,0,0,0,0,0,0,0,0,0,0,0,0,0,0,0,0,0,0,0,0,0,0,0,0,0,0,0,0,0,0,0,0,0,0,0,0,0,0,0,0,0,0,0,0,0,0,0,0,0,0,0,0,0,0,0,0,0,0,0,0,0,0,0,0,0,0,0,0,0,0,0,0,0,0,0,0,0,0,0,0,0,0,0,0,0,0,0,0,0,0,0,0,0,0,0,0,0,0,0,0,0,0,0,0,0,0,0,0,0,0,0,0,0,0,0,0,0,0,0,0,0,0,0,0,0,0,0,0,0,0,0,0,0,0,0,0,0,0,0,0,0,0,0,0,0,0,0,0,0,0,0,0,0,0,0]}]],[[{"header":{"parameterUnit":"kt","parameterCategory":2,"dx":1,"dy":1,"la1":29.764190673828125,"la2":30.86408042907715,"lo1":-88.46762084960938,"lo2":-86.9344482421875,"nx":47,"ny":34,"refTime":"2022-10-14T00:00:00:Z","depth":"2","parameterNumber":2,"parameterNumberName":"U-component_of_CURRENTS"},"data":[0.0203,0.0069,-0.0032,0.0048,0.0368,0.0758,0.11,0.142,0.1623,0.1516,0.1169,0.0844,0.0641,0.0518,0.047,0.0529,0.071,0.095,0.1111,0.1217,0.1233,0.1068,0.0806,0.0566,0.0352,-0.0085,-0.0828,-0.1591,-0.189,-0.1511,-0.0993,-0.1105,-0.1687,-0.2109,-0.2264,-0.2253,-0.221,-0.2205,-0.221,-0.2184,-0.2114,-0.2013,-0.1853,-0.1666,-0.1495,-0.1377,-0.1329,0.0214,0.0027,-0.0224,-0.0379,-0.0299,0.0021,0.04,0.0683,0.079,0.0753,0.0651,0.055,0.0491,0.0481,0.0577,0.0801,0.102,0.1207,0.1367,0.1404,0.1324,0.1175,0.0945,0.0545,-0.0112,-0.0945,-0.1687,-0.1997,-0.2125,-0.2082,-0.158,-0.1041,-0.1068,-0.1532,-0.1927,-0.2114,-0.2162,-0.2173,-0.2146,-0.2077,-0.1997,-0.1933,-0.1885,-0.1842,-0.181,-0.1826,-0.1879,0.0272,0.016,-0.0139,-0.0422,-0.0497,-0.0395,-0.0187,0.0053,0.0272,0.0395,0.0459,0.0529,0.0603,0.0747,0.0956,0.1121,0.1217,0.1292,0.1383,0.142,0.1361,0.1276,0.1175,0.0902,0.0176,-0.087,-0.1639,-0.1943,-0.1938,-0.1879,-0.1799,-0.1516,-0.1084,-0.0961,-0.134,-0.1639,-0.1746,-0.1874,-0.1885,-0.1831,-0.1789,-0.1794,-0.1858,-0.1943,-0.2029,-0.2082,-0.2088,0.0358,0.032,0.0203,-0.0032,-0.024,-0.0299,-0.0198,-0.0005,0.0198,0.0379,0.0529,0.0689,0.0902,0.1111,0.1239,0.1297,0.1313,0.1313,0.1329,0.1356,0.1351,0.1303,0.1287,0.134,0.1169,0.0587,-0.0053,-0.0475,-0.0806,-0.1153,-0.126,-0.1271,-0.1404,-0.1255,-0.1057,-0.11,-0.1313,-0.1532,-0.1586,-0.1575,-0.1596,-0.1655,-0.1714,-0.1794,-0.1917,-0.2018,-0.205,0.0486,0.0454,0.0411,0.0326,0.0203,0.0117,0.0123,0.0235,0.0422,0.0625,0.0822,0.1004,0.1153,0.1265,0.1335,0.1356,0.134,0.1324,0.1313,0.1319,0.1313,0.1292,0.1281,0.1351,0.15,0.1516,0.1228,0.0817,0.0411,0.0,-0.0438,-0.0801,-0.0966,-0.1244,-0.1618,-0.1452,-0.1137,-0.1185,-0.1297,-0.1388,-0.1447,-0.1484,-0.1484,-0.1479,-0.1538,-0.1623,-0.166,0.0635,0.0598,0.0577,0.0561,0.0555,0.0561,0.0603,0.0699,0.0817,0.0934,0.1036,0.1127,0.1212,0.1287,0.134,0.1356,0.134,0.1319,0.1308,0.1308,0.1297,0.1265,0.1233,0.1228,0.1308,0.1404,0.1351,0.1111,0.0801,0.0459,0.0075,-0.0363,-0.0774,-0.0966,-0.1228,-0.165,-0.1863,-0.1666,-0.1292,-0.1201,-0.1319,-0.1351,-0.1255,-0.1164,-0.1084,-0.103,-0.1052,0.0753,0.0737,0.0731,0.0726,0.0737,0.0763,0.0812,0.087,0.094,0.1014,0.1095,0.1169,0.1244,0.1313,0.1351,0.1356,0.1335,0.1303,0.1276,0.1249,0.1223,0.1191,0.1175,0.1169,0.1169,0.1169,0.1137,0.1068,0.095,0.071,0.0368,-0.0027,-0.0464,-0.0817,-0.102,-0.1308,-0.165,-0.1975,-0.2098,-0.1911,-0.1612,-0.1377,-0.1249,-0.1089,-0.0929,-0.0796,-0.0758,0.071,0.0763,0.0796,0.0812,0.0822,0.0833,0.0865,0.0908,0.0966,0.1052,0.1143,0.1239,0.1319,0.1372,0.1383,0.1367,0.1329,0.1292,0.126,0.1244,0.1244,0.1233,0.1201,0.1153,0.1089,0.1014,0.0934,0.0865,0.0806,0.0737,0.0545,0.0166,-0.0294,-0.0673,-0.0929,-0.1143,-0.1506,-0.1906,-0.2056,-0.2301,-0.2451,-0.221,-0.1831,-0.1447,-0.1159,-0.0924,-0.0812,-0.0139,0.0251,0.0651,0.0833,0.0886,0.0908,0.0924,0.0961,0.103,0.1132,0.1244,0.1356,0.1436,0.1474,0.1468,0.1436,0.1393,0.1351,0.1324,0.1324,0.134,0.1319,0.1244,0.1137,0.1036,0.095,0.0886,0.0817,0.0731,0.0635,0.0534,0.0288,-0.0149,-0.0603,-0.0929,-0.1185,-0.141,-0.1671,-0.2093,-0.228,-0.2221,-0.2445,-0.2648,-0.2435,-0.1917,-0.1404,-0.11,-0.0566,-0.0438,-0.0133,0.0368,0.0822,0.0977,0.0998,0.1025,0.11,0.1217,0.1361,0.1484,0.1554,0.1586,0.1602,0.1591,0.1548,0.1495,0.1458,0.142,0.1356,0.1249,0.1127,0.103,0.0977,0.094,0.0902,0.0828,0.0694,0.0539,0.0406,0.0267,-0.0032,-0.0486,-0.0844,-0.1041,-0.1228,-0.15,-0.1666,-0.1698,-0.1943,-0.2221,-0.2339,-0.2734,-0.2872,-0.2333,-0.1789,-0.0742,-0.0822,-0.0566,-0.0192,0.0107,0.0368,0.0619,0.0817,0.0972,0.1057,0.0998,0.0849,0.079,0.1036,0.1516,0.1762,0.1725,0.1628,0.1532,0.1415,0.1265,0.1121,0.1009,0.0945,0.0897,0.0838,0.0758,0.0646,0.0513,0.0379,0.0262,0.0176,0.0048,-0.0251,-0.0646,-0.0865,-0.0897,-0.0929,-0.1036,-0.118,-0.1372,-0.1511,-0.1906,-0.2531,-0.2755,-0.2702,-0.2707,-0.0587,-0.0881,-0.0844,-0.0673,-0.0571,-0.0699,-0.086,-0.0603,-0.0133,0.0059,0.0005,0.0112,0.0133,0.0694,0.1623,0.1879,0.1842,0.1692,0.1532,0.1356,0.1137,0.0924,0.0758,0.0577,0.0347,0.0101,-0.0123,-0.0262,-0.031,-0.0256,-0.0139,-0.0075,-0.0107,-0.0235,-0.0459,-0.0619,-0.0673,-0.0715,-0.0763,-0.0753,-0.0742,-0.0913,-0.1474,-0.2082,-0.2712,-0.3225,-0.3348,0.0128,-0.0064,-0.0096,-0.0384,-0.0566,-0.1014,-0.1778,-0.1666,-0.1169,-0.0945,-0.0603,0.0705,0.0705,0.15,0.2739,0.22,0.1789,0.1596,0.1484,0.1308,0.1014,0.0689,0.0379,0.008,-0.0219,-0.0529,-0.0828,-0.1068,-0.1159,-0.1185,-0.1212,-0.1228,-0.1255,-0.1329,-0.1324,-0.1073,-0.0667,-0.0513,-0.0699,-0.0956,-0.1169,-0.1271,-0.1324,-0.1612,-0.2242,-0.2803,-0.3001,0,0,-0.0267,-0.0438,0.0336,0.0096,-0.1351,-0.1319,-0.0438,-0.0363,-0.0785,-0.0966,0,0.1714,0.2798,0.1794,0.1495,0.1495,0.1426,0.126,0.1041,0.0742,0.0283,-0.0187,-0.0491,-0.0694,-0.0945,-0.1292,-0.1655,-0.1853,-0.1949,-0.2056,-0.2146,-0.213,-0.1938,-0.1618,-0.1201,-0.0758,-0.0683,-0.1137,-0.1655,-0.1917,-0.1831,-0.1522,-0.141,-0.166,-0.2061,0.1025,0.213,0.1709,0.0283,-0.0123,0,0,-0.0272,-0.0085,-0.0507,-0.3209,-0.6615,-0.3679,0.0849,0,0,0,0,0,0,0,0,0.0053,-0.0144,-0.0411,-0.0448,-0.0475,-0.0545,-0.0796,-0.1212,-0.1666,-0.2077,-0.2296,-0.2274,-0.2157,-0.2029,-0.1794,-0.1431,-0.1143,-0.1217,-0.1527,-0.1773,-0.1789,-0.157,-0.1324,-0.1185,-0.1201,0.1212,0.118,0.078,-0.0155,-0.1372,-0.0929,0.1367,0.1479,0.039,0,0,0,-0.3657,-0.8596,-0.8414,-0.6252,-0.4762,-0.3171,-0.1773,-0.0902,-0.0625,0,0,0,0,0,0,0,-0.0411,-0.0699,-0.0432,-0.0374,-0.0913,-0.1367,-0.1602,-0.1885,-0.1997,-0.1719,-0.1308,-0.1084,-0.1084,-0.1287,-0.1548,-0.1682,-0.1596,-0.1361,-0.1137,0.2072,0.1458,0.0918,0.0918,0.0598,0.0411,0.0587,-0.0502,-0.2936,-0.4597,-0.5029,-0.2771,-0.1383,-0.3994,-0.559,-0.5093,-0.3951,-0.2851,-0.2013,-0.1228,-0.0753,0,0,0,0,0,0,0,0,0,0,0,0,-0.0438,-0.1073,-0.1447,-0.1431,-0.0758,-0.0299,-0.0256,-0.0304,-0.0486,-0.0721,-0.1004,-0.1175,-0.1132,-0.0982,0,0.0272,0.0582,0.0454,0.0043,-0.0203,0,0,0,0,0,-0.1041,-0.2718,-0.4068,-0.4602,-0.393,-0.2856,-0.1676,-0.0892,-0.0699,0,0,0,0,0,0,0,0,0,0,0,0,0,0,0,0,-0.1522,-0.1319,0,0,-0.0043,-0.0149,-0.0246,-0.0379,-0.0507,-0.0614,-0.0566,0,0,0,0.0101,0.0128,0.0053,0,0,0,0,0,-0.0902,-0.2536,-0.3599,-0.3663,-0.2894,-0.1639,-0.0753,-0.0683,0,0,0,0,0,0,0,0,0,0,0,0,0,0,0,0,0,0,-0.4517,-0.5521,0,0,0,0,0,0,0,-0.0059,0,0,0,0,0,0,0,0,0,0,0,-0.1169,-0.2675,-0.3134,-0.3065,-0.2429,-0.1009,-0.0032,0,0,0,0,0,0,0,0,0,0,0,0,0,0,0,0,0,0,0,0,-0.2824,-0.3887,-0.1692,-0.126,0,0,0,0,0,0,0,0,0,0,0,0,0,0,0,0,-0.1265,-0.2333,-0.2381,-0.2638,-0.2141,-0.1628,0,0,0,0,0,0,0,0,0,0,0,0,0,0,0,0,0,0,0,0,0,0,-0.1356,-0.2846,-0.2856,-0.1869,-0.0812,-0.0641,0,0,0,0,0,0,0,0,0,0,0,0,0,0,-0.2082,-0.158,-0.2397,-0.204,-0.1586,0,0,0,0,0,0,0,0,0,0,0,0,0,0,0,0,0,0,0,0,0,0,0,0,0,0,-0.0112,-0.0224,0,0,0,0,0,0,0,0,0,0,0,0,0,0,-0.032,-0.1356,-0.2258,-0.2002,-0.1564,0,0,0,0,0,0,0,0,0,0,0,0,0,0,0,0,0,0,0,0,0,0,0,0,0,0,0,0,0,0,0,0,0,0,0,0,0,0,0,0,0,0,-0.0497,-0.1901,-0.2664,-0.1879,-0.1244,0,0,0,0,0,0,0,0,0,0,0,0,0,0,0,0,0,0,0,0,0,0,0,0,0,0,0,0,0,0,0,0,0,0,0,0,0,0,0,0,0,0,-0.1778,-0.2819,-0.2082,-0.1559,-0.1025,0,0,0,0,0,0,0,0,0,0,0,0,0,0,0,0,0,0,0,0,0,0,0,0,0,0,0,0,0,0,0,0,0,0,0,0,0,0,0,0,0,0,0,-0.0833,-0.1052,-0.0219,-0.0005,0,0,0,0,0,0,0,0,0,0,0,0,0,0,0,0,0,0,0,0,0,0,0,0,0,0,0,0,0,0,0,0,0,0,0,0,0,0,0,0,0,0,0,0.055,0.1404,0.1463,0.1239,0,0,0,0,0,0,0,0,0,0,0,0,0,0,0,0,0,0,0,0,0,0,0,0,0,0,0,0,0,0,0,0,0,0,0,0,0,0,0,0,0,0,0,0,0.055,0.1105,0,0,0,0,0,0,0,0,0,0,0,0,0,0,0,0,0,0,0,0,0,0,0,0,0,0,0,0,0,0,0,0,0,0,0,0,0,0,0,0,0,0,0,0,0,0,0,0,0,0,0,0,0,0,0,0,0,0,0,0,0,0,0,0,0,0,0,0,0,0,0,0,0,0,0,0,0,0,0,0,0,0,0,0,0,0,0,0,0,0,0,0,0,0,0,0,0,0,0,0,0,0,0,0,0,0,0,0,0,0,0,0,0,0,0,0,0,0,0,0,0,0,0,0,0,0,0,0,0,0,0,0,0,0,0,0,0,0,0,0,0,0,0,0,0,0,0,0,0,0,0,0,0,0,0,0,0,0,0,0,0,0,0,0,0,0,0,0,0,0,0,0,0,0,0,0,0,0,0,0,0,0,0,0,0,0,0,0,0,0,0,0,0,0,0,0,0,0,0,0,0,0,0,0,0,0,0,0,0,0,0,0,0,0,0,0,0,0,0,0,0,0,0,0,0,0,0,0,0,0,0,0,0,0,0,0,0,0,0,0,0,0,0,0,0,0,0,0,0,0,0,0,0,0,0,0,0,0,0,0,0,0,0,0,0,0,0,0,0,0,0,0,0,0,0,0,0,0,0,0,0,0,0,0,0,0,0,0,0,0,0,0,0,0,0,0,0,0,0,0,0,0,0,0,0,0,0,0,0,0,0,0,0]}],[{"header":{"parameterUnit":"kt","parameterCategory":2,"dx":1,"dy":1,"la1":29.764190673828125,"la2":30.86408042907715,"lo1":-88.46762084960938,"lo2":-86.9344482421875,"nx":47,"ny":34,"refTime":"2022-10-14T00:00:00:Z","depth":"2","parameterNumber":3,"parameterNumberName":"V-component_of_CURRENTS"},"data":[-0.1404,-0.1831,-0.2082,-0.1618,-0.0769,-0.0214,-0.0224,-0.0625,-0.1036,-0.1297,-0.1303,-0.1207,-0.1084,-0.0828,-0.0657,-0.055,-0.0459,-0.0331,-0.0561,-0.094,-0.1255,-0.103,-0.0897,-0.1826,-0.2958,-0.2771,-0.2424,-0.2904,-0.3198,-0.3289,-0.3332,-0.3171,-0.2584,-0.1981,-0.1452,-0.118,-0.0988,-0.086,-0.0731,-0.0534,-0.0283,-0.0048,0.0149,0.032,0.0422,0.0464,0.0497,-0.1351,-0.1612,-0.1943,-0.1778,-0.1217,-0.0705,-0.0539,-0.0662,-0.0828,-0.0908,-0.0897,-0.0913,-0.0817,-0.0689,-0.0694,-0.0689,-0.0635,-0.0523,-0.0651,-0.0886,-0.103,-0.0838,-0.0641,-0.1201,-0.2221,-0.2237,-0.2136,-0.2867,-0.3716,-0.3801,-0.3513,-0.3374,-0.3123,-0.2627,-0.2077,-0.1682,-0.1319,-0.1137,-0.1009,-0.0876,-0.0657,-0.0448,-0.032,-0.0182,-0.0101,-0.0053,0.0,-0.1324,-0.1377,-0.1618,-0.166,-0.1388,-0.103,-0.0785,-0.0731,-0.0753,-0.0774,-0.0763,-0.0769,-0.0705,-0.0731,-0.0812,-0.0812,-0.0747,-0.0646,-0.0667,-0.0785,-0.0865,-0.0758,-0.0459,-0.0534,-0.1201,-0.1757,-0.2018,-0.2648,-0.3593,-0.4148,-0.4127,-0.3636,-0.33,-0.3107,-0.2856,-0.2499,-0.2029,-0.1794,-0.1623,-0.1479,-0.1287,-0.1052,-0.0897,-0.0822,-0.0774,-0.0731,-0.063,-0.1308,-0.1233,-0.1303,-0.1399,-0.1329,-0.1159,-0.0956,-0.0844,-0.078,-0.0801,-0.079,-0.0763,-0.0758,-0.0822,-0.087,-0.087,-0.0801,-0.071,-0.0662,-0.0683,-0.0726,-0.0667,-0.0422,-0.0235,-0.0427,-0.1009,-0.1554,-0.2216,-0.2888,-0.3684,-0.4229,-0.4031,-0.347,-0.3102,-0.3059,-0.3097,-0.283,-0.2573,-0.2328,-0.2125,-0.1959,-0.1757,-0.1554,-0.1495,-0.1474,-0.1452,-0.1345,-0.1255,-0.1169,-0.1132,-0.1169,-0.1164,-0.1132,-0.1041,-0.0966,-0.0902,-0.0902,-0.0897,-0.0886,-0.087,-0.0876,-0.0892,-0.0881,-0.0822,-0.0742,-0.0673,-0.0657,-0.0662,-0.0625,-0.0507,-0.0315,-0.024,-0.0518,-0.0998,-0.1516,-0.2072,-0.2723,-0.3438,-0.3817,-0.3556,-0.3139,-0.284,-0.283,-0.2899,-0.2915,-0.2771,-0.2488,-0.2344,-0.2216,-0.2077,-0.1986,-0.197,-0.1943,-0.1847,-0.1175,-0.1121,-0.1073,-0.1062,-0.1062,-0.1068,-0.1062,-0.1052,-0.1041,-0.1041,-0.1041,-0.103,-0.0998,-0.0961,-0.0929,-0.0897,-0.0838,-0.0763,-0.0699,-0.0673,-0.0678,-0.0662,-0.0598,-0.0481,-0.0363,-0.0454,-0.0699,-0.1014,-0.1442,-0.1901,-0.2477,-0.3075,-0.3241,-0.3091,-0.284,-0.2616,-0.2568,-0.2472,-0.2499,-0.2429,-0.2424,-0.228,-0.2178,-0.2093,-0.2024,-0.197,-0.1858,-0.1116,-0.1095,-0.1062,-0.1052,-0.1052,-0.1073,-0.11,-0.1127,-0.1148,-0.1159,-0.1175,-0.1169,-0.1137,-0.1078,-0.1004,-0.0929,-0.0854,-0.0769,-0.0705,-0.0683,-0.0694,-0.0683,-0.0641,-0.0566,-0.047,-0.0443,-0.0513,-0.0683,-0.0956,-0.1313,-0.1757,-0.2344,-0.2792,-0.2814,-0.268,-0.2675,-0.2605,-0.2376,-0.2184,-0.2007,-0.2072,-0.2104,-0.2109,-0.2002,-0.1842,-0.1692,-0.1516,-0.1175,-0.1169,-0.1127,-0.1105,-0.1105,-0.1132,-0.1175,-0.1217,-0.1249,-0.1276,-0.1297,-0.1292,-0.1255,-0.118,-0.1078,-0.0977,-0.0865,-0.0769,-0.0699,-0.0683,-0.0699,-0.0705,-0.0662,-0.0571,-0.0464,-0.039,-0.039,-0.0502,-0.0667,-0.0849,-0.1196,-0.173,-0.2274,-0.2552,-0.2387,-0.2301,-0.2483,-0.2595,-0.2365,-0.2146,-0.1959,-0.1938,-0.1927,-0.1815,-0.1612,-0.1351,-0.1084,-0.1586,-0.1634,-0.1426,-0.126,-0.1201,-0.1196,-0.1239,-0.1297,-0.1351,-0.1383,-0.1399,-0.1377,-0.1319,-0.1223,-0.11,-0.0988,-0.0865,-0.0758,-0.0699,-0.0705,-0.0747,-0.0753,-0.0683,-0.0566,-0.0432,-0.0336,-0.032,-0.0416,-0.0555,-0.0614,-0.0753,-0.1169,-0.1741,-0.2136,-0.2146,-0.1986,-0.2066,-0.2253,-0.2408,-0.2483,-0.2392,-0.2392,-0.2264,-0.1847,-0.1436,-0.1009,-0.0598,-0.204,-0.2216,-0.2034,-0.1815,-0.1468,-0.1255,-0.1271,-0.1356,-0.1442,-0.1522,-0.1554,-0.149,-0.142,-0.1276,-0.11,-0.094,-0.0812,-0.0731,-0.0699,-0.0731,-0.0769,-0.0758,-0.0683,-0.0582,-0.047,-0.0363,-0.0315,-0.0363,-0.0432,-0.0459,-0.0486,-0.0689,-0.1148,-0.166,-0.1879,-0.181,-0.1746,-0.1762,-0.2024,-0.2328,-0.2451,-0.2605,-0.2712,-0.2477,-0.1821,-0.1046,-0.0331,-0.2024,-0.244,-0.2654,-0.2493,-0.1981,-0.1554,-0.1415,-0.15,-0.1644,-0.1837,-0.2045,-0.212,-0.1922,-0.1789,-0.1468,-0.0934,-0.0689,-0.0646,-0.0662,-0.0699,-0.0726,-0.071,-0.0673,-0.0657,-0.063,-0.0571,-0.0497,-0.0459,-0.0368,-0.0315,-0.0331,-0.0422,-0.0651,-0.1137,-0.1612,-0.1719,-0.1607,-0.1447,-0.1596,-0.1997,-0.2024,-0.197,-0.2269,-0.252,-0.2242,-0.1612,-0.0886,-0.1367,-0.2104,-0.3043,-0.2995,-0.2696,-0.2088,-0.173,-0.1959,-0.2162,-0.2392,-0.284,-0.3385,-0.2467,-0.3358,-0.2221,-0.1191,-0.0529,-0.0486,-0.0561,-0.0657,-0.0731,-0.0737,-0.0742,-0.0806,-0.0817,-0.0806,-0.0774,-0.071,-0.0529,-0.0416,-0.0368,-0.0411,-0.0464,-0.0833,-0.1383,-0.1655,-0.1554,-0.1265,-0.1388,-0.1666,-0.1634,-0.1458,-0.1458,-0.1602,-0.1911,-0.1671,-0.1313,-0.0801,-0.1671,-0.3129,-0.3401,-0.3673,-0.1986,-0.1831,-0.3294,-0.3406,-0.338,-0.3988,-0.4955,-0.2435,-0.6321,-0.2766,-0.1335,-0.0368,-0.0267,-0.0368,-0.0464,-0.055,-0.0689,-0.0731,-0.0828,-0.079,-0.079,-0.0828,-0.0876,-0.0763,-0.0683,-0.063,-0.0705,-0.0726,-0.0966,-0.1452,-0.189,-0.1751,-0.1052,-0.1175,-0.166,-0.166,-0.1388,-0.0988,-0.0854,-0.1143,-0.1223,-0.1255,0,0,-0.3449,-0.3951,-0.4832,-0.1506,-0.1628,-0.5174,-0.4992,-0.3716,-0.4415,-0.5083,0,-1.0352,-0.283,-0.1191,-0.0288,-0.0149,-0.0251,-0.0283,-0.0326,-0.0582,-0.0272,-0.0609,-0.0545,-0.0593,-0.0683,-0.0822,-0.086,-0.0908,-0.0849,-0.1004,-0.1153,-0.1367,-0.1821,-0.2456,-0.2381,-0.1271,-0.0908,-0.1474,-0.1655,-0.1586,-0.1217,-0.078,-0.0625,-0.0913,-0.1297,-0.0577,-0.0742,-0.2915,-0.4004,-0.4885,0,0,-0.6172,-0.606,-0.3497,-0.4213,-0.4351,-0.6743,-1.0315,0,0,0,0,0,0,0,0,0.0112,-0.0459,-0.04,-0.0475,-0.0587,-0.0721,-0.0635,-0.086,-0.0844,-0.1062,-0.1239,-0.1479,-0.1986,-0.292,-0.3203,-0.2168,-0.0876,-0.1062,-0.1415,-0.1564,-0.1495,-0.1068,-0.0614,-0.0566,-0.0886,-0.102,-0.1009,-0.1249,-0.2621,-0.3075,-0.1276,-0.1495,-0.4891,-0.4853,0,0,0,-1.0037,-0.5942,-0.0689,-0.0721,-0.0934,-0.0908,-0.0812,-0.0609,-0.0011,0,0,0,0,0,0,0,-0.024,-0.0678,-0.0763,-0.1052,-0.1148,-0.126,-0.1618,-0.2771,-0.3556,-0.3422,-0.1452,-0.0844,-0.1132,-0.1228,-0.134,-0.1191,-0.0769,-0.0443,-0.0464,-0.0892,-0.0123,-0.032,-0.1025,-0.157,-0.2242,-0.299,-0.3508,-0.3369,0.0,0.0,-0.3962,-0.5569,-0.3235,-0.1495,-0.1997,-0.2344,-0.2088,-0.165,-0.1228,-0.0016,0,0,0,0,0,0,0,0,0,0,0,0,-0.1143,-0.1244,-0.2349,-0.3358,-0.3727,-0.1741,-0.0614,-0.079,-0.0769,-0.0838,-0.0934,-0.0683,-0.0454,-0.04,0,0.0294,-0.0123,-0.0214,-0.0721,-0.1361,0,0,0,0,0,-0.7101,-0.37,-0.1879,-0.1698,-0.2953,-0.3214,-0.2424,-0.1228,-0.0881,0,0,0,0,0,0,0,0,0,0,0,0,0,0,0,0,-0.3567,-0.3374,0,0,-0.0603,-0.0486,-0.047,-0.0683,-0.0518,-0.0411,-0.0352,0,0,0,-0.0043,-0.0406,-0.0785,0,0,0,0,0,-0.5846,-0.2141,-0.0982,-0.2045,-0.3673,-0.3823,-0.22,-0.0774,0,0,0,0,0,0,0,0,0,0,0,0,0,0,0,0,0,0,-0.3214,-0.2942,0,0,0,0,0,0,0,-0.0315,0,0,0,0,0,0,0,0,0,0,0,-0.4762,-0.1159,-0.055,-0.2413,-0.4026,-0.4122,-0.1906,0,0,0,0,0,0,0,0,0,0,0,0,0,0,0,0,0,0,0,0,-0.5889,-0.1607,-0.0694,-0.0336,0,0,0,0,0,0,0,0,0,0,0,0,0,0,0,0,-0.3369,-0.1297,-0.0251,-0.2349,-0.3887,-0.3887,0,0,0,0,0,0,0,0,0,0,0,0,0,0,0,0,0,0,0,0,0,0,-0.3209,-0.1388,-0.0667,0.0,-0.0278,-0.0011,0,0,0,0,0,0,0,0,0,0,0,0,0,0,-0.3038,0.0374,-0.1943,-0.347,-0.3353,0,0,0,0,0,0,0,0,0,0,0,0,0,0,0,0,0,0,0,0,0,0,0,0,0,0,-0.0555,-0.0016,0,0,0,0,0,0,0,0,0,0,0,0,0,0,-0.4255,0.1201,-0.1404,-0.3155,-0.3043,0,0,0,0,0,0,0,0,0,0,0,0,0,0,0,0,0,0,0,0,0,0,0,0,0,0,0,0,0,0,0,0,0,0,0,0,0,0,0,0,0,0,-0.3641,0.141,-0.1095,-0.3193,-0.2755,0,0,0,0,0,0,0,0,0,0,0,0,0,0,0,0,0,0,0,0,0,0,0,0,0,0,0,0,0,0,0,0,0,0,0,0,0,0,0,0,0,0,-0.3139,-0.0256,-0.0822,-0.3305,-0.252,0,0,0,0,0,0,0,0,0,0,0,0,0,0,0,0,0,0,0,0,0,0,0,0,0,0,0,0,0,0,0,0,0,0,0,0,0,0,0,0,0,0,0,-0.0892,-0.1084,-0.3187,-0.189,0,0,0,0,0,0,0,0,0,0,0,0,0,0,0,0,0,0,0,0,0,0,0,0,0,0,0,0,0,0,0,0,0,0,0,0,0,0,0,0,0,0,0,0.0005,-0.0609,-0.2237,-0.1345,0,0,0,0,0,0,0,0,0,0,0,0,0,0,0,0,0,0,0,0,0,0,0,0,0,0,0,0,0,0,0,0,0,0,0,0,0,0,0,0,0,0,0,0,0.0384,-0.1415,0,0,0,0,0,0,0,0,0,0,0,0,0,0,0,0,0,0,0,0,0,0,0,0,0,0,0,0,0,0,0,0,0,0,0,0,0,0,0,0,0,0,0,0,0,0,0,0,0,0,0,0,0,0,0,0,0,0,0,0,0,0,0,0,0,0,0,0,0,0,0,0,0,0,0,0,0,0,0,0,0,0,0,0,0,0,0,0,0,0,0,0,0,0,0,0,0,0,0,0,0,0,0,0,0,0,0,0,0,0,0,0,0,0,0,0,0,0,0,0,0,0,0,0,0,0,0,0,0,0,0,0,0,0,0,0,0,0,0,0,0,0,0,0,0,0,0,0,0,0,0,0,0,0,0,0,0,0,0,0,0,0,0,0,0,0,0,0,0,0,0,0,0,0,0,0,0,0,0,0,0,0,0,0,0,0,0,0,0,0,0,0,0,0,0,0,0,0,0,0,0,0,0,0,0,0,0,0,0,0,0,0,0,0,0,0,0,0,0,0,0,0,0,0,0,0,0,0,0,0,0,0,0,0,0,0,0,0,0,0,0,0,0,0,0,0,0,0,0,0,0,0,0,0,0,0,0,0,0,0,0,0,0,0,0,0,0,0,0,0,0,0,0,0,0,0,0,0,0,0,0,0,0,0,0,0,0,0,0,0,0,0,0,0,0,0,0,0,0,0,0,0,0,0,0,0,0,0,0,0,0,0,0]}]],[[{"header":{"parameterUnit":"kt","parameterCategory":2,"dx":1,"dy":1,"la1":29.764190673828125,"la2":30.86408042907715,"lo1":-88.46762084960938,"lo2":-86.9344482421875,"nx":47,"ny":34,"refTime":"2022-10-14T00:00:00:Z","depth":"4","parameterNumber":2,"parameterNumberName":"U-component_of_CURRENTS"},"data":[0.024,0.0112,0.0011,0.0091,0.0411,0.0806,0.1148,0.1468,0.1666,0.1559,0.1217,0.0897,0.0694,0.0571,0.0523,0.0582,0.0769,0.1009,0.1164,0.1265,0.1276,0.1111,0.086,0.0614,0.04,-0.0032,-0.0758,-0.1516,-0.1826,-0.1447,-0.0929,-0.1046,-0.1628,-0.205,-0.2205,-0.22,-0.2152,-0.2146,-0.2152,-0.2125,-0.2061,-0.1959,-0.1799,-0.1612,-0.1442,-0.1319,-0.1276,0.0246,0.0064,-0.0182,-0.0336,-0.0262,0.0064,0.0443,0.0726,0.0833,0.0801,0.0699,0.0598,0.0545,0.0529,0.063,0.0854,0.1068,0.126,0.1415,0.1452,0.1367,0.1217,0.0998,0.0598,-0.0059,-0.0876,-0.1596,-0.1906,-0.2045,-0.2013,-0.1522,-0.0982,-0.1009,-0.1474,-0.1869,-0.2061,-0.2109,-0.212,-0.2093,-0.2024,-0.1949,-0.1879,-0.1831,-0.1783,-0.1757,-0.1767,-0.1815,0.0299,0.0192,-0.0101,-0.0384,-0.0459,-0.0352,-0.0144,0.0101,0.032,0.0443,0.0507,0.0577,0.0657,0.0801,0.1009,0.1169,0.126,0.134,0.1431,0.1468,0.1404,0.1319,0.1223,0.0956,0.0235,-0.0796,-0.1554,-0.1847,-0.1847,-0.1805,-0.1735,-0.1458,-0.1025,-0.0902,-0.1287,-0.1586,-0.1692,-0.1821,-0.1837,-0.1783,-0.1741,-0.1741,-0.1805,-0.189,-0.197,-0.2024,-0.2024,0.0384,0.0352,0.0235,0.0005,-0.0203,-0.0262,-0.0155,0.0043,0.0246,0.0427,0.0577,0.0737,0.095,0.1159,0.1287,0.1345,0.1356,0.1361,0.1377,0.1399,0.1393,0.1345,0.1329,0.1388,0.1223,0.0646,0.0021,-0.0395,-0.0731,-0.1084,-0.1191,-0.1217,-0.1351,-0.1201,-0.1004,-0.1046,-0.126,-0.1479,-0.1532,-0.1522,-0.1548,-0.1602,-0.1655,-0.1735,-0.1858,-0.1959,-0.1986,0.0513,0.0481,0.0443,0.0358,0.024,0.016,0.0166,0.0278,0.0464,0.0667,0.087,0.1052,0.1196,0.1313,0.1383,0.1399,0.1388,0.1367,0.1361,0.1361,0.1351,0.1329,0.1319,0.1393,0.1548,0.1564,0.1287,0.0876,0.047,0.0059,-0.0379,-0.0742,-0.0913,-0.1191,-0.1564,-0.1393,-0.1084,-0.1132,-0.1239,-0.1329,-0.1393,-0.1431,-0.1426,-0.1426,-0.1479,-0.1564,-0.1602,0.0662,0.0625,0.0603,0.0593,0.0587,0.0598,0.0641,0.0737,0.0854,0.0972,0.1078,0.1169,0.1255,0.1329,0.1388,0.1404,0.1388,0.1367,0.1356,0.1351,0.1335,0.1303,0.1271,0.1271,0.1351,0.1452,0.1404,0.1159,0.0849,0.0507,0.0117,-0.0315,-0.0726,-0.0918,-0.1175,-0.1591,-0.181,-0.1607,-0.1239,-0.1143,-0.126,-0.1297,-0.1201,-0.1116,-0.103,-0.0977,-0.0998,0.0774,0.0763,0.0758,0.0758,0.0769,0.0796,0.0844,0.0902,0.0977,0.1052,0.1132,0.1212,0.1287,0.1356,0.1393,0.1399,0.1377,0.1345,0.1319,0.1292,0.126,0.1228,0.1212,0.1207,0.1212,0.1217,0.118,0.1116,0.0993,0.0753,0.0411,0.0016,-0.0416,-0.0763,-0.0966,-0.1255,-0.1596,-0.1922,-0.2045,-0.1858,-0.1559,-0.1324,-0.1196,-0.1036,-0.0881,-0.0747,-0.071,0.0731,0.0785,0.0822,0.0838,0.0849,0.0865,0.0897,0.0945,0.1009,0.1089,0.1185,0.1276,0.1361,0.141,0.1426,0.1404,0.1372,0.1329,0.1297,0.1281,0.1281,0.1265,0.1239,0.1191,0.1132,0.1057,0.0972,0.0902,0.0844,0.078,0.0587,0.0208,-0.0246,-0.0625,-0.0881,-0.1089,-0.1452,-0.1853,-0.2002,-0.2253,-0.2397,-0.2157,-0.1773,-0.1399,-0.1111,-0.0876,-0.0763,-0.0091,0.0288,0.0683,0.086,0.0913,0.0934,0.0956,0.0998,0.1068,0.1169,0.1281,0.1393,0.1474,0.1511,0.1506,0.1474,0.1431,0.1383,0.1356,0.1356,0.1367,0.1351,0.1281,0.1175,0.1073,0.0988,0.0918,0.0854,0.0769,0.0673,0.0577,0.0331,-0.0112,-0.0555,-0.0876,-0.1127,-0.1351,-0.1618,-0.204,-0.2226,-0.2168,-0.2392,-0.2595,-0.2381,-0.1869,-0.1356,-0.1052,-0.0384,-0.0299,-0.0048,0.0416,0.0854,0.1004,0.1025,0.1057,0.1132,0.1249,0.1393,0.1516,0.158,0.1618,0.1634,0.1618,0.1575,0.1527,0.1484,0.1442,0.1383,0.1276,0.1159,0.1068,0.1009,0.0972,0.0934,0.086,0.0731,0.0577,0.0443,0.0304,0.0005,-0.0443,-0.0796,-0.0982,-0.1169,-0.1447,-0.1612,-0.1644,-0.189,-0.2173,-0.2285,-0.268,-0.2824,-0.2285,-0.1746,-0.0246,-0.0374,-0.0283,-0.0053,0.0182,0.0422,0.0667,0.0849,0.1004,0.11,0.1073,0.1004,0.0972,0.1159,0.1575,0.1794,0.1746,0.165,0.1554,0.1436,0.1292,0.1148,0.1041,0.0972,0.0929,0.0876,0.0796,0.0683,0.0555,0.0416,0.0299,0.0214,0.0085,-0.0214,-0.0598,-0.0812,-0.0838,-0.087,-0.0982,-0.1132,-0.1329,-0.1463,-0.1853,-0.2477,-0.2707,-0.2654,-0.2659,0.0694,0.0224,-0.023,-0.0358,-0.0256,-0.0294,-0.0395,-0.0219,0.0128,0.032,0.0416,0.0763,0.0854,0.1212,0.1863,0.1954,0.1863,0.1709,0.1554,0.1383,0.1175,0.0966,0.0801,0.0625,0.04,0.016,-0.0059,-0.0198,-0.0251,-0.0203,-0.0091,-0.0037,-0.0064,-0.0187,-0.0406,-0.0571,-0.0619,-0.0662,-0.071,-0.0705,-0.0699,-0.087,-0.1426,-0.2029,-0.2659,-0.3177,-0.33,0.1837,0.1361,0.0945,0.0299,0.0182,0.0016,-0.0731,-0.0977,-0.0683,-0.0363,0.032,0.165,0.1506,0.2002,0.299,0.2403,0.1847,0.1618,0.15,0.134,0.1057,0.0737,0.0432,0.0139,-0.0149,-0.0443,-0.0731,-0.0961,-0.1046,-0.1073,-0.1095,-0.1105,-0.1132,-0.1201,-0.1207,-0.0988,-0.0609,-0.0464,-0.0657,-0.0913,-0.1121,-0.1217,-0.1265,-0.1559,-0.2194,-0.2755,-0.2953,0,0,0.0411,0.0876,0.1431,0.1479,0.0139,-0.0149,0.0379,0.0614,0.0614,0.0828,0,0.1564,0.2771,0.213,0.158,0.1511,0.1436,0.1276,0.1062,0.0785,0.0374,-0.0037,-0.0326,-0.0545,-0.0769,-0.1095,-0.1447,-0.1634,-0.1698,-0.1767,-0.1831,-0.1815,-0.165,-0.1415,-0.1095,-0.0699,-0.063,-0.1084,-0.1591,-0.1858,-0.1773,-0.1458,-0.1345,-0.1607,-0.2013,0.1874,0.3246,0.292,0.173,0.1655,0,0,0.0331,0.1212,0.078,-0.1564,-0.4229,-0.1292,0.2947,0,0,0,0,0,0,0,0,0.0075,0.0053,-0.0128,-0.0262,-0.0251,-0.0246,-0.0443,-0.0817,-0.1143,-0.1383,-0.1527,-0.1596,-0.1634,-0.1628,-0.1516,-0.1287,-0.1078,-0.1159,-0.1463,-0.1703,-0.1719,-0.1506,-0.1265,-0.1127,-0.1148,0.1858,0.2024,0.1842,0.103,0.0032,0.0582,0.2605,0.2728,0.1842,0,0,0,-0.2168,-0.5665,-0.5788,-0.4052,-0.3017,-0.2136,-0.1313,-0.0497,-0.008,0,0,0,0,0,0,0,-0.0107,-0.0064,0.0251,0.0497,0.0278,-0.0192,-0.0619,-0.1025,-0.134,-0.1308,-0.1046,-0.0929,-0.1009,-0.1223,-0.1479,-0.1618,-0.1532,-0.1303,-0.1084,0.2312,0.1879,0.1554,0.158,0.1426,0.1463,0.1265,-0.0048,-0.1906,-0.291,-0.2846,-0.0673,0.0555,-0.1719,-0.307,-0.2707,-0.2077,-0.134,-0.0774,-0.0683,-0.0699,0,0,0,0,0,0,0,0,0,0,0,0,0.0128,0.0166,-0.0144,-0.0096,-0.0043,-0.0128,-0.0176,-0.0267,-0.0438,-0.0667,-0.095,-0.1121,-0.1078,-0.0934,0,0.0294,0.078,0.0737,0.055,0.0609,0,0,0,0,0,0.0,-0.0587,-0.1794,-0.1965,-0.1078,-0.0246,0.0657,0.0972,0.0806,0,0,0,0,0,0,0,0,0,0,0,0,0,0,0,0,0.0262,0.0635,0,0,-0.0021,-0.0128,-0.0224,-0.0352,-0.0481,-0.0582,-0.0534,0,0,0,0.0117,0.016,0.0091,0,0,0,0,0,-0.0005,-0.0358,-0.0929,-0.0651,0.0043,0.079,0.0566,0.0085,0,0,0,0,0,0,0,0,0,0,0,0,0,0,0,0,0,0,-0.1324,-0.2141,0,0,0,0,0,0,0,-0.0053,0,0,0,0,0,0,0,0,0,0,0,-0.023,-0.0352,-0.0085,0.0048,0.055,0.0918,0.0737,0,0,0,0,0,0,0,0,0,0,0,0,0,0,0,0,0,0,0,0,-0.1217,-0.1762,-0.0625,-0.016,0,0,0,0,0,0,0,0,0,0,0,0,0,0,0,0,-0.0379,-0.0192,0.063,0.047,0.0694,0.1313,0,0,0,0,0,0,0,0,0,0,0,0,0,0,0,0,0,0,0,0,0,0,-0.0395,-0.0721,-0.0908,-0.1207,-0.0822,-0.0347,0,0,0,0,0,0,0,0,0,0,0,0,0,0,-0.0315,0.0934,0.0678,0.047,0.0881,0,0,0,0,0,0,0,0,0,0,0,0,0,0,0,0,0,0,0,0,0,0,0,0,0,0,-0.0107,-0.0214,0,0,0,0,0,0,0,0,0,0,0,0,0,0,0.0224,0.0731,0.0641,0.0326,0.0491,0,0,0,0,0,0,0,0,0,0,0,0,0,0,0,0,0,0,0,0,0,0,0,0,0,0,0,0,0,0,0,0,0,0,0,0,0,0,0,0,0,0,0.016,0.0566,0.0518,0.0347,0.0406,0,0,0,0,0,0,0,0,0,0,0,0,0,0,0,0,0,0,0,0,0,0,0,0,0,0,0,0,0,0,0,0,0,0,0,0,0,0,0,0,0,0,-0.0812,-0.0208,0.1121,0.0849,0.0667,0,0,0,0,0,0,0,0,0,0,0,0,0,0,0,0,0,0,0,0,0,0,0,0,0,0,0,0,0,0,0,0,0,0,0,0,0,0,0,0,0,0,0,-0.0032,0.0203,0.0582,0.0694,0,0,0,0,0,0,0,0,0,0,0,0,0,0,0,0,0,0,0,0,0,0,0,0,0,0,0,0,0,0,0,0,0,0,0,0,0,0,0,0,0,0,0,0.0347,0.0918,0.0603,0.0053,0,0,0,0,0,0,0,0,0,0,0,0,0,0,0,0,0,0,0,0,0,0,0,0,0,0,0,0,0,0,0,0,0,0,0,0,0,0,0,0,0,0,0,0,-0.0139,-0.0272,0,0,0,0,0,0,0,0,0,0,0,0,0,0,0,0,0,0,0,0,0,0,0,0,0,0,0,0,0,0,0,0,0,0,0,0,0,0,0,0,0,0,0,0,0,0,0,0,0,0,0,0,0,0,0,0,0,0,0,0,0,0,0,0,0,0,0,0,0,0,0,0,0,0,0,0,0,0,0,0,0,0,0,0,0,0,0,0,0,0,0,0,0,0,0,0,0,0,0,0,0,0,0,0,0,0,0,0,0,0,0,0,0,0,0,0,0,0,0,0,0,0,0,0,0,0,0,0,0,0,0,0,0,0,0,0,0,0,0,0,0,0,0,0,0,0,0,0,0,0,0,0,0,0,0,0,0,0,0,0,0,0,0,0,0,0,0,0,0,0,0,0,0,0,0,0,0,0,0,0,0,0,0,0,0,0,0,0,0,0,0,0,0,0,0,0,0,0,0,0,0,0,0,0,0,0,0,0,0,0,0,0,0,0,0,0,0,0,0,0,0,0,0,0,0,0,0,0,0,0,0,0,0,0,0,0,0,0,0,0,0,0,0,0,0,0,0,0,0,0,0,0,0,0,0,0,0,0,0,0,0,0,0,0,0,0,0,0,0,0,0,0,0,0,0,0,0,0,0,0,0,0,0,0,0,0,0,0,0,0,0,0,0,0,0,0,0,0,0,0,0,0,0,0,0,0,0,0,0,0,0,0,0]}],[{"header":{"parameterUnit":"kt","parameterCategory":2,"dx":1,"dy":1,"la1":29.764190673828125,"la2":30.86408042907715,"lo1":-88.46762084960938,"lo2":-86.9344482421875,"nx":47,"ny":34,"refTime":"2022-10-14T00:00:00:Z","depth":"4","parameterNumber":3,"parameterNumberName":"V-component_of_CURRENTS"},"data":[-0.1367,-0.1794,-0.2045,-0.1586,-0.0731,-0.0182,-0.0187,-0.0593,-0.1004,-0.126,-0.1265,-0.1164,-0.1036,-0.078,-0.0609,-0.0497,-0.04,-0.0272,-0.0502,-0.0881,-0.1196,-0.0972,-0.0833,-0.1757,-0.2878,-0.2686,-0.2339,-0.2819,-0.3113,-0.3209,-0.3257,-0.3097,-0.2515,-0.1906,-0.1377,-0.1105,-0.0913,-0.079,-0.0657,-0.0464,-0.0214,0.0016,0.0214,0.039,0.0491,0.0534,0.0571,-0.1313,-0.1575,-0.1906,-0.1746,-0.1185,-0.0673,-0.0507,-0.063,-0.0796,-0.087,-0.086,-0.087,-0.0774,-0.0641,-0.0641,-0.0635,-0.0582,-0.047,-0.0598,-0.0833,-0.0972,-0.078,-0.0582,-0.1137,-0.2136,-0.2146,-0.204,-0.2766,-0.3615,-0.3705,-0.3428,-0.3294,-0.3049,-0.2552,-0.2002,-0.1607,-0.1244,-0.1057,-0.0934,-0.0801,-0.0587,-0.0379,-0.0246,-0.0112,-0.0027,0.0027,0.008,-0.1287,-0.134,-0.1586,-0.1623,-0.1356,-0.0998,-0.0747,-0.0699,-0.071,-0.0731,-0.0721,-0.0721,-0.0657,-0.0683,-0.0763,-0.0763,-0.0699,-0.0593,-0.0614,-0.0731,-0.0812,-0.0699,-0.0395,-0.047,-0.1127,-0.1666,-0.1922,-0.2541,-0.3486,-0.4047,-0.4026,-0.355,-0.3225,-0.3033,-0.2782,-0.2424,-0.1954,-0.1714,-0.1543,-0.1399,-0.1207,-0.0972,-0.0817,-0.0742,-0.0689,-0.0646,-0.0539,-0.1271,-0.1196,-0.1265,-0.1361,-0.1292,-0.1121,-0.0918,-0.0806,-0.0742,-0.0758,-0.0747,-0.0721,-0.0715,-0.078,-0.0828,-0.0822,-0.0753,-0.0662,-0.0614,-0.063,-0.0673,-0.0609,-0.0363,-0.0176,-0.0363,-0.094,-0.1468,-0.2125,-0.2792,-0.3583,-0.4122,-0.3935,-0.338,-0.3027,-0.2985,-0.3022,-0.2755,-0.2493,-0.2248,-0.2045,-0.1874,-0.1671,-0.1468,-0.141,-0.1388,-0.1367,-0.1255,-0.1223,-0.1132,-0.1095,-0.1132,-0.1127,-0.1089,-0.1004,-0.0924,-0.0865,-0.086,-0.086,-0.0844,-0.0833,-0.0833,-0.0849,-0.0833,-0.0774,-0.0694,-0.0625,-0.0603,-0.0603,-0.0571,-0.0448,-0.0256,-0.0182,-0.0454,-0.0929,-0.1442,-0.1997,-0.2638,-0.3337,-0.3716,-0.346,-0.3054,-0.276,-0.275,-0.2824,-0.2835,-0.2691,-0.2408,-0.2258,-0.2125,-0.1991,-0.1895,-0.1879,-0.1858,-0.1762,-0.1143,-0.1089,-0.1041,-0.1025,-0.1025,-0.103,-0.1025,-0.1014,-0.1004,-0.0998,-0.1004,-0.0988,-0.095,-0.0918,-0.0886,-0.0849,-0.079,-0.071,-0.0646,-0.0619,-0.0625,-0.0603,-0.0539,-0.0422,-0.0304,-0.039,-0.0635,-0.095,-0.1372,-0.1831,-0.2392,-0.2979,-0.3145,-0.2995,-0.2755,-0.2536,-0.2488,-0.2392,-0.2419,-0.2344,-0.2344,-0.2194,-0.2088,-0.2002,-0.1938,-0.1885,-0.1773,-0.1084,-0.1062,-0.103,-0.102,-0.102,-0.1036,-0.1062,-0.1089,-0.1105,-0.1121,-0.1132,-0.1127,-0.1089,-0.103,-0.0956,-0.0881,-0.0801,-0.0721,-0.0657,-0.0635,-0.0641,-0.063,-0.0587,-0.0507,-0.0406,-0.0384,-0.0448,-0.0619,-0.0897,-0.1249,-0.1687,-0.2258,-0.2696,-0.2718,-0.2589,-0.2584,-0.2525,-0.229,-0.2098,-0.1922,-0.1986,-0.2024,-0.2024,-0.1917,-0.1762,-0.1612,-0.1436,-0.1143,-0.1137,-0.1095,-0.1073,-0.1073,-0.11,-0.1137,-0.1175,-0.1207,-0.1228,-0.1249,-0.1244,-0.1201,-0.1127,-0.1025,-0.0924,-0.0817,-0.0721,-0.0651,-0.0635,-0.0651,-0.0657,-0.0614,-0.0523,-0.0416,-0.0336,-0.0336,-0.0448,-0.0614,-0.079,-0.1127,-0.1655,-0.2189,-0.2461,-0.229,-0.221,-0.2397,-0.2509,-0.228,-0.2061,-0.1879,-0.1858,-0.1847,-0.173,-0.1532,-0.1265,-0.0998,-0.1532,-0.1586,-0.1383,-0.1223,-0.1164,-0.1159,-0.1201,-0.1255,-0.1303,-0.1335,-0.1351,-0.1329,-0.1271,-0.1175,-0.1052,-0.0934,-0.0817,-0.071,-0.0651,-0.0662,-0.0705,-0.071,-0.0641,-0.0518,-0.039,-0.0294,-0.0272,-0.0368,-0.0502,-0.0561,-0.0689,-0.11,-0.1666,-0.2045,-0.2056,-0.189,-0.1981,-0.2162,-0.2322,-0.2397,-0.2306,-0.2306,-0.2178,-0.1762,-0.1356,-0.0929,-0.0513,-0.1885,-0.2077,-0.1943,-0.1757,-0.1431,-0.1217,-0.1228,-0.1313,-0.1399,-0.1468,-0.15,-0.1436,-0.1367,-0.1223,-0.1046,-0.0892,-0.0763,-0.0683,-0.0651,-0.0689,-0.0726,-0.0715,-0.0641,-0.0539,-0.0427,-0.032,-0.0272,-0.0315,-0.0384,-0.0411,-0.0432,-0.063,-0.1078,-0.158,-0.1789,-0.1714,-0.1655,-0.1671,-0.1938,-0.2237,-0.236,-0.252,-0.2627,-0.2387,-0.1741,-0.0966,-0.0251,-0.166,-0.2045,-0.236,-0.2355,-0.1906,-0.1495,-0.1361,-0.1458,-0.1602,-0.1778,-0.1965,-0.197,-0.1767,-0.1676,-0.1393,-0.0881,-0.0646,-0.0609,-0.0619,-0.0657,-0.0678,-0.0662,-0.0625,-0.0609,-0.0582,-0.0523,-0.0448,-0.0406,-0.0315,-0.0262,-0.0278,-0.0368,-0.0587,-0.1062,-0.1522,-0.1623,-0.1516,-0.1356,-0.1506,-0.1901,-0.1933,-0.1885,-0.2178,-0.2435,-0.2162,-0.1532,-0.0806,-0.0865,-0.1399,-0.2472,-0.2712,-0.2429,-0.1821,-0.1484,-0.1735,-0.2013,-0.2242,-0.2595,-0.2872,-0.1885,-0.2808,-0.1917,-0.1057,-0.0491,-0.0448,-0.0513,-0.0603,-0.0673,-0.0678,-0.0689,-0.0747,-0.0758,-0.0742,-0.0705,-0.0635,-0.0459,-0.0352,-0.0304,-0.0347,-0.04,-0.0753,-0.1292,-0.1559,-0.1463,-0.118,-0.1297,-0.1575,-0.1543,-0.1372,-0.1372,-0.1516,-0.1826,-0.1586,-0.1233,-0.0384,-0.0977,-0.2258,-0.2856,-0.3006,-0.1287,-0.1143,-0.276,-0.2974,-0.2974,-0.3305,-0.3636,-0.1538,-0.472,-0.1751,-0.0812,-0.0262,-0.023,-0.032,-0.0406,-0.0486,-0.0625,-0.0662,-0.0753,-0.0715,-0.071,-0.0731,-0.0769,-0.0657,-0.0571,-0.0518,-0.0582,-0.0598,-0.0828,-0.1308,-0.1757,-0.1644,-0.0972,-0.1095,-0.157,-0.157,-0.1297,-0.0902,-0.0769,-0.1057,-0.1137,-0.1169,0,0,-0.2114,-0.3086,-0.3465,-0.0657,-0.0662,-0.3839,-0.3753,-0.2819,-0.3433,-0.3428,0,-0.7576,-0.1143,-0.0278,-0.0085,-0.0112,-0.0203,-0.0224,-0.0262,-0.0513,-0.0208,-0.047,-0.0411,-0.0475,-0.0513,-0.0598,-0.0689,-0.071,-0.0614,-0.0705,-0.0828,-0.1041,-0.1527,-0.2194,-0.2194,-0.1175,-0.0833,-0.1388,-0.1559,-0.1484,-0.1127,-0.0694,-0.0539,-0.0817,-0.1196,-0.039,-0.04,-0.1901,-0.3107,-0.3588,0,0,-0.4458,-0.4234,-0.2525,-0.3342,-0.292,-0.4794,-0.8372,0,0,0,0,0,0,0,0,0.016,-0.0214,-0.0208,-0.0326,-0.0331,-0.0358,-0.0336,-0.0523,-0.0411,-0.0481,-0.0571,-0.0892,-0.1452,-0.236,-0.2712,-0.1885,-0.0785,-0.0982,-0.1324,-0.1463,-0.1393,-0.0977,-0.0539,-0.0486,-0.0796,-0.0737,-0.0555,-0.0758,-0.197,-0.2435,-0.1009,-0.0865,-0.3358,-0.3364,0,0,0,-0.7635,-0.5649,-0.0614,-0.0198,-0.0214,-0.0342,-0.0577,-0.0331,0.0027,0,0,0,0,0,0,0,0.0016,-0.0203,-0.0139,-0.0331,-0.023,-0.0587,-0.086,-0.189,-0.2547,-0.2499,-0.0945,-0.0721,-0.1046,-0.1132,-0.1244,-0.11,-0.0689,-0.0374,-0.039,-0.0689,0.0021,-0.0021,-0.0737,-0.1292,-0.1719,-0.173,-0.2098,-0.2355,0.0,0.0,-0.26,-0.4586,-0.3198,-0.1137,-0.0892,-0.0924,-0.094,-0.0833,-0.0416,0.0053,0,0,0,0,0,0,0,0,0,0,0,0,-0.0374,-0.0427,-0.1265,-0.205,-0.1895,-0.0699,-0.0513,-0.0731,-0.0678,-0.0753,-0.0849,-0.0609,-0.0384,-0.0336,0,0.0358,0.0214,-0.0064,-0.0571,-0.1025,0,0,0,0,0,-0.4629,-0.2953,-0.1773,-0.1148,-0.1858,-0.181,-0.1121,-0.0256,0.0101,0,0,0,0,0,0,0,0,0,0,0,0,0,0,0,0,-0.2146,-0.1511,0,0,-0.0561,-0.04,-0.039,-0.0603,-0.0443,-0.0347,-0.0304,0,0,0,0.0123,-0.0336,-0.0635,0,0,0,0,0,-0.3956,-0.2098,-0.0924,-0.1436,-0.2445,-0.1965,-0.0416,-0.0016,0,0,0,0,0,0,0,0,0,0,0,0,0,0,0,0,0,0,-0.1564,-0.1468,0,0,0,0,0,0,0,-0.0272,0,0,0,0,0,0,0,0,0,0,0,-0.3337,-0.1698,-0.0619,-0.1607,-0.2712,-0.1714,0.0198,0,0,0,0,0,0,0,0,0,0,0,0,0,0,0,0,0,0,0,0,-0.2936,-0.0673,-0.0037,0.031,0,0,0,0,0,0,0,0,0,0,0,0,0,0,0,0,-0.2232,-0.166,-0.0619,-0.1442,-0.275,-0.1644,0,0,0,0,0,0,0,0,0,0,0,0,0,0,0,0,0,0,0,0,0,0,-0.1345,-0.0075,0.0619,0.0,-0.0262,0.0,0,0,0,0,0,0,0,0,0,0,0,0,0,0,-0.2595,-0.0502,-0.103,-0.252,-0.1377,0,0,0,0,0,0,0,0,0,0,0,0,0,0,0,0,0,0,0,0,0,0,0,0,0,0,-0.0523,-0.0005,0,0,0,0,0,0,0,0,0,0,0,0,0,0,-0.3422,-0.0091,-0.0486,-0.2435,-0.1014,0,0,0,0,0,0,0,0,0,0,0,0,0,0,0,0,0,0,0,0,0,0,0,0,0,0,0,0,0,0,0,0,0,0,0,0,0,0,0,0,0,0,-0.3102,0.0993,-0.0123,-0.2349,-0.0876,0,0,0,0,0,0,0,0,0,0,0,0,0,0,0,0,0,0,0,0,0,0,0,0,0,0,0,0,0,0,0,0,0,0,0,0,0,0,0,0,0,0,-0.2734,0.0908,-0.0032,-0.2061,-0.0715,0,0,0,0,0,0,0,0,0,0,0,0,0,0,0,0,0,0,0,0,0,0,0,0,0,0,0,0,0,0,0,0,0,0,0,0,0,0,0,0,0,0,0,0.0352,-0.039,-0.1698,-0.0198,0,0,0,0,0,0,0,0,0,0,0,0,0,0,0,0,0,0,0,0,0,0,0,0,0,0,0,0,0,0,0,0,0,0,0,0,0,0,0,0,0,0,0,0.063,-0.047,-0.0908,0.0187,0,0,0,0,0,0,0,0,0,0,0,0,0,0,0,0,0,0,0,0,0,0,0,0,0,0,0,0,0,0,0,0,0,0,0,0,0,0,0,0,0,0,0,0,-0.0214,-0.031,0,0,0,0,0,0,0,0,0,0,0,0,0,0,0,0,0,0,0,0,0,0,0,0,0,0,0,0,0,0,0,0,0,0,0,0,0,0,0,0,0,0,0,0,0,0,0,0,0,0,0,0,0,0,0,0,0,0,0,0,0,0,0,0,0,0,0,0,0,0,0,0,0,0,0,0,0,0,0,0,0,0,0,0,0,0,0,0,0,0,0,0,0,0,0,0,0,0,0,0,0,0,0,0,0,0,0,0,0,0,0,0,0,0,0,0,0,0,0,0,0,0,0,0,0,0,0,0,0,0,0,0,0,0,0,0,0,0,0,0,0,0,0,0,0,0,0,0,0,0,0,0,0,0,0,0,0,0,0,0,0,0,0,0,0,0,0,0,0,0,0,0,0,0,0,0,0,0,0,0,0,0,0,0,0,0,0,0,0,0,0,0,0,0,0,0,0,0,0,0,0,0,0,0,0,0,0,0,0,0,0,0,0,0,0,0,0,0,0,0,0,0,0,0,0,0,0,0,0,0,0,0,0,0,0,0,0,0,0,0,0,0,0,0,0,0,0,0,0,0,0,0,0,0,0,0,0,0,0,0,0,0,0,0,0,0,0,0,0,0,0,0,0,0,0,0,0,0,0,0,0,0,0,0,0,0,0,0,0,0,0,0,0,0,0,0,0,0,0,0,0,0,0,0,0,0,0,0,0,0,0,0,0]}]],[[{"header":{"parameterUnit":"kt","parameterCategory":2,"dx":1,"dy":1,"la1":29.764190673828125,"la2":30.86408042907715,"lo1":-88.46762084960938,"lo2":-86.9344482421875,"nx":47,"ny":34,"refTime":"2022-10-14T00:00:00:Z","depth":"6","parameterNumber":2,"parameterNumberName":"U-component_of_CURRENTS"},"data":[0.0262,0.0133,0.0037,0.0117,0.0438,0.0833,0.118,0.1495,0.1687,0.158,0.1244,0.0924,0.0721,0.0603,0.0555,0.0619,0.0801,0.1041,0.1196,0.1292,0.1297,0.1137,0.0886,0.0646,0.0427,0.0,-0.0715,-0.1463,-0.1783,-0.1415,-0.0897,-0.1014,-0.1596,-0.2018,-0.2173,-0.2168,-0.2125,-0.212,-0.2125,-0.2098,-0.2034,-0.1927,-0.1773,-0.1586,-0.1415,-0.1292,-0.1249,0.0262,0.0085,-0.016,-0.0315,-0.0235,0.0091,0.047,0.0747,0.086,0.0828,0.0731,0.063,0.0577,0.0561,0.0662,0.0886,0.11,0.1287,0.1442,0.1474,0.1388,0.1244,0.103,0.063,-0.0027,-0.0828,-0.1527,-0.1826,-0.1981,-0.197,-0.1484,-0.095,-0.0977,-0.1442,-0.1837,-0.2034,-0.2077,-0.2093,-0.2066,-0.1997,-0.1922,-0.1853,-0.1805,-0.1757,-0.173,-0.1741,-0.1783,0.0315,0.0208,-0.008,-0.0363,-0.0438,-0.0331,-0.0123,0.0123,0.0347,0.0475,0.0539,0.0609,0.0683,0.0828,0.1036,0.1196,0.1287,0.1367,0.1458,0.149,0.1426,0.134,0.1249,0.0982,0.0272,-0.0742,-0.1479,-0.1762,-0.1767,-0.1741,-0.1692,-0.1426,-0.0993,-0.087,-0.1255,-0.1554,-0.1666,-0.1789,-0.181,-0.1757,-0.1714,-0.1714,-0.1773,-0.1858,-0.1938,-0.1986,-0.1986,0.04,0.0368,0.0251,0.0027,-0.0182,-0.0235,-0.0128,0.0069,0.0272,0.0459,0.0609,0.0763,0.0977,0.1185,0.1313,0.1367,0.1383,0.1383,0.1399,0.142,0.1415,0.1367,0.1351,0.141,0.1249,0.0689,0.0075,-0.0336,-0.0667,-0.1025,-0.1143,-0.118,-0.1319,-0.1164,-0.0972,-0.1014,-0.1228,-0.1452,-0.15,-0.1495,-0.1516,-0.1575,-0.1623,-0.1703,-0.1826,-0.1927,-0.1954,0.0529,0.0497,0.0459,0.0379,0.0262,0.0182,0.0192,0.0304,0.0491,0.0694,0.0892,0.1073,0.1223,0.1335,0.1404,0.1426,0.141,0.1393,0.1383,0.1383,0.1372,0.1345,0.134,0.1415,0.1575,0.1596,0.1319,0.0913,0.0507,0.0091,-0.0342,-0.071,-0.0881,-0.1164,-0.1532,-0.1356,-0.1052,-0.11,-0.1212,-0.1297,-0.1361,-0.1399,-0.1399,-0.1393,-0.1452,-0.1538,-0.1575,0.0673,0.0641,0.0619,0.0609,0.0603,0.0614,0.0662,0.0758,0.0876,0.0993,0.11,0.1191,0.1276,0.1356,0.141,0.1426,0.141,0.1388,0.1377,0.1372,0.1356,0.1319,0.1287,0.1292,0.1377,0.1479,0.1431,0.1191,0.087,0.0529,0.0144,-0.0288,-0.0694,-0.0886,-0.1148,-0.1564,-0.1778,-0.158,-0.1207,-0.1116,-0.1233,-0.1265,-0.1175,-0.1084,-0.1004,-0.095,-0.0972,0.079,0.0774,0.0769,0.0774,0.0785,0.0817,0.0865,0.0924,0.0998,0.1073,0.1159,0.1233,0.1313,0.1377,0.1415,0.142,0.1399,0.1367,0.134,0.1313,0.1281,0.1249,0.1228,0.1223,0.1233,0.1239,0.1207,0.1137,0.102,0.0774,0.0432,0.0037,-0.039,-0.0731,-0.0934,-0.1223,-0.1564,-0.1895,-0.2013,-0.1826,-0.1527,-0.1292,-0.1164,-0.1009,-0.0854,-0.0726,-0.0683,0.0742,0.0796,0.0833,0.0854,0.0865,0.0886,0.0918,0.0966,0.103,0.1111,0.1207,0.1303,0.1383,0.1431,0.1442,0.1426,0.1393,0.1351,0.1319,0.1303,0.1297,0.1281,0.1255,0.1207,0.1148,0.1078,0.0993,0.0918,0.0865,0.0801,0.0609,0.023,-0.0224,-0.0598,-0.0849,-0.1057,-0.1415,-0.1821,-0.197,-0.2221,-0.2371,-0.213,-0.1746,-0.1367,-0.1084,-0.0849,-0.0737,-0.0016,0.0331,0.0699,0.087,0.0929,0.0956,0.0977,0.102,0.1089,0.1191,0.1303,0.141,0.149,0.1532,0.1522,0.1495,0.1447,0.1404,0.1372,0.1367,0.1377,0.1361,0.1292,0.1196,0.1095,0.1009,0.094,0.087,0.0785,0.0694,0.0593,0.0352,-0.0091,-0.0534,-0.0844,-0.1095,-0.1319,-0.1586,-0.2013,-0.22,-0.2141,-0.2365,-0.2563,-0.2349,-0.1842,-0.1329,-0.1025,0.0021,0.0043,0.0155,0.0486,0.087,0.1014,0.1041,0.1073,0.1153,0.1265,0.1404,0.1527,0.1596,0.1634,0.165,0.1634,0.1591,0.1538,0.149,0.1452,0.1388,0.1292,0.1175,0.1084,0.1025,0.0988,0.095,0.0876,0.0747,0.0593,0.0464,0.0326,0.0027,-0.0416,-0.0763,-0.095,-0.1132,-0.1415,-0.1586,-0.1618,-0.1863,-0.2141,-0.2253,-0.2648,-0.2792,-0.2258,-0.1719,0.0657,0.0513,0.0299,0.0256,0.0374,0.0571,0.0753,0.0886,0.103,0.1143,0.1196,0.1249,0.1255,0.1351,0.165,0.1805,0.1751,0.1655,0.1554,0.1442,0.1303,0.1164,0.1052,0.0988,0.0945,0.0897,0.0822,0.071,0.0571,0.0438,0.032,0.023,0.0107,-0.0187,-0.0566,-0.0774,-0.0806,-0.0838,-0.095,-0.1105,-0.1303,-0.1431,-0.1821,-0.2445,-0.2675,-0.2621,-0.2632,0.2109,0.1725,0.0924,0.0336,0.039,0.0406,0.0256,0.0299,0.0545,0.0769,0.102,0.149,0.1548,0.1692,0.2104,0.2034,0.1863,0.1709,0.1554,0.1388,0.1196,0.0998,0.0833,0.0662,0.0448,0.0224,0.0021,-0.0123,-0.0192,-0.016,-0.0059,-0.0016,-0.0048,-0.0166,-0.0379,-0.0539,-0.0593,-0.063,-0.0678,-0.0678,-0.0683,-0.0849,-0.1393,-0.1997,-0.2632,-0.3145,-0.3268,0.276,0.2515,0.2349,0.1986,0.1463,0.1244,0.0598,0.0117,0.0235,0.0587,0.1356,0.2232,0.1943,0.2232,0.2931,0.2403,0.1853,0.1612,0.15,0.1351,0.1089,0.079,0.0513,0.0251,-0.0011,-0.0278,-0.0529,-0.0726,-0.0806,-0.0822,-0.0833,-0.0838,-0.0865,-0.0929,-0.0956,-0.0844,-0.0561,-0.0443,-0.0635,-0.0886,-0.1095,-0.118,-0.1228,-0.1522,-0.2162,-0.2723,-0.2926,0,0,0.0812,0.189,0.2088,0.2258,0.1228,0.165,0.1901,0.1709,0.1495,0.1575,0,0.1276,0.205,0.1676,0.1575,0.1506,0.1431,0.1265,0.1057,0.0854,0.0545,0.0219,-0.0048,-0.0304,-0.0502,-0.0758,-0.1009,-0.1137,-0.1132,-0.1105,-0.1111,-0.11,-0.1046,-0.0998,-0.0897,-0.0641,-0.0603,-0.1046,-0.1543,-0.1805,-0.1719,-0.141,-0.1303,-0.1564,-0.197,0.2194,0.2504,0.2515,0.2387,0.2349,0,0,0.0769,0.1874,0.1265,-0.0667,-0.2691,-0.024,0.323,0,0,0,0,0,0,0,0,0.0085,0.0246,0.0246,0.0059,0.0043,0.0133,0.0187,-0.0027,-0.0224,-0.0267,-0.0149,-0.0192,-0.0491,-0.0801,-0.0998,-0.1009,-0.0972,-0.1111,-0.1399,-0.1628,-0.165,-0.1452,-0.1212,-0.1073,-0.11,0.2541,0.2312,0.2184,0.2248,0.1874,0.2013,0.2712,0.2002,0.1191,0,0,0,-0.0534,-0.1901,-0.2627,-0.1917,-0.087,-0.0192,0.0251,0.04,0.031,0,0,0,0,0,0,0,0.0288,0.0646,0.0603,0.0593,0.1127,0.1511,0.126,0.0683,-0.0133,-0.0689,-0.0812,-0.0854,-0.094,-0.1143,-0.1399,-0.1548,-0.1474,-0.1255,-0.1041,0.2424,0.2285,0.2034,0.1842,0.1815,0.1799,0.0993,-0.016,-0.1415,-0.2088,-0.2098,-0.0347,0.0774,0.0166,0.0198,0.0128,0.0464,0.0828,0.0673,-0.0011,-0.0571,0,0,0,0,0,0,0,0,0,0,0,0,0.0299,0.1004,0.1543,0.165,0.1121,0.0064,-0.0133,-0.0235,-0.0384,-0.0603,-0.0886,-0.1068,-0.103,-0.0897,0,0.047,0.1255,0.1543,0.1404,0.1308,0,0,0,0,0,0.0481,0.0705,0.0705,0.0897,0.0865,0.0934,0.0918,0.0726,0.0646,0,0,0,0,0,0,0,0,0,0,0,0,0,0,0,0,0.0886,0.1025,0,0,0.0,-0.0112,-0.0208,-0.0336,-0.0459,-0.0555,-0.0507,0,0,0,0.0133,0.024,0.0214,0,0,0,0,0,0.039,0.0806,0.0966,0.1111,0.1164,0.0972,0.0262,-0.0075,0,0,0,0,0,0,0,0,0,0,0,0,0,0,0,0,0,0,-0.0667,-0.1207,0,0,0,0,0,0,0,-0.0048,0,0,0,0,0,0,0,0,0,0,0,0.0545,0.0998,0.0747,0.0876,0.1175,0.0817,0.0438,0,0,0,0,0,0,0,0,0,0,0,0,0,0,0,0,0,0,0,0,-0.0075,-0.0112,-0.0016,0.0032,0,0,0,0,0,0,0,0,0,0,0,0,0,0,0,0,0.031,0.0667,0.0571,0.0758,0.1121,0.1121,0,0,0,0,0,0,0,0,0,0,0,0,0,0,0,0,0,0,0,0,0,0,-0.0336,-0.0374,-0.016,-0.0726,-0.0683,-0.0155,0,0,0,0,0,0,0,0,0,0,0,0,0,0,0.087,0.0737,0.0902,0.0924,0.0838,0,0,0,0,0,0,0,0,0,0,0,0,0,0,0,0,0,0,0,0,0,0,0,0,0,0,-0.0096,-0.0198,0,0,0,0,0,0,0,0,0,0,0,0,0,0,0.024,0.0774,0.0956,0.0796,0.0758,0,0,0,0,0,0,0,0,0,0,0,0,0,0,0,0,0,0,0,0,0,0,0,0,0,0,0,0,0,0,0,0,0,0,0,0,0,0,0,0,0,0,-0.0016,0.0801,0.1415,0.0993,0.0785,0,0,0,0,0,0,0,0,0,0,0,0,0,0,0,0,0,0,0,0,0,0,0,0,0,0,0,0,0,0,0,0,0,0,0,0,0,0,0,0,0,0,0.047,0.1479,0.1773,0.1287,0.1025,0,0,0,0,0,0,0,0,0,0,0,0,0,0,0,0,0,0,0,0,0,0,0,0,0,0,0,0,0,0,0,0,0,0,0,0,0,0,0,0,0,0,0,0.0272,0.0966,0.1329,0.1303,0,0,0,0,0,0,0,0,0,0,0,0,0,0,0,0,0,0,0,0,0,0,0,0,0,0,0,0,0,0,0,0,0,0,0,0,0,0,0,0,0,0,0,0.031,0.0539,0.0059,-0.0342,0,0,0,0,0,0,0,0,0,0,0,0,0,0,0,0,0,0,0,0,0,0,0,0,0,0,0,0,0,0,0,0,0,0,0,0,0,0,0,0,0,0,0,0,-0.0272,-0.055,0,0,0,0,0,0,0,0,0,0,0,0,0,0,0,0,0,0,0,0,0,0,0,0,0,0,0,0,0,0,0,0,0,0,0,0,0,0,0,0,0,0,0,0,0,0,0,0,0,0,0,0,0,0,0,0,0,0,0,0,0,0,0,0,0,0,0,0,0,0,0,0,0,0,0,0,0,0,0,0,0,0,0,0,0,0,0,0,0,0,0,0,0,0,0,0,0,0,0,0,0,0,0,0,0,0,0,0,0,0,0,0,0,0,0,0,0,0,0,0,0,0,0,0,0,0,0,0,0,0,0,0,0,0,0,0,0,0,0,0,0,0,0,0,0,0,0,0,0,0,0,0,0,0,0,0,0,0,0,0,0,0,0,0,0,0,0,0,0,0,0,0,0,0,0,0,0,0,0,0,0,0,0,0,0,0,0,0,0,0,0,0,0,0,0,0,0,0,0,0,0,0,0,0,0,0,0,0,0,0,0,0,0,0,0,0,0,0,0,0,0,0,0,0,0,0,0,0,0,0,0,0,0,0,0,0,0,0,0,0,0,0,0,0,0,0,0,0,0,0,0,0,0,0,0,0,0,0,0,0,0,0,0,0,0,0,0,0,0,0,0,0,0,0,0,0,0,0,0,0,0,0,0,0,0,0,0,0,0,0,0,0,0,0,0,0,0,0,0,0,0,0,0,0,0,0,0,0,0,0,0,0,0]}],[{"header":{"parameterUnit":"kt","parameterCategory":2,"dx":1,"dy":1,"la1":29.764190673828125,"la2":30.86408042907715,"lo1":-88.46762084960938,"lo2":-86.9344482421875,"nx":47,"ny":34,"refTime":"2022-10-14T00:00:00:Z","depth":"6","parameterNumber":3,"parameterNumberName":"V-component_of_CURRENTS"},"data":[-0.1351,-0.1773,-0.2029,-0.1564,-0.0715,-0.016,-0.0171,-0.0571,-0.0982,-0.1244,-0.1244,-0.1143,-0.1009,-0.0753,-0.0577,-0.0464,-0.0368,-0.024,-0.047,-0.0849,-0.1164,-0.0945,-0.0801,-0.1719,-0.2824,-0.2627,-0.2285,-0.276,-0.3059,-0.3161,-0.3214,-0.3059,-0.2477,-0.1863,-0.134,-0.1068,-0.0881,-0.0753,-0.0625,-0.0432,-0.0182,0.0048,0.0246,0.0416,0.0523,0.0566,0.0603,-0.1292,-0.1554,-0.1885,-0.173,-0.1169,-0.0651,-0.0491,-0.0614,-0.0774,-0.0849,-0.0833,-0.0844,-0.0747,-0.0614,-0.0614,-0.0603,-0.055,-0.0438,-0.0566,-0.0801,-0.0945,-0.0742,-0.0545,-0.11,-0.2088,-0.2088,-0.197,-0.2686,-0.3545,-0.3641,-0.3374,-0.3251,-0.3011,-0.2515,-0.1965,-0.157,-0.1201,-0.102,-0.0892,-0.0763,-0.055,-0.0347,-0.0214,-0.0075,0.0011,0.0064,0.0123,-0.126,-0.1319,-0.1559,-0.1607,-0.134,-0.0977,-0.0731,-0.0678,-0.0689,-0.071,-0.0694,-0.0699,-0.0635,-0.0657,-0.0731,-0.0737,-0.0673,-0.0566,-0.0587,-0.0699,-0.078,-0.0662,-0.0363,-0.0438,-0.1084,-0.1612,-0.1847,-0.2456,-0.3401,-0.3967,-0.3956,-0.3497,-0.3177,-0.2995,-0.2744,-0.2381,-0.1917,-0.1676,-0.15,-0.1356,-0.1164,-0.0934,-0.0774,-0.0699,-0.0646,-0.0598,-0.0491,-0.1244,-0.1175,-0.1244,-0.1335,-0.1271,-0.1095,-0.0897,-0.078,-0.0715,-0.0737,-0.0726,-0.0699,-0.0689,-0.0753,-0.0801,-0.0796,-0.0731,-0.0635,-0.0582,-0.0598,-0.0641,-0.0577,-0.0331,-0.0144,-0.0326,-0.0897,-0.1415,-0.2066,-0.2718,-0.3502,-0.4036,-0.3871,-0.3326,-0.2985,-0.2947,-0.2979,-0.2718,-0.2456,-0.2205,-0.1997,-0.1831,-0.1628,-0.1426,-0.1361,-0.134,-0.1319,-0.1207,-0.1201,-0.1116,-0.1078,-0.1111,-0.1105,-0.1068,-0.0977,-0.0902,-0.0838,-0.0838,-0.0833,-0.0822,-0.0806,-0.0812,-0.0822,-0.0806,-0.0747,-0.0662,-0.0598,-0.0571,-0.0571,-0.0534,-0.0416,-0.023,-0.0149,-0.0422,-0.0892,-0.1404,-0.1949,-0.2579,-0.3262,-0.3647,-0.3396,-0.3001,-0.2718,-0.2707,-0.2782,-0.2798,-0.2648,-0.2365,-0.221,-0.2077,-0.1943,-0.1847,-0.1837,-0.1815,-0.1714,-0.1127,-0.1073,-0.1025,-0.1009,-0.1004,-0.1009,-0.1004,-0.0988,-0.0982,-0.0977,-0.0977,-0.0961,-0.0929,-0.0892,-0.0854,-0.0822,-0.0758,-0.0683,-0.0614,-0.0593,-0.0593,-0.0571,-0.0502,-0.0384,-0.0267,-0.0358,-0.0598,-0.0918,-0.134,-0.1789,-0.2339,-0.2915,-0.3075,-0.2942,-0.2707,-0.2488,-0.244,-0.2344,-0.2371,-0.2301,-0.2296,-0.2146,-0.204,-0.1954,-0.1895,-0.1842,-0.173,-0.1068,-0.1046,-0.1014,-0.1004,-0.1004,-0.102,-0.1046,-0.1068,-0.1084,-0.1095,-0.1105,-0.1095,-0.1057,-0.0998,-0.0924,-0.0854,-0.0774,-0.0689,-0.0625,-0.0603,-0.0609,-0.0598,-0.055,-0.047,-0.0374,-0.0347,-0.0416,-0.0587,-0.0865,-0.1217,-0.1644,-0.2205,-0.2638,-0.2659,-0.2536,-0.2536,-0.2477,-0.2248,-0.2056,-0.1879,-0.1949,-0.1981,-0.1981,-0.1874,-0.1719,-0.157,-0.1393,-0.1121,-0.1116,-0.1078,-0.1052,-0.1052,-0.1078,-0.1116,-0.1153,-0.118,-0.1201,-0.1217,-0.1212,-0.1169,-0.1095,-0.0993,-0.0892,-0.0785,-0.0689,-0.0625,-0.0609,-0.063,-0.0635,-0.0587,-0.0497,-0.0384,-0.031,-0.031,-0.0422,-0.0587,-0.0758,-0.1095,-0.1612,-0.2136,-0.2397,-0.2232,-0.2157,-0.2349,-0.2461,-0.2232,-0.2018,-0.1837,-0.1815,-0.1799,-0.1687,-0.149,-0.1223,-0.0956,-0.1463,-0.1532,-0.1361,-0.1196,-0.1143,-0.1137,-0.1175,-0.1228,-0.1271,-0.1303,-0.1319,-0.1297,-0.1239,-0.1143,-0.102,-0.0902,-0.0785,-0.0683,-0.0625,-0.0635,-0.0683,-0.0689,-0.0619,-0.0497,-0.0368,-0.0272,-0.0251,-0.0347,-0.0481,-0.0534,-0.0662,-0.1062,-0.1618,-0.1991,-0.1997,-0.1831,-0.1927,-0.2114,-0.2269,-0.2349,-0.2258,-0.2258,-0.213,-0.1719,-0.1313,-0.0886,-0.0475,-0.1644,-0.1853,-0.1799,-0.1682,-0.1404,-0.1191,-0.1201,-0.1287,-0.1367,-0.1436,-0.1463,-0.1399,-0.1335,-0.1191,-0.1009,-0.0865,-0.0737,-0.0657,-0.063,-0.0662,-0.0705,-0.0694,-0.0619,-0.0518,-0.0406,-0.0299,-0.0251,-0.0294,-0.0363,-0.0384,-0.0406,-0.0593,-0.1036,-0.1527,-0.173,-0.1655,-0.1602,-0.1618,-0.1885,-0.2184,-0.2306,-0.2472,-0.2573,-0.2339,-0.1698,-0.0924,-0.0208,-0.1335,-0.1623,-0.1959,-0.2146,-0.1783,-0.1404,-0.1292,-0.142,-0.1564,-0.1735,-0.1858,-0.181,-0.1591,-0.1532,-0.1292,-0.0844,-0.0625,-0.0582,-0.0598,-0.063,-0.0651,-0.063,-0.0598,-0.0582,-0.055,-0.0491,-0.0411,-0.0368,-0.0283,-0.0235,-0.0256,-0.0342,-0.055,-0.1014,-0.1468,-0.1564,-0.1458,-0.1297,-0.1452,-0.1842,-0.1879,-0.1831,-0.213,-0.2381,-0.2114,-0.1484,-0.0763,-0.095,-0.149,-0.1959,-0.2301,-0.2056,-0.1468,-0.1265,-0.1548,-0.1815,-0.205,-0.2258,-0.2312,-0.1383,-0.2242,-0.1495,-0.0865,-0.0464,-0.0427,-0.0481,-0.0561,-0.063,-0.0635,-0.0641,-0.0699,-0.0705,-0.0683,-0.063,-0.0561,-0.0395,-0.0304,-0.0272,-0.0315,-0.0368,-0.071,-0.1239,-0.149,-0.1399,-0.1132,-0.1244,-0.1511,-0.149,-0.1319,-0.1319,-0.1468,-0.1773,-0.1538,-0.1191,-0.0897,-0.149,-0.1794,-0.2397,-0.2397,-0.0972,-0.0774,-0.2136,-0.2339,-0.2419,-0.2568,-0.2258,-0.0742,-0.3209,-0.078,-0.0246,-0.0176,-0.0203,-0.0283,-0.0352,-0.0422,-0.0534,-0.0571,-0.0635,-0.0603,-0.0593,-0.0566,-0.0593,-0.0491,-0.0422,-0.0368,-0.0422,-0.0432,-0.0657,-0.1132,-0.1591,-0.1554,-0.0929,-0.1046,-0.1511,-0.1511,-0.1244,-0.0849,-0.0726,-0.1004,-0.1084,-0.1116,0,0,-0.1239,-0.15,-0.1516,-0.1062,-0.047,-0.1831,-0.165,-0.1324,-0.228,-0.2264,0,-0.5115,0.0027,0.0374,0.0037,-0.008,-0.0166,-0.0171,-0.0182,-0.0342,-0.0112,-0.024,-0.023,-0.0288,-0.024,-0.0304,-0.04,-0.04,-0.0267,-0.0272,-0.0336,-0.0566,-0.1073,-0.1757,-0.1895,-0.1084,-0.0785,-0.1329,-0.149,-0.1415,-0.1062,-0.0641,-0.0486,-0.0758,-0.1127,-0.0246,-0.0021,-0.0817,-0.1062,-0.1602,0,0,-0.1575,-0.1757,-0.1137,-0.2547,-0.2301,-0.2963,-0.5756,0,0,0,0,0,0,0,0,0.0192,-0.0011,-0.0016,-0.0069,0.0027,0.0021,0.0091,-0.0112,-0.0011,0.0032,-0.0085,-0.0358,-0.0742,-0.1548,-0.1949,-0.1458,-0.0678,-0.0934,-0.1244,-0.1377,-0.1313,-0.0913,-0.0486,-0.0427,-0.0731,-0.0379,-0.0101,-0.0085,-0.055,-0.1303,-0.0464,-0.0166,-0.1543,-0.1949,0,0,0,-0.4682,-0.4111,-0.1201,-0.0812,-0.04,-0.0016,0.0075,0.0283,0.0112,0,0,0,0,0,0,0,0.0304,0.0363,0.0384,0.0139,-0.0336,-0.0256,-0.0294,-0.063,-0.1169,-0.1388,-0.0411,-0.0683,-0.0961,-0.1036,-0.1153,-0.1014,-0.063,-0.0326,-0.0336,-0.0267,0.0352,0.0059,-0.0459,-0.1068,-0.0982,-0.0336,-0.0817,-0.1714,0.0,0.0,-0.0998,-0.2274,-0.2355,-0.2007,-0.157,-0.0865,-0.0027,0.0278,0.0683,0.0224,0,0,0,0,0,0,0,0,0,0,0,0,0.0539,0.047,0.023,-0.0032,0.0005,0.0283,-0.0432,-0.0673,-0.0582,-0.0662,-0.0758,-0.0545,-0.0336,-0.0288,0,0.0854,0.0224,-0.0139,-0.0555,-0.0481,0,0,0,0,0,-0.1746,-0.0924,-0.1276,-0.1607,-0.1442,-0.0865,-0.0032,0.0422,0.0801,0,0,0,0,0,0,0,0,0,0,0,0,0,0,0,0,-0.0523,-0.0203,0,0,-0.0459,-0.032,-0.032,-0.0529,-0.0384,-0.0304,-0.0267,0,0,0,0.0251,-0.0219,0.0053,0,0,0,0,0,-0.1137,-0.0715,-0.1025,-0.1767,-0.1431,-0.0689,0.0443,0.0432,0,0,0,0,0,0,0,0,0,0,0,0,0,0,0,0,0,0,-0.0486,-0.0726,0,0,0,0,0,0,0,-0.0246,0,0,0,0,0,0,0,0,0,0,0,-0.0758,-0.0582,-0.1014,-0.2018,-0.1367,-0.0358,0.0918,0,0,0,0,0,0,0,0,0,0,0,0,0,0,0,0,0,0,0,0,-0.1452,-0.0619,-0.0053,0.0107,0,0,0,0,0,0,0,0,0,0,0,0,0,0,0,0,-0.0742,-0.0448,-0.0865,-0.1933,-0.141,-0.0155,0,0,0,0,0,0,0,0,0,0,0,0,0,0,0,0,0,0,0,0,0,0,-0.1239,-0.0107,0.0214,0.0,-0.0251,0.008,0,0,0,0,0,0,0,0,0,0,0,0,0,0,-0.0363,-0.0481,-0.142,-0.158,-0.0219,0,0,0,0,0,0,0,0,0,0,0,0,0,0,0,0,0,0,0,0,0,0,0,0,0,0,-0.0497,0.016,0,0,0,0,0,0,0,0,0,0,0,0,0,0,-0.0342,-0.0101,-0.0822,-0.1671,-0.0347,0,0,0,0,0,0,0,0,0,0,0,0,0,0,0,0,0,0,0,0,0,0,0,0,0,0,0,0,0,0,0,0,0,0,0,0,0,0,0,0,0,0,-0.0747,0.0267,-0.0438,-0.1564,-0.0342,0,0,0,0,0,0,0,0,0,0,0,0,0,0,0,0,0,0,0,0,0,0,0,0,0,0,0,0,0,0,0,0,0,0,0,0,0,0,0,0,0,0,-0.1105,0.0881,-0.0037,-0.1196,-0.0101,0,0,0,0,0,0,0,0,0,0,0,0,0,0,0,0,0,0,0,0,0,0,0,0,0,0,0,0,0,0,0,0,0,0,0,0,0,0,0,0,0,0,0,0.095,0.0198,-0.047,0.0464,0,0,0,0,0,0,0,0,0,0,0,0,0,0,0,0,0,0,0,0,0,0,0,0,0,0,0,0,0,0,0,0,0,0,0,0,0,0,0,0,0,0,0,0.0662,-0.024,0.0427,0.0838,0,0,0,0,0,0,0,0,0,0,0,0,0,0,0,0,0,0,0,0,0,0,0,0,0,0,0,0,0,0,0,0,0,0,0,0,0,0,0,0,0,0,0,0,-0.0657,0.0812,0,0,0,0,0,0,0,0,0,0,0,0,0,0,0,0,0,0,0,0,0,0,0,0,0,0,0,0,0,0,0,0,0,0,0,0,0,0,0,0,0,0,0,0,0,0,0,0,0,0,0,0,0,0,0,0,0,0,0,0,0,0,0,0,0,0,0,0,0,0,0,0,0,0,0,0,0,0,0,0,0,0,0,0,0,0,0,0,0,0,0,0,0,0,0,0,0,0,0,0,0,0,0,0,0,0,0,0,0,0,0,0,0,0,0,0,0,0,0,0,0,0,0,0,0,0,0,0,0,0,0,0,0,0,0,0,0,0,0,0,0,0,0,0,0,0,0,0,0,0,0,0,0,0,0,0,0,0,0,0,0,0,0,0,0,0,0,0,0,0,0,0,0,0,0,0,0,0,0,0,0,0,0,0,0,0,0,0,0,0,0,0,0,0,0,0,0,0,0,0,0,0,0,0,0,0,0,0,0,0,0,0,0,0,0,0,0,0,0,0,0,0,0,0,0,0,0,0,0,0,0,0,0,0,0,0,0,0,0,0,0,0,0,0,0,0,0,0,0,0,0,0,0,0,0,0,0,0,0,0,0,0,0,0,0,0,0,0,0,0,0,0,0,0,0,0,0,0,0,0,0,0,0,0,0,0,0,0,0,0,0,0,0,0,0,0,0,0,0,0,0,0,0,0,0,0,0,0,0,0,0,0,0]}]],[[{"header":{"parameterUnit":"kt","parameterCategory":2,"dx":1,"dy":1,"la1":29.764190673828125,"la2":30.86408042907715,"lo1":-88.46762084960938,"lo2":-86.9344482421875,"nx":47,"ny":34,"refTime":"2022-10-14T00:00:00:Z","depth":"8","parameterNumber":2,"parameterNumberName":"U-component_of_CURRENTS"},"data":[0.0272,0.0149,0.0059,0.0139,0.0459,0.0854,0.1201,0.1516,0.1703,0.1596,0.126,0.0945,0.0747,0.0625,0.0582,0.0641,0.0828,0.1068,0.1223,0.1313,0.1308,0.1148,0.0908,0.0667,0.0443,0.0021,-0.0678,-0.142,-0.1746,-0.1388,-0.087,-0.0993,-0.1575,-0.1991,-0.2146,-0.2146,-0.2104,-0.2098,-0.2104,-0.2082,-0.2018,-0.1911,-0.1757,-0.157,-0.1399,-0.1276,-0.1233,0.0272,0.0101,-0.0144,-0.0294,-0.0219,0.0107,0.0486,0.0763,0.0876,0.0849,0.0753,0.0651,0.0598,0.0587,0.0683,0.0908,0.1121,0.1308,0.1463,0.149,0.1399,0.1255,0.1046,0.0651,0.0,-0.0774,-0.1436,-0.1725,-0.1906,-0.1927,-0.1458,-0.0924,-0.095,-0.1415,-0.1815,-0.2013,-0.2056,-0.2072,-0.205,-0.1981,-0.1906,-0.1837,-0.1783,-0.1741,-0.1709,-0.1719,-0.1762,0.0326,0.0224,-0.0069,-0.0347,-0.0422,-0.0315,-0.0101,0.0144,0.0368,0.0497,0.0566,0.0635,0.0705,0.0849,0.1057,0.1212,0.1303,0.1383,0.1474,0.1506,0.1436,0.1356,0.1265,0.1004,0.0299,-0.0689,-0.1383,-0.1634,-0.165,-0.166,-0.165,-0.1399,-0.0966,-0.0844,-0.1233,-0.1532,-0.1644,-0.1773,-0.1789,-0.1741,-0.1698,-0.1698,-0.1751,-0.1837,-0.1917,-0.1965,-0.1959,0.0406,0.0379,0.0267,0.0037,-0.0166,-0.0219,-0.0107,0.0091,0.0294,0.0481,0.063,0.0785,0.0998,0.1201,0.1329,0.1383,0.1393,0.1399,0.1415,0.1436,0.1426,0.1377,0.1367,0.1431,0.1271,0.0721,0.0128,-0.0262,-0.0593,-0.095,-0.1089,-0.1153,-0.1297,-0.1143,-0.0945,-0.0993,-0.1207,-0.1431,-0.1484,-0.1474,-0.15,-0.1554,-0.1602,-0.1682,-0.1805,-0.1901,-0.1927,0.0534,0.0507,0.047,0.039,0.0272,0.0198,0.0208,0.0326,0.0507,0.0715,0.0913,0.1089,0.1239,0.1351,0.142,0.1436,0.1426,0.141,0.1399,0.1393,0.1383,0.1356,0.1351,0.1431,0.1591,0.1618,0.1345,0.094,0.0534,0.0123,-0.031,-0.0678,-0.086,-0.1143,-0.1506,-0.1329,-0.1025,-0.1078,-0.1191,-0.1276,-0.134,-0.1377,-0.1377,-0.1372,-0.1426,-0.1516,-0.1554,0.0683,0.0646,0.063,0.0619,0.0619,0.063,0.0673,0.0769,0.0892,0.1009,0.1116,0.1207,0.1292,0.1372,0.1426,0.1442,0.1426,0.1404,0.1393,0.1388,0.1367,0.1329,0.1297,0.1303,0.1393,0.1495,0.1452,0.1212,0.0892,0.0545,0.016,-0.0267,-0.0673,-0.0865,-0.1127,-0.1543,-0.1751,-0.1554,-0.118,-0.1089,-0.1207,-0.1244,-0.1153,-0.1068,-0.0988,-0.0934,-0.0956,0.0796,0.078,0.078,0.078,0.0796,0.0828,0.0876,0.094,0.1009,0.1089,0.1169,0.1249,0.1329,0.1393,0.1431,0.1436,0.1415,0.1383,0.1356,0.1324,0.1292,0.126,0.1239,0.1239,0.1244,0.1255,0.1223,0.1153,0.103,0.0785,0.0443,0.0053,-0.0368,-0.071,-0.0913,-0.1196,-0.1538,-0.1869,-0.1991,-0.1799,-0.15,-0.1265,-0.1143,-0.0993,-0.0838,-0.071,-0.0662,0.0753,0.0801,0.0844,0.0865,0.0876,0.0897,0.0929,0.0977,0.1041,0.1127,0.1223,0.1319,0.1399,0.1447,0.1458,0.1442,0.1404,0.1361,0.1329,0.1313,0.1303,0.1292,0.1265,0.1217,0.1159,0.1089,0.1009,0.0929,0.0876,0.0812,0.0619,0.024,-0.0208,-0.0577,-0.0822,-0.103,-0.1388,-0.1794,-0.1954,-0.2205,-0.2349,-0.2104,-0.1719,-0.1345,-0.1068,-0.0833,-0.0721,0.0149,0.0406,0.071,0.0881,0.0934,0.0966,0.0988,0.103,0.1105,0.1201,0.1319,0.1426,0.15,0.1538,0.1532,0.15,0.1458,0.141,0.1377,0.1372,0.1383,0.1367,0.1303,0.1207,0.1105,0.102,0.095,0.0881,0.0796,0.0705,0.0609,0.0363,-0.0075,-0.0513,-0.0822,-0.1062,-0.1287,-0.1559,-0.1991,-0.2178,-0.212,-0.2339,-0.2541,-0.2328,-0.1821,-0.1308,-0.1009,0.0635,0.0587,0.0529,0.0635,0.0886,0.1025,0.1046,0.1084,0.1159,0.1276,0.1415,0.1532,0.1602,0.1639,0.165,0.1639,0.1591,0.1538,0.149,0.1452,0.1393,0.1297,0.118,0.1089,0.1036,0.0998,0.0956,0.0881,0.0758,0.0609,0.0475,0.0336,0.0043,-0.04,-0.0737,-0.0918,-0.1105,-0.1383,-0.1559,-0.1596,-0.1837,-0.212,-0.2232,-0.2627,-0.2771,-0.2237,-0.1698,0.1874,0.1666,0.1249,0.0908,0.0785,0.0876,0.095,0.0988,0.1095,0.1223,0.1388,0.1639,0.1757,0.1719,0.1778,0.181,0.1746,0.165,0.1548,0.1436,0.1303,0.1169,0.1057,0.0993,0.0956,0.0913,0.0838,0.0726,0.0587,0.0448,0.0336,0.0246,0.0117,-0.0171,-0.0539,-0.0742,-0.0774,-0.0806,-0.0924,-0.1084,-0.1281,-0.141,-0.1794,-0.2419,-0.2654,-0.26,-0.2611,0.2787,0.2221,0.1655,0.1596,0.1479,0.1313,0.1084,0.1095,0.1276,0.1436,0.1821,0.2322,0.236,0.2296,0.2317,0.2061,0.1847,0.1692,0.1543,0.1388,0.1207,0.1025,0.087,0.0721,0.0534,0.0352,0.0187,0.0043,-0.0069,-0.0085,-0.0021,0.0005,-0.0027,-0.0144,-0.0352,-0.0513,-0.0566,-0.0609,-0.0657,-0.0662,-0.0667,-0.0833,-0.1372,-0.197,-0.26,-0.3118,-0.3241,0.2387,0.212,0.1837,0.2162,0.229,0.2093,0.1703,0.1602,0.197,0.2045,0.2189,0.2088,0.189,0.2146,0.2568,0.2157,0.1767,0.1586,0.1447,0.1255,0.1105,0.0913,0.0705,0.0513,0.0246,0.0,-0.0198,-0.0358,-0.0422,-0.0422,-0.04,-0.0379,-0.0384,-0.0432,-0.0507,-0.0571,-0.0486,-0.0427,-0.0619,-0.0865,-0.1068,-0.1153,-0.1201,-0.1495,-0.2136,-0.2702,-0.2904,0,0,0.0497,0.1287,0.1436,0.1618,0.1805,0.1703,0.1671,0.1506,0.1426,0.1431,0,0.0988,0.1522,0.1319,0.1516,0.1479,0.1393,0.1233,0.1025,0.0886,0.0758,0.0609,0.0443,0.0091,-0.0053,-0.024,-0.0336,-0.0342,-0.0166,-0.0016,0.0091,0.0144,0.0021,-0.031,-0.055,-0.0539,-0.0582,-0.1009,-0.149,-0.1741,-0.166,-0.1361,-0.126,-0.1522,-0.1933,0.1746,0.1943,0.1869,0.1474,0.1175,0,0,0.0619,0.1297,0.0972,-0.0048,-0.1639,0.0053,0.2707,0,0,0,0,0,0,0,0,0.0091,0.0304,0.0406,0.0342,0.0288,0.0374,0.0507,0.0603,0.094,0.1068,0.087,0.0662,0.0561,0.0411,0.0037,-0.0513,-0.078,-0.1052,-0.1308,-0.1506,-0.1548,-0.1372,-0.1153,-0.102,-0.1052,0.1922,0.1821,0.1671,0.1415,0.1276,0.1495,0.15,0.118,0.0982,0,0,0,-0.0037,-0.071,-0.1191,-0.0667,-0.0133,-0.0053,-0.0192,-0.008,0.008,0,0,0,0,0,0,0,0.0256,0.0411,0.0219,0.0235,0.0646,0.0972,0.0966,0.1052,0.1046,0.0737,-0.0139,-0.0603,-0.078,-0.0982,-0.1249,-0.142,-0.1383,-0.1191,-0.0993,0.1959,0.1773,0.1607,0.1265,0.1201,0.1324,0.0646,-0.0171,-0.1025,-0.1548,-0.1335,-0.0342,0.0235,0.0331,0.0603,0.0635,0.079,0.0635,0.0358,0.0182,0.0101,0,0,0,0,0,0,0,0,0,0,0,0,0.0112,0.0149,0.0278,0.0577,0.0587,0.04,0.0091,-0.0107,-0.0272,-0.0475,-0.0763,-0.0977,-0.0972,-0.0849,0,0.0448,0.1089,0.1191,0.1025,0.095,0,0,0,0,0,0.0155,0.0358,0.0667,0.094,0.0988,0.0892,0.0507,0.0155,0.0037,0,0,0,0,0,0,0,0,0,0,0,0,0,0,0,0,0.0043,0.0262,0,0,0.0043,-0.0101,-0.0192,-0.032,-0.0438,-0.0534,-0.0481,0,0,0,0.0171,0.0336,0.0331,0,0,0,0,0,0.0096,0.0443,0.0822,0.11,0.1116,0.0379,-0.0224,-0.0203,0,0,0,0,0,0,0,0,0,0,0,0,0,0,0,0,0,0,-0.04,-0.0491,0,0,0,0,0,0,0,-0.0048,0,0,0,0,0,0,0,0,0,0,0,0.0235,0.0609,0.094,0.1228,0.0966,0.0203,-0.0187,0,0,0,0,0,0,0,0,0,0,0,0,0,0,0,0,0,0,0,0,-0.0235,-0.0304,0.0112,0.0363,0,0,0,0,0,0,0,0,0,0,0,0,0,0,0,0,0.0411,0.086,0.102,0.1201,0.087,0.047,0,0,0,0,0,0,0,0,0,0,0,0,0,0,0,0,0,0,0,0,0,0,0.0005,-0.0075,-0.0053,-0.0358,-0.0283,0.0203,0,0,0,0,0,0,0,0,0,0,0,0,0,0,0.0828,0.0956,0.1201,0.0998,0.071,0,0,0,0,0,0,0,0,0,0,0,0,0,0,0,0,0,0,0,0,0,0,0,0,0,0,-0.0091,-0.0182,0,0,0,0,0,0,0,0,0,0,0,0,0,0,0.0246,0.0812,0.1308,0.1175,0.0881,0,0,0,0,0,0,0,0,0,0,0,0,0,0,0,0,0,0,0,0,0,0,0,0,0,0,0,0,0,0,0,0,0,0,0,0,0,0,0,0,0,0,0.0342,0.0982,0.1431,0.1207,0.0822,0,0,0,0,0,0,0,0,0,0,0,0,0,0,0,0,0,0,0,0,0,0,0,0,0,0,0,0,0,0,0,0,0,0,0,0,0,0,0,0,0,0,0.0358,0.0865,0.1196,0.1025,0.0673,0,0,0,0,0,0,0,0,0,0,0,0,0,0,0,0,0,0,0,0,0,0,0,0,0,0,0,0,0,0,0,0,0,0,0,0,0,0,0,0,0,0,0,0.0491,0.0961,0.0411,-0.0117,0,0,0,0,0,0,0,0,0,0,0,0,0,0,0,0,0,0,0,0,0,0,0,0,0,0,0,0,0,0,0,0,0,0,0,0,0,0,0,0,0,0,0,0.024,-0.0053,-0.0667,-0.0747,0,0,0,0,0,0,0,0,0,0,0,0,0,0,0,0,0,0,0,0,0,0,0,0,0,0,0,0,0,0,0,0,0,0,0,0,0,0,0,0,0,0,0,0,-0.0176,-0.0347,0,0,0,0,0,0,0,0,0,0,0,0,0,0,0,0,0,0,0,0,0,0,0,0,0,0,0,0,0,0,0,0,0,0,0,0,0,0,0,0,0,0,0,0,0,0,0,0,0,0,0,0,0,0,0,0,0,0,0,0,0,0,0,0,0,0,0,0,0,0,0,0,0,0,0,0,0,0,0,0,0,0,0,0,0,0,0,0,0,0,0,0,0,0,0,0,0,0,0,0,0,0,0,0,0,0,0,0,0,0,0,0,0,0,0,0,0,0,0,0,0,0,0,0,0,0,0,0,0,0,0,0,0,0,0,0,0,0,0,0,0,0,0,0,0,0,0,0,0,0,0,0,0,0,0,0,0,0,0,0,0,0,0,0,0,0,0,0,0,0,0,0,0,0,0,0,0,0,0,0,0,0,0,0,0,0,0,0,0,0,0,0,0,0,0,0,0,0,0,0,0,0,0,0,0,0,0,0,0,0,0,0,0,0,0,0,0,0,0,0,0,0,0,0,0,0,0,0,0,0,0,0,0,0,0,0,0,0,0,0,0,0,0,0,0,0,0,0,0,0,0,0,0,0,0,0,0,0,0,0,0,0,0,0,0,0,0,0,0,0,0,0,0,0,0,0,0,0,0,0,0,0,0,0,0,0,0,0,0,0,0,0,0,0,0,0,0,0,0,0,0,0,0,0,0,0,0,0,0,0,0,0,0]}],[{"header":{"parameterUnit":"kt","parameterCategory":2,"dx":1,"dy":1,"la1":29.764190673828125,"la2":30.86408042907715,"lo1":-88.46762084960938,"lo2":-86.9344482421875,"nx":47,"ny":34,"refTime":"2022-10-14T00:00:00:Z","depth":"8","parameterNumber":3,"parameterNumberName":"V-component_of_CURRENTS"},"data":[-0.1335,-0.1762,-0.2013,-0.1554,-0.0705,-0.0149,-0.016,-0.0561,-0.0972,-0.1228,-0.1228,-0.1127,-0.0993,-0.0737,-0.0555,-0.0438,-0.0342,-0.0214,-0.0448,-0.0828,-0.1143,-0.0918,-0.078,-0.1687,-0.2782,-0.2579,-0.2237,-0.2712,-0.3011,-0.3123,-0.3182,-0.3033,-0.2451,-0.1837,-0.1319,-0.1041,-0.0854,-0.0731,-0.0603,-0.0416,-0.0166,0.0064,0.0262,0.0438,0.0539,0.0582,0.0619,-0.1276,-0.1538,-0.1874,-0.1714,-0.1159,-0.0641,-0.0481,-0.0603,-0.0763,-0.0833,-0.0817,-0.0828,-0.0726,-0.0593,-0.0593,-0.0582,-0.0523,-0.0416,-0.0545,-0.078,-0.0918,-0.0721,-0.0523,-0.1068,-0.204,-0.2029,-0.1895,-0.26,-0.347,-0.3588,-0.3332,-0.3219,-0.2985,-0.2483,-0.1938,-0.1543,-0.118,-0.0993,-0.0865,-0.0737,-0.0529,-0.0326,-0.0192,-0.0053,0.0032,0.0085,0.0149,-0.1244,-0.1303,-0.1543,-0.1591,-0.1324,-0.0966,-0.0721,-0.0662,-0.0673,-0.0689,-0.0678,-0.0678,-0.0614,-0.0635,-0.0715,-0.0715,-0.0651,-0.055,-0.0566,-0.0678,-0.0758,-0.0641,-0.0342,-0.0411,-0.1046,-0.1559,-0.1767,-0.236,-0.33,-0.3887,-0.3892,-0.346,-0.3145,-0.2963,-0.2718,-0.2355,-0.189,-0.1644,-0.1468,-0.1329,-0.1137,-0.0908,-0.0747,-0.0673,-0.0619,-0.0571,-0.0459,-0.1228,-0.1153,-0.1223,-0.1319,-0.1249,-0.1078,-0.0881,-0.0763,-0.0699,-0.0715,-0.071,-0.0678,-0.0673,-0.0737,-0.0785,-0.078,-0.071,-0.0619,-0.0566,-0.0577,-0.0614,-0.055,-0.031,-0.0123,-0.0304,-0.086,-0.1367,-0.2002,-0.2638,-0.3417,-0.3951,-0.3812,-0.3289,-0.2953,-0.292,-0.2953,-0.2691,-0.2424,-0.2173,-0.197,-0.1799,-0.1596,-0.1393,-0.1329,-0.1308,-0.1287,-0.1175,-0.1185,-0.11,-0.1062,-0.1089,-0.1084,-0.1046,-0.0961,-0.0881,-0.0822,-0.0817,-0.0817,-0.0806,-0.079,-0.0796,-0.0806,-0.079,-0.0731,-0.0646,-0.0577,-0.055,-0.055,-0.0513,-0.0395,-0.0208,-0.0128,-0.04,-0.0865,-0.1372,-0.1906,-0.2525,-0.3187,-0.3577,-0.3342,-0.2963,-0.2686,-0.2675,-0.275,-0.2766,-0.2616,-0.2333,-0.2178,-0.2045,-0.1911,-0.1815,-0.1805,-0.1783,-0.1682,-0.1116,-0.1057,-0.1009,-0.0993,-0.0988,-0.0993,-0.0982,-0.0972,-0.0961,-0.0961,-0.0961,-0.0945,-0.0908,-0.087,-0.0838,-0.0801,-0.0737,-0.0662,-0.0593,-0.0566,-0.0566,-0.0545,-0.0475,-0.0358,-0.024,-0.0331,-0.0577,-0.0892,-0.1313,-0.1757,-0.2296,-0.2851,-0.3022,-0.2894,-0.267,-0.2456,-0.2408,-0.2312,-0.2344,-0.2274,-0.2264,-0.2109,-0.2007,-0.1922,-0.1869,-0.1815,-0.1703,-0.1057,-0.1036,-0.1004,-0.0988,-0.0993,-0.1004,-0.103,-0.1052,-0.1068,-0.1073,-0.1084,-0.1073,-0.1036,-0.0972,-0.0902,-0.0828,-0.0747,-0.0667,-0.0603,-0.0582,-0.0587,-0.0577,-0.0529,-0.0443,-0.0347,-0.032,-0.039,-0.0566,-0.0838,-0.1191,-0.1618,-0.2162,-0.2584,-0.2605,-0.2493,-0.2499,-0.244,-0.2216,-0.2024,-0.1847,-0.1917,-0.1949,-0.1949,-0.1837,-0.1687,-0.1543,-0.1367,-0.1111,-0.11,-0.1062,-0.1041,-0.1036,-0.1062,-0.1095,-0.1132,-0.1159,-0.118,-0.1191,-0.1185,-0.1143,-0.1068,-0.0966,-0.0865,-0.0763,-0.0667,-0.0603,-0.0587,-0.0609,-0.0614,-0.0571,-0.0475,-0.0368,-0.0288,-0.0288,-0.04,-0.0566,-0.0737,-0.1068,-0.158,-0.2093,-0.2349,-0.2189,-0.2114,-0.2312,-0.2429,-0.22,-0.1981,-0.1805,-0.1783,-0.1773,-0.1655,-0.1463,-0.1196,-0.0929,-0.1361,-0.1452,-0.134,-0.1175,-0.1127,-0.1116,-0.1153,-0.1207,-0.1244,-0.1281,-0.1292,-0.1271,-0.1212,-0.1116,-0.0993,-0.0876,-0.0758,-0.0657,-0.0603,-0.0619,-0.0667,-0.0678,-0.0603,-0.0486,-0.0358,-0.0256,-0.0235,-0.0331,-0.0464,-0.0518,-0.0635,-0.103,-0.158,-0.1949,-0.1943,-0.1789,-0.1885,-0.2077,-0.2232,-0.2312,-0.2221,-0.2226,-0.2098,-0.1687,-0.1287,-0.0854,-0.0443,-0.1404,-0.1596,-0.1634,-0.1559,-0.1383,-0.1175,-0.118,-0.126,-0.1335,-0.1404,-0.1431,-0.1372,-0.1303,-0.1159,-0.0982,-0.0838,-0.0715,-0.0635,-0.0609,-0.0646,-0.0689,-0.0678,-0.0598,-0.0502,-0.039,-0.0288,-0.0235,-0.0283,-0.0347,-0.0368,-0.039,-0.0571,-0.1004,-0.1484,-0.1682,-0.1602,-0.1554,-0.1575,-0.1847,-0.2141,-0.2269,-0.2429,-0.2536,-0.2301,-0.1666,-0.0897,-0.0182,-0.1383,-0.1559,-0.1703,-0.1853,-0.1634,-0.1292,-0.1196,-0.1345,-0.1506,-0.166,-0.1719,-0.1591,-0.1324,-0.1319,-0.1127,-0.0806,-0.0603,-0.0561,-0.0577,-0.0609,-0.0625,-0.0603,-0.0571,-0.0555,-0.0523,-0.0459,-0.0384,-0.0342,-0.0262,-0.0219,-0.024,-0.032,-0.0529,-0.0982,-0.1426,-0.1511,-0.141,-0.1255,-0.141,-0.1794,-0.1837,-0.1789,-0.2088,-0.2344,-0.2077,-0.1452,-0.0737,-0.1036,-0.1265,-0.1805,-0.2093,-0.1885,-0.1452,-0.1185,-0.1426,-0.1618,-0.1805,-0.1879,-0.1532,-0.0705,-0.1468,-0.0929,-0.0614,-0.0432,-0.0406,-0.0454,-0.0523,-0.0571,-0.0577,-0.0577,-0.0619,-0.0625,-0.0587,-0.0518,-0.0454,-0.031,-0.0246,-0.023,-0.0283,-0.0342,-0.0673,-0.118,-0.1431,-0.1351,-0.1095,-0.1201,-0.1463,-0.1447,-0.1281,-0.1276,-0.1431,-0.173,-0.15,-0.1153,-0.0582,-0.0518,-0.0614,-0.1287,-0.1351,-0.1089,-0.102,-0.1751,-0.1692,-0.1639,-0.1426,-0.1175,-0.0096,-0.2066,-0.0005,0.0182,-0.0112,-0.0182,-0.024,-0.0187,-0.0219,-0.0283,-0.031,-0.0374,-0.0395,-0.04,-0.0342,-0.0358,-0.0283,-0.023,-0.0187,-0.024,-0.0251,-0.0464,-0.0913,-0.1361,-0.1426,-0.0897,-0.1014,-0.1458,-0.1463,-0.1201,-0.0806,-0.0689,-0.0961,-0.1041,-0.1073,0,0,-0.0529,-0.0486,-0.0812,-0.0272,-0.0571,-0.0101,-0.0368,-0.0262,-0.1201,-0.1548,0,-0.3631,0.0513,0.0619,0.0112,-0.0053,-0.0112,-0.0101,-0.0064,0.0107,0.0214,0.0171,0.0149,0.0043,0.0091,0.0085,-0.0117,-0.0101,0.0,0.0021,0.0032,-0.0214,-0.063,-0.1196,-0.1452,-0.094,-0.0758,-0.1281,-0.142,-0.134,-0.0998,-0.0598,-0.0443,-0.0699,-0.1057,-0.0059,0.0048,-0.0395,-0.0166,-0.031,0,0,-0.0262,-0.0731,-0.0272,-0.1527,-0.1714,-0.1885,-0.425,0,0,0,0,0,0,0,0,0.0219,0.0331,0.0294,0.04,0.0513,0.0694,0.0726,0.0646,0.0294,0.0112,-0.0037,-0.032,-0.0459,-0.0555,-0.0892,-0.0881,-0.0523,-0.0892,-0.1132,-0.1265,-0.1207,-0.0838,-0.0438,-0.0379,-0.0657,-0.0064,0.0037,0.0048,0.0267,0.0454,0.0043,0.0224,-0.0331,-0.1207,0,0,0,-0.284,-0.3043,-0.0822,-0.0491,-0.0139,0.0166,0.0299,0.0294,0.0219,0,0,0,0,0,0,0,0.0523,0.0523,0.0817,0.0902,0.0812,0.0619,0.0673,0.0619,0.0411,-0.0101,0.0182,-0.0603,-0.0828,-0.0897,-0.1009,-0.0897,-0.0561,-0.0278,-0.0288,-0.0011,0.0395,0.0091,0.0037,0.0101,-0.0246,0.0454,0.0096,-0.1244,0.0,0.0,-0.0117,-0.1196,-0.134,-0.1196,-0.0801,-0.0262,0.0256,0.0571,0.0619,0.0438,0,0,0,0,0,0,0,0,0,0,0,0,0.0667,0.0812,0.0609,0.0497,0.0459,0.079,-0.0107,-0.0491,-0.0432,-0.0529,-0.0625,-0.0464,-0.0288,-0.0246,0,0.0812,0.0198,0.0064,-0.0133,-0.0256,0,0,0,0,0,-0.0224,-0.032,-0.0283,-0.0625,-0.0523,-0.0272,-0.0005,0.04,0.0534,0,0,0,0,0,0,0,0,0,0,0,0,0,0,0,0,0.0187,-0.008,0,0,-0.0053,-0.024,-0.0246,-0.0432,-0.0315,-0.0251,-0.0235,0,0,0,0.0384,-0.0075,0.0059,0,0,0,0,0,-0.0182,0.0027,-0.0112,-0.0422,-0.0352,-0.0198,0.0091,0.0267,0,0,0,0,0,0,0,0,0,0,0,0,0,0,0,0,0,0,-0.0358,-0.0342,0,0,0,0,0,0,0,-0.0224,0,0,0,0,0,0,0,0,0,0,0,-0.0021,0.0246,0.0043,-0.0395,-0.0198,0.0176,0.0379,0,0,0,0,0,0,0,0,0,0,0,0,0,0,0,0,0,0,0,0,-0.0683,-0.0117,0.0027,-0.0107,0,0,0,0,0,0,0,0,0,0,0,0,0,0,0,0,0.0411,0.0427,0.0267,-0.0422,-0.016,0.0561,0,0,0,0,0,0,0,0,0,0,0,0,0,0,0,0,0,0,0,0,0,0,-0.0235,0.0053,-0.0208,0.0,-0.0235,-0.008,0,0,0,0,0,0,0,0,0,0,0,0,0,0,0.0726,0.0486,-0.0406,-0.0342,0.0486,0,0,0,0,0,0,0,0,0,0,0,0,0,0,0,0,0,0,0,0,0,0,0,0,0,0,-0.0475,-0.016,0,0,0,0,0,0,0,0,0,0,0,0,0,0,0.087,0.0609,-0.0326,-0.0406,0.0171,0,0,0,0,0,0,0,0,0,0,0,0,0,0,0,0,0,0,0,0,0,0,0,0,0,0,0,0,0,0,0,0,0,0,0,0,0,0,0,0,0,0,0.087,0.0876,0.0214,-0.0176,0.0112,0,0,0,0,0,0,0,0,0,0,0,0,0,0,0,0,0,0,0,0,0,0,0,0,0,0,0,0,0,0,0,0,0,0,0,0,0,0,0,0,0,0,0.0892,0.1223,0.0838,0.031,0.0358,0,0,0,0,0,0,0,0,0,0,0,0,0,0,0,0,0,0,0,0,0,0,0,0,0,0,0,0,0,0,0,0,0,0,0,0,0,0,0,0,0,0,0,0.1052,0.0961,0.0673,0.0491,0,0,0,0,0,0,0,0,0,0,0,0,0,0,0,0,0,0,0,0,0,0,0,0,0,0,0,0,0,0,0,0,0,0,0,0,0,0,0,0,0,0,0,0.0742,0.0235,0.0641,0.0448,0,0,0,0,0,0,0,0,0,0,0,0,0,0,0,0,0,0,0,0,0,0,0,0,0,0,0,0,0,0,0,0,0,0,0,0,0,0,0,0,0,0,0,0,-0.0443,0.0577,0,0,0,0,0,0,0,0,0,0,0,0,0,0,0,0,0,0,0,0,0,0,0,0,0,0,0,0,0,0,0,0,0,0,0,0,0,0,0,0,0,0,0,0,0,0,0,0,0,0,0,0,0,0,0,0,0,0,0,0,0,0,0,0,0,0,0,0,0,0,0,0,0,0,0,0,0,0,0,0,0,0,0,0,0,0,0,0,0,0,0,0,0,0,0,0,0,0,0,0,0,0,0,0,0,0,0,0,0,0,0,0,0,0,0,0,0,0,0,0,0,0,0,0,0,0,0,0,0,0,0,0,0,0,0,0,0,0,0,0,0,0,0,0,0,0,0,0,0,0,0,0,0,0,0,0,0,0,0,0,0,0,0,0,0,0,0,0,0,0,0,0,0,0,0,0,0,0,0,0,0,0,0,0,0,0,0,0,0,0,0,0,0,0,0,0,0,0,0,0,0,0,0,0,0,0,0,0,0,0,0,0,0,0,0,0,0,0,0,0,0,0,0,0,0,0,0,0,0,0,0,0,0,0,0,0,0,0,0,0,0,0,0,0,0,0,0,0,0,0,0,0,0,0,0,0,0,0,0,0,0,0,0,0,0,0,0,0,0,0,0,0,0,0,0,0,0,0,0,0,0,0,0,0,0,0,0,0,0,0,0,0,0,0,0,0,0,0,0,0,0,0,0,0,0,0,0,0,0,0,0,0,0]}]],[[{"header":{"parameterUnit":"kt","parameterCategory":2,"dx":1,"dy":1,"la1":29.764190673828125,"la2":30.86408042907715,"lo1":-88.46762084960938,"lo2":-86.9344482421875,"nx":47,"ny":34,"refTime":"2022-10-14T00:00:00:Z","depth":"10","parameterNumber":2,"parameterNumberName":"U-component_of_CURRENTS"},"data":[0.0283,0.0166,0.0075,0.0155,0.0475,0.0876,0.1223,0.1532,0.1719,0.1607,0.1276,0.0961,0.0763,0.0646,0.0598,0.0662,0.0849,0.1089,0.1244,0.1324,0.1319,0.1159,0.0924,0.0683,0.0459,0.0043,-0.0635,-0.1377,-0.1714,-0.1361,-0.0849,-0.0972,-0.1554,-0.197,-0.213,-0.2125,-0.2082,-0.2082,-0.2088,-0.2066,-0.2002,-0.1895,-0.1741,-0.1554,-0.1388,-0.1265,-0.1217,0.0283,0.0112,-0.0128,-0.0283,-0.0203,0.0123,0.0502,0.078,0.0886,0.0865,0.0774,0.0673,0.0619,0.0603,0.0705,0.0929,0.1137,0.1324,0.1479,0.1506,0.141,0.1265,0.1068,0.0667,0.0027,-0.071,-0.1303,-0.1559,-0.1789,-0.1874,-0.1431,-0.0902,-0.0929,-0.1399,-0.1799,-0.1991,-0.204,-0.2056,-0.2034,-0.197,-0.189,-0.1826,-0.1773,-0.1725,-0.1698,-0.1703,-0.1746,0.0336,0.023,-0.0059,-0.0331,-0.0406,-0.0299,-0.0091,0.016,0.0384,0.0513,0.0582,0.0657,0.0726,0.087,0.1073,0.1228,0.1319,0.1393,0.1484,0.1516,0.1447,0.1367,0.1281,0.102,0.0331,-0.0609,-0.1223,-0.1426,-0.1452,-0.1532,-0.1602,-0.1377,-0.0945,-0.0828,-0.1212,-0.1516,-0.1628,-0.1757,-0.1778,-0.173,-0.1682,-0.1682,-0.1741,-0.1821,-0.1901,-0.1943,-0.1938,0.0411,0.0384,0.0272,0.0048,-0.0155,-0.0203,-0.0091,0.0107,0.031,0.0497,0.0646,0.0801,0.1014,0.1217,0.134,0.1393,0.1404,0.1415,0.1426,0.1447,0.1436,0.1383,0.1377,0.1442,0.1287,0.0758,0.0208,-0.0139,-0.0454,-0.0817,-0.0998,-0.1121,-0.1276,-0.1121,-0.0924,-0.0977,-0.1191,-0.1415,-0.1468,-0.1463,-0.1484,-0.1538,-0.1586,-0.166,-0.1783,-0.1879,-0.1906,0.0539,0.0513,0.0481,0.04,0.0283,0.0208,0.0224,0.0342,0.0523,0.0731,0.0929,0.1105,0.1249,0.1367,0.1431,0.1452,0.1436,0.142,0.141,0.1404,0.1388,0.1361,0.1356,0.1442,0.1607,0.1634,0.1372,0.0966,0.0566,0.0166,-0.0256,-0.0635,-0.0838,-0.1127,-0.1484,-0.1308,-0.1004,-0.1057,-0.1169,-0.126,-0.1324,-0.1361,-0.1356,-0.1356,-0.141,-0.15,-0.1538,0.0689,0.0651,0.0635,0.0625,0.0625,0.0635,0.0683,0.078,0.0902,0.102,0.1127,0.1217,0.1308,0.1388,0.1442,0.1452,0.1436,0.1415,0.1404,0.1393,0.1372,0.134,0.1303,0.1313,0.1404,0.1511,0.1468,0.1228,0.0902,0.0561,0.0182,-0.0246,-0.0651,-0.0849,-0.1111,-0.1522,-0.1735,-0.1532,-0.1159,-0.1073,-0.1191,-0.1223,-0.1137,-0.1052,-0.0972,-0.0924,-0.094,0.0801,0.0785,0.0785,0.079,0.0806,0.0833,0.0886,0.095,0.102,0.11,0.1185,0.1265,0.134,0.1404,0.1442,0.1447,0.1426,0.1393,0.1367,0.1335,0.1303,0.1265,0.1249,0.1244,0.1255,0.1265,0.1233,0.1164,0.1046,0.0796,0.0448,0.0064,-0.0347,-0.0683,-0.0892,-0.1175,-0.1522,-0.1853,-0.197,-0.1783,-0.1479,-0.1249,-0.1127,-0.0977,-0.0828,-0.0694,-0.0651,0.0753,0.0806,0.0844,0.087,0.0886,0.0908,0.094,0.0988,0.1057,0.1137,0.1233,0.1329,0.141,0.1452,0.1463,0.1447,0.1415,0.1372,0.134,0.1319,0.1308,0.1297,0.1271,0.1228,0.1169,0.11,0.1014,0.094,0.0881,0.0822,0.063,0.0251,-0.0198,-0.0555,-0.0801,-0.1004,-0.1361,-0.1773,-0.1933,-0.2189,-0.2333,-0.2088,-0.1698,-0.1329,-0.1052,-0.0822,-0.071,0.0416,0.0539,0.0731,0.0886,0.094,0.0972,0.0998,0.1041,0.1116,0.1212,0.1329,0.1431,0.1511,0.1543,0.1538,0.1506,0.1463,0.1415,0.1383,0.1372,0.1383,0.1367,0.1303,0.1212,0.1116,0.103,0.0956,0.0886,0.0801,0.071,0.0614,0.0374,-0.0059,-0.0497,-0.0796,-0.103,-0.1255,-0.1538,-0.197,-0.2162,-0.2098,-0.2322,-0.252,-0.2306,-0.1805,-0.1297,-0.0998,0.1479,0.1292,0.1004,0.0865,0.0934,0.103,0.1052,0.1089,0.1164,0.1276,0.1415,0.1538,0.1612,0.1644,0.1655,0.1634,0.1591,0.1532,0.1484,0.1442,0.1388,0.1297,0.1185,0.1095,0.1041,0.1004,0.0961,0.0886,0.0763,0.0614,0.0486,0.0347,0.0053,-0.0379,-0.0715,-0.0892,-0.1073,-0.1361,-0.1538,-0.1575,-0.1821,-0.2098,-0.221,-0.26,-0.2755,-0.2221,-0.1682,0.2568,0.2226,0.1917,0.1778,0.1538,0.1313,0.1169,0.1121,0.1201,0.1372,0.165,0.2002,0.2162,0.2061,0.1906,0.1805,0.173,0.1634,0.1538,0.1426,0.1297,0.1164,0.1062,0.0998,0.0961,0.0924,0.086,0.0742,0.0593,0.0459,0.0342,0.0251,0.0128,-0.0155,-0.0518,-0.071,-0.0742,-0.078,-0.0897,-0.1062,-0.126,-0.1388,-0.1762,-0.2397,-0.2632,-0.2579,-0.2589,0.2274,0.2194,0.2093,0.1954,0.197,0.189,0.1767,0.1773,0.1853,0.1922,0.2146,0.2328,0.221,0.2274,0.2264,0.1986,0.1799,0.166,0.1506,0.1335,0.1191,0.1062,0.0934,0.0822,0.0689,0.0555,0.0443,0.0304,0.0149,0.0069,0.0075,0.0059,0.0011,-0.0091,-0.0288,-0.0475,-0.055,-0.0587,-0.0635,-0.0646,-0.0662,-0.0822,-0.1351,-0.1938,-0.2568,-0.3091,-0.3214,0.2034,0.1554,0.1057,0.1447,0.1709,0.1602,0.1479,0.1676,0.1858,0.1933,0.1853,0.1612,0.1564,0.1757,0.2066,0.1815,0.1628,0.1516,0.1356,0.1143,0.0956,0.0902,0.0892,0.0806,0.0742,0.0497,0.0331,0.0155,0.0144,0.0133,0.0219,0.0288,0.0288,0.0246,0.0123,-0.0139,-0.0352,-0.0416,-0.0609,-0.0844,-0.1041,-0.1121,-0.1169,-0.1474,-0.2109,-0.2675,-0.2878,0,0,0.0432,0.1105,0.1244,0.1095,0.1313,0.1351,0.1367,0.134,0.1265,0.126,0,0.0828,0.1265,0.1127,0.1388,0.1361,0.1281,0.1137,0.0945,0.0774,0.0571,0.0448,0.0432,0.0432,0.04,0.0352,0.0529,0.0582,0.0667,0.0513,0.0491,0.0529,0.0438,0.0299,0.0037,-0.0352,-0.0561,-0.0972,-0.1404,-0.1628,-0.157,-0.1303,-0.1212,-0.1474,-0.1874,0.157,0.1709,0.1623,0.1271,0.1004,0,0,0.0534,0.1137,0.0892,-0.0005,-0.1324,0.0085,0.2242,0,0,0,0,0,0,0,0,0.0096,0.0304,0.0395,0.0326,0.0224,0.0246,0.0368,0.0448,0.0571,0.0998,0.1143,0.1078,0.0966,0.0715,0.0411,0.023,-0.04,-0.0897,-0.1127,-0.1281,-0.1351,-0.1233,-0.1057,-0.0945,-0.0977,0.1719,0.1634,0.1495,0.1271,0.1153,0.1255,0.1111,0.0918,0.0881,0,0,0,0.0027,-0.0502,-0.0934,-0.0395,0.0112,0.0021,-0.0203,-0.008,0.0075,0,0,0,0,0,0,0,0.0219,0.0347,0.0155,0.0075,0.0219,0.032,0.0315,0.0342,0.0518,0.0865,0.0635,-0.0128,-0.0464,-0.0699,-0.0972,-0.1175,-0.1217,-0.1089,-0.0918,0.1762,0.1596,0.1463,0.1169,0.1089,0.1148,0.0539,-0.0133,-0.0844,-0.1324,-0.1153,-0.0518,-0.0005,0.0315,0.0545,0.0561,0.0625,0.0454,0.0166,0.0027,0.0032,0,0,0,0,0,0,0,0,0,0,0,0,0.0101,0.008,0.016,0.0448,0.0368,0.0406,0.0427,0.0123,-0.0037,-0.0246,-0.0518,-0.078,-0.086,-0.0774,0,0.0406,0.0998,0.1095,0.0945,0.0876,0,0,0,0,0,0.0101,0.031,0.0603,0.0828,0.0897,0.078,0.0267,-0.0075,-0.0069,0,0,0,0,0,0,0,0,0,0,0,0,0,0,0,0,-0.0011,0.0155,0,0,0.0064,-0.0069,-0.0176,-0.0299,-0.0416,-0.0502,-0.0448,0,0,0,0.0214,0.039,0.0352,0,0,0,0,0,0.0075,0.0363,0.0683,0.0929,0.095,0.0256,-0.0203,-0.0101,0,0,0,0,0,0,0,0,0,0,0,0,0,0,0,0,0,0,-0.0336,-0.039,0,0,0,0,0,0,0,-0.0048,0,0,0,0,0,0,0,0,0,0,0,0.016,0.0459,0.0737,0.0993,0.079,0.0133,-0.0219,0,0,0,0,0,0,0,0,0,0,0,0,0,0,0,0,0,0,0,0,-0.0101,-0.0128,0.0053,0.016,0,0,0,0,0,0,0,0,0,0,0,0,0,0,0,0,0.0262,0.0593,0.079,0.0982,0.0731,0.0395,0,0,0,0,0,0,0,0,0,0,0,0,0,0,0,0,0,0,0,0,0,0,0.0016,-0.0048,-0.0011,-0.0075,-0.008,0.0091,0,0,0,0,0,0,0,0,0,0,0,0,0,0,0.0678,0.0763,0.0918,0.0769,0.0534,0,0,0,0,0,0,0,0,0,0,0,0,0,0,0,0,0,0,0,0,0,0,0,0,0,0,-0.0085,-0.0176,0,0,0,0,0,0,0,0,0,0,0,0,0,0,0.0171,0.0518,0.0822,0.079,0.063,0,0,0,0,0,0,0,0,0,0,0,0,0,0,0,0,0,0,0,0,0,0,0,0,0,0,0,0,0,0,0,0,0,0,0,0,0,0,0,0,0,0,0.0187,0.0566,0.0822,0.0758,0.0614,0,0,0,0,0,0,0,0,0,0,0,0,0,0,0,0,0,0,0,0,0,0,0,0,0,0,0,0,0,0,0,0,0,0,0,0,0,0,0,0,0,0,0.0288,0.0593,0.0721,0.0641,0.0454,0,0,0,0,0,0,0,0,0,0,0,0,0,0,0,0,0,0,0,0,0,0,0,0,0,0,0,0,0,0,0,0,0,0,0,0,0,0,0,0,0,0,0,0.0262,0.0571,0.023,-0.0155,0,0,0,0,0,0,0,0,0,0,0,0,0,0,0,0,0,0,0,0,0,0,0,0,0,0,0,0,0,0,0,0,0,0,0,0,0,0,0,0,0,0,0,0.0203,-0.0037,-0.0481,-0.0475,0,0,0,0,0,0,0,0,0,0,0,0,0,0,0,0,0,0,0,0,0,0,0,0,0,0,0,0,0,0,0,0,0,0,0,0,0,0,0,0,0,0,0,0,-0.0171,-0.0336,0,0,0,0,0,0,0,0,0,0,0,0,0,0,0,0,0,0,0,0,0,0,0,0,0,0,0,0,0,0,0,0,0,0,0,0,0,0,0,0,0,0,0,0,0,0,0,0,0,0,0,0,0,0,0,0,0,0,0,0,0,0,0,0,0,0,0,0,0,0,0,0,0,0,0,0,0,0,0,0,0,0,0,0,0,0,0,0,0,0,0,0,0,0,0,0,0,0,0,0,0,0,0,0,0,0,0,0,0,0,0,0,0,0,0,0,0,0,0,0,0,0,0,0,0,0,0,0,0,0,0,0,0,0,0,0,0,0,0,0,0,0,0,0,0,0,0,0,0,0,0,0,0,0,0,0,0,0,0,0,0,0,0,0,0,0,0,0,0,0,0,0,0,0,0,0,0,0,0,0,0,0,0,0,0,0,0,0,0,0,0,0,0,0,0,0,0,0,0,0,0,0,0,0,0,0,0,0,0,0,0,0,0,0,0,0,0,0,0,0,0,0,0,0,0,0,0,0,0,0,0,0,0,0,0,0,0,0,0,0,0,0,0,0,0,0,0,0,0,0,0,0,0,0,0,0,0,0,0,0,0,0,0,0,0,0,0,0,0,0,0,0,0,0,0,0,0,0,0,0,0,0,0,0,0,0,0,0,0,0,0,0,0,0,0,0,0,0,0,0,0,0,0,0,0,0,0,0,0,0,0,0,0]}],[{"header":{"parameterUnit":"kt","parameterCategory":2,"dx":1,"dy":1,"la1":29.764190673828125,"la2":30.86408042907715,"lo1":-88.46762084960938,"lo2":-86.9344482421875,"nx":47,"ny":34,"refTime":"2022-10-14T00:00:00:Z","depth":"10","parameterNumber":3,"parameterNumberName":"V-component_of_CURRENTS"},"data":[-0.1324,-0.1746,-0.2002,-0.1543,-0.0694,-0.0139,-0.0149,-0.055,-0.0966,-0.1223,-0.1217,-0.1111,-0.0977,-0.0715,-0.0539,-0.0416,-0.032,-0.0192,-0.0427,-0.0812,-0.1127,-0.0902,-0.0763,-0.166,-0.2739,-0.2525,-0.2189,-0.2659,-0.2969,-0.3086,-0.3155,-0.3011,-0.2435,-0.1815,-0.1297,-0.102,-0.0838,-0.0715,-0.0587,-0.04,-0.0155,0.0075,0.0272,0.0448,0.055,0.0598,0.0635,-0.126,-0.1527,-0.1863,-0.1709,-0.1153,-0.0635,-0.047,-0.0593,-0.0753,-0.0817,-0.0806,-0.0812,-0.071,-0.0577,-0.0571,-0.0561,-0.0507,-0.0395,-0.0529,-0.0763,-0.0902,-0.0699,-0.0507,-0.1046,-0.2002,-0.1965,-0.1794,-0.2493,-0.3369,-0.3524,-0.3294,-0.3193,-0.2963,-0.2461,-0.1917,-0.1522,-0.1159,-0.0972,-0.0849,-0.0721,-0.0518,-0.031,-0.0176,-0.0037,0.0048,0.0101,0.0171,-0.1228,-0.1287,-0.1532,-0.158,-0.1313,-0.0956,-0.071,-0.0651,-0.0662,-0.0678,-0.0662,-0.0662,-0.0598,-0.0619,-0.0694,-0.0699,-0.0635,-0.0534,-0.055,-0.0662,-0.0737,-0.0619,-0.032,-0.0395,-0.102,-0.1495,-0.1655,-0.2221,-0.3134,-0.3759,-0.3817,-0.3422,-0.3123,-0.2942,-0.2696,-0.2333,-0.1869,-0.1623,-0.1447,-0.1303,-0.1116,-0.0886,-0.0726,-0.0651,-0.0598,-0.0545,-0.0432,-0.1212,-0.1143,-0.1207,-0.1303,-0.1239,-0.1068,-0.0865,-0.0747,-0.0689,-0.0705,-0.0694,-0.0667,-0.0662,-0.0721,-0.0769,-0.0763,-0.0694,-0.0603,-0.055,-0.0561,-0.0598,-0.0529,-0.0288,-0.0107,-0.0283,-0.0828,-0.1303,-0.1917,-0.2515,-0.3284,-0.3828,-0.3748,-0.3246,-0.2926,-0.2894,-0.2926,-0.267,-0.2403,-0.2152,-0.1943,-0.1773,-0.157,-0.1372,-0.1303,-0.1287,-0.126,-0.1148,-0.1175,-0.1084,-0.1046,-0.1078,-0.1073,-0.103,-0.0945,-0.087,-0.0812,-0.0806,-0.0806,-0.0796,-0.078,-0.078,-0.079,-0.0774,-0.0715,-0.063,-0.0561,-0.0534,-0.0529,-0.0491,-0.0374,-0.0187,-0.0107,-0.0379,-0.0838,-0.134,-0.1869,-0.2456,-0.3086,-0.3497,-0.3289,-0.2931,-0.2659,-0.2648,-0.2728,-0.2744,-0.2595,-0.2312,-0.2152,-0.2013,-0.1879,-0.1794,-0.1778,-0.1757,-0.166,-0.1105,-0.1046,-0.0998,-0.0982,-0.0977,-0.0982,-0.0972,-0.0961,-0.095,-0.0945,-0.0945,-0.0934,-0.0892,-0.0854,-0.0817,-0.078,-0.0721,-0.0641,-0.0577,-0.055,-0.055,-0.0523,-0.0454,-0.0336,-0.0224,-0.031,-0.0555,-0.087,-0.1287,-0.173,-0.2248,-0.2787,-0.2958,-0.2856,-0.2632,-0.2424,-0.2381,-0.229,-0.2317,-0.2253,-0.2242,-0.2082,-0.1975,-0.1895,-0.1842,-0.1794,-0.1682,-0.1052,-0.1025,-0.0993,-0.0982,-0.0982,-0.0993,-0.1014,-0.1041,-0.1052,-0.1057,-0.1068,-0.1052,-0.1014,-0.095,-0.0881,-0.0812,-0.0731,-0.0651,-0.0587,-0.0561,-0.0566,-0.0555,-0.0507,-0.0422,-0.0326,-0.0299,-0.0374,-0.0545,-0.0822,-0.1169,-0.1591,-0.212,-0.2531,-0.2557,-0.2456,-0.2461,-0.2408,-0.2184,-0.1997,-0.1821,-0.1895,-0.1922,-0.1922,-0.181,-0.1666,-0.1522,-0.1345,-0.1095,-0.1089,-0.1052,-0.103,-0.1025,-0.1046,-0.1078,-0.1116,-0.1137,-0.1159,-0.1169,-0.1159,-0.1116,-0.1041,-0.0945,-0.0844,-0.0742,-0.0646,-0.0582,-0.0571,-0.0593,-0.0603,-0.0561,-0.0464,-0.0352,-0.0272,-0.0278,-0.039,-0.0555,-0.0721,-0.1046,-0.1554,-0.205,-0.2296,-0.2141,-0.2077,-0.228,-0.2397,-0.2168,-0.1954,-0.1778,-0.1757,-0.1746,-0.1634,-0.1442,-0.1175,-0.0908,-0.1249,-0.1335,-0.1313,-0.1159,-0.1111,-0.11,-0.1137,-0.1185,-0.1223,-0.1255,-0.1271,-0.1244,-0.118,-0.1089,-0.0966,-0.0854,-0.0737,-0.0635,-0.0587,-0.0609,-0.0651,-0.0662,-0.0593,-0.0475,-0.0347,-0.0246,-0.0224,-0.032,-0.0454,-0.0507,-0.0619,-0.1009,-0.1548,-0.1901,-0.1895,-0.1746,-0.1847,-0.204,-0.22,-0.228,-0.2189,-0.2194,-0.2072,-0.166,-0.1265,-0.0833,-0.0422,-0.1287,-0.142,-0.149,-0.142,-0.1319,-0.1159,-0.1164,-0.1239,-0.1313,-0.1377,-0.1404,-0.1335,-0.1233,-0.1116,-0.095,-0.0817,-0.0694,-0.0614,-0.0593,-0.0635,-0.0673,-0.0662,-0.0587,-0.0486,-0.0379,-0.0278,-0.0224,-0.0272,-0.0342,-0.0363,-0.0379,-0.055,-0.0972,-0.1447,-0.1634,-0.1554,-0.1511,-0.1532,-0.181,-0.2104,-0.2232,-0.2397,-0.2504,-0.2269,-0.1644,-0.087,-0.016,-0.1095,-0.1303,-0.1495,-0.157,-0.1447,-0.1201,-0.1095,-0.1233,-0.1367,-0.1479,-0.15,-0.1287,-0.0998,-0.1014,-0.0865,-0.0737,-0.0587,-0.0539,-0.0555,-0.0587,-0.0603,-0.0582,-0.055,-0.0534,-0.0502,-0.0427,-0.0347,-0.031,-0.0246,-0.0203,-0.023,-0.031,-0.0502,-0.0945,-0.1372,-0.1463,-0.1367,-0.1217,-0.1372,-0.1741,-0.1799,-0.1757,-0.204,-0.2312,-0.205,-0.1426,-0.071,-0.0331,-0.0139,-0.0747,-0.1244,-0.1303,-0.095,-0.095,-0.1404,-0.1474,-0.1426,-0.1185,-0.0753,-0.0235,-0.0833,-0.0352,-0.0336,-0.0395,-0.0384,-0.0416,-0.0358,-0.0352,-0.0438,-0.0438,-0.0454,-0.0481,-0.0448,-0.0368,-0.031,-0.0203,-0.016,-0.0166,-0.0224,-0.0294,-0.0593,-0.1068,-0.1351,-0.1303,-0.1062,-0.1169,-0.1415,-0.141,-0.1249,-0.1239,-0.1393,-0.1687,-0.1468,-0.1127,-0.0208,0.0459,0.0101,-0.0342,-0.0491,-0.0214,-0.0395,-0.0982,-0.0876,-0.0731,-0.0769,-0.0774,0.0043,-0.1345,0.0299,0.0352,-0.0053,-0.0149,-0.0187,-0.0096,0.0053,0.0171,0.0187,0.0133,0.0203,0.0091,-0.0101,-0.0053,-0.0085,-0.0043,-0.0027,-0.0069,-0.0101,-0.0267,-0.0625,-0.103,-0.1217,-0.0876,-0.0988,-0.141,-0.141,-0.1153,-0.0769,-0.0662,-0.0918,-0.0993,-0.103,0,0,-0.0406,-0.0342,-0.0657,0.0176,0.0117,0.0091,-0.0235,-0.0208,-0.1014,-0.1329,0,-0.2883,0.0513,0.0593,0.016,-0.0016,-0.0064,-0.0048,0.0005,0.023,0.0283,0.0299,0.0294,0.0395,0.0555,0.0609,0.0577,0.0144,0.0005,0.0032,0.0069,-0.0096,-0.0384,-0.0593,-0.0817,-0.0715,-0.0737,-0.1228,-0.1319,-0.1239,-0.0913,-0.0555,-0.0406,-0.0641,-0.0972,-0.0043,0.0053,-0.0304,-0.0091,-0.0235,0,0,-0.0128,-0.0625,-0.0224,-0.1324,-0.15,-0.1388,-0.3433,0,0,0,0,0,0,0,0,0.0224,0.0315,0.0283,0.0384,0.0545,0.0694,0.0598,0.0683,0.0769,0.0715,0.0609,0.0326,0.0176,0.0133,0.0053,-0.0208,-0.0342,-0.0801,-0.0956,-0.1089,-0.1041,-0.0731,-0.0379,-0.032,-0.0566,-0.0037,0.0048,0.0064,0.0272,0.0438,0.0069,0.0214,-0.0176,-0.103,0,0,0,-0.2072,-0.2467,-0.0705,-0.0358,-0.0101,0.0112,0.0214,0.0267,0.0235,0,0,0,0,0,0,0,0.0459,0.0475,0.0721,0.0796,0.0918,0.0641,0.063,0.0593,0.0609,0.0534,0.0507,-0.0379,-0.0619,-0.0678,-0.0785,-0.0699,-0.0454,-0.0224,-0.023,0.0011,0.0358,0.0096,0.0043,0.0107,-0.0176,0.0422,0.0155,-0.1041,0.0,0.0,-0.0016,-0.0758,-0.1025,-0.1025,-0.0619,-0.0192,0.0187,0.0374,0.0475,0.0475,0,0,0,0,0,0,0,0,0,0,0,0,0.0619,0.0646,0.055,0.0411,0.0379,0.087,0.0235,-0.0182,-0.0246,-0.0331,-0.0432,-0.0336,-0.0224,-0.0192,0,0.0721,0.0187,0.008,-0.0096,-0.0214,0,0,0,0,0,-0.0043,-0.0075,-0.0139,-0.0518,-0.0438,-0.0208,-0.0112,0.0171,0.0352,0,0,0,0,0,0,0,0,0,0,0,0,0,0,0,0,0.0176,0.0005,0,0,0.0326,-0.0032,-0.016,-0.0294,-0.024,-0.0187,-0.0198,0,0,0,0.039,-0.0027,0.0064,0,0,0,0,0,-0.0011,0.0091,-0.0027,-0.0299,-0.0288,-0.0176,-0.0059,0.0016,0,0,0,0,0,0,0,0,0,0,0,0,0,0,0,0,0,0,-0.0176,-0.0262,0,0,0,0,0,0,0,-0.0208,0,0,0,0,0,0,0,0,0,0,0,0.0139,0.0208,0.0075,-0.0262,-0.0128,0.0139,0.0256,0,0,0,0,0,0,0,0,0,0,0,0,0,0,0,0,0,0,0,0,-0.0523,-0.0069,0.0037,-0.0107,0,0,0,0,0,0,0,0,0,0,0,0,0,0,0,0,0.0374,0.0368,0.0214,-0.0288,-0.0075,0.0497,0,0,0,0,0,0,0,0,0,0,0,0,0,0,0,0,0,0,0,0,0,0,-0.0139,0.0075,-0.0208,0.0,-0.0224,-0.008,0,0,0,0,0,0,0,0,0,0,0,0,0,0,0.0625,0.0352,-0.0214,-0.0214,0.0459,0,0,0,0,0,0,0,0,0,0,0,0,0,0,0,0,0,0,0,0,0,0,0,0,0,0,-0.0448,-0.016,0,0,0,0,0,0,0,0,0,0,0,0,0,0,0.0657,0.0432,-0.0027,-0.0246,0.023,0,0,0,0,0,0,0,0,0,0,0,0,0,0,0,0,0,0,0,0,0,0,0,0,0,0,0,0,0,0,0,0,0,0,0,0,0,0,0,0,0,0,0.0657,0.0641,0.0219,-0.0059,0.016,0,0,0,0,0,0,0,0,0,0,0,0,0,0,0,0,0,0,0,0,0,0,0,0,0,0,0,0,0,0,0,0,0,0,0,0,0,0,0,0,0,0,0.0747,0.086,0.0497,0.0288,0.0299,0,0,0,0,0,0,0,0,0,0,0,0,0,0,0,0,0,0,0,0,0,0,0,0,0,0,0,0,0,0,0,0,0,0,0,0,0,0,0,0,0,0,0,0.0769,0.0673,0.0486,0.0368,0,0,0,0,0,0,0,0,0,0,0,0,0,0,0,0,0,0,0,0,0,0,0,0,0,0,0,0,0,0,0,0,0,0,0,0,0,0,0,0,0,0,0,0.0619,0.0133,0.0395,0.0331,0,0,0,0,0,0,0,0,0,0,0,0,0,0,0,0,0,0,0,0,0,0,0,0,0,0,0,0,0,0,0,0,0,0,0,0,0,0,0,0,0,0,0,0,-0.0416,0.0347,0,0,0,0,0,0,0,0,0,0,0,0,0,0,0,0,0,0,0,0,0,0,0,0,0,0,0,0,0,0,0,0,0,0,0,0,0,0,0,0,0,0,0,0,0,0,0,0,0,0,0,0,0,0,0,0,0,0,0,0,0,0,0,0,0,0,0,0,0,0,0,0,0,0,0,0,0,0,0,0,0,0,0,0,0,0,0,0,0,0,0,0,0,0,0,0,0,0,0,0,0,0,0,0,0,0,0,0,0,0,0,0,0,0,0,0,0,0,0,0,0,0,0,0,0,0,0,0,0,0,0,0,0,0,0,0,0,0,0,0,0,0,0,0,0,0,0,0,0,0,0,0,0,0,0,0,0,0,0,0,0,0,0,0,0,0,0,0,0,0,0,0,0,0,0,0,0,0,0,0,0,0,0,0,0,0,0,0,0,0,0,0,0,0,0,0,0,0,0,0,0,0,0,0,0,0,0,0,0,0,0,0,0,0,0,0,0,0,0,0,0,0,0,0,0,0,0,0,0,0,0,0,0,0,0,0,0,0,0,0,0,0,0,0,0,0,0,0,0,0,0,0,0,0,0,0,0,0,0,0,0,0,0,0,0,0,0,0,0,0,0,0,0,0,0,0,0,0,0,0,0,0,0,0,0,0,0,0,0,0,0,0,0,0,0,0,0,0,0,0,0,0,0,0,0,0,0,0,0,0,0,0,0]}]],[[{"header":{"parameterUnit":"kt","parameterCategory":2,"dx":1,"dy":1,"la1":29.764190673828125,"la2":30.86408042907715,"lo1":-88.46762084960938,"lo2":-86.9344482421875,"nx":47,"ny":34,"refTime":"2022-10-14T00:00:00:Z","depth":"12","parameterNumber":2,"parameterNumberName":"U-component_of_CURRENTS"},"data":[0.0294,0.0182,0.0091,0.0166,0.0491,0.0897,0.1244,0.1548,0.173,0.1618,0.1287,0.0977,0.078,0.0662,0.0619,0.0678,0.0865,0.1105,0.126,0.134,0.1324,0.1169,0.094,0.0699,0.047,0.0069,-0.0577,-0.1313,-0.1676,-0.1335,-0.0822,-0.0956,-0.1538,-0.1954,-0.2109,-0.2109,-0.2072,-0.2066,-0.2077,-0.2056,-0.1991,-0.1885,-0.173,-0.1543,-0.1377,-0.1255,-0.1212,0.0288,0.0123,-0.0117,-0.0267,-0.0192,0.0139,0.0513,0.079,0.0897,0.0881,0.079,0.0689,0.0641,0.0625,0.0721,0.094,0.1148,0.1335,0.149,0.1511,0.1415,0.1276,0.1078,0.0683,0.0053,-0.0614,-0.1089,-0.1303,-0.1596,-0.1789,-0.1399,-0.0886,-0.0913,-0.1377,-0.1783,-0.1981,-0.2029,-0.2045,-0.2024,-0.1959,-0.1879,-0.1815,-0.1762,-0.1714,-0.1687,-0.1692,-0.173,0.0342,0.024,-0.0048,-0.032,-0.0395,-0.0288,-0.0075,0.0176,0.04,0.0534,0.0603,0.0673,0.0742,0.0886,0.1089,0.1239,0.1329,0.1404,0.1495,0.1527,0.1452,0.1372,0.1292,0.1036,0.0358,-0.0491,-0.0972,-0.1105,-0.1148,-0.1324,-0.1516,-0.1345,-0.0924,-0.0806,-0.1196,-0.15,-0.1618,-0.1741,-0.1762,-0.1719,-0.1676,-0.1671,-0.1725,-0.1805,-0.1885,-0.1927,-0.1922,0.0416,0.039,0.0278,0.0059,-0.0144,-0.0192,-0.0075,0.0123,0.0331,0.0513,0.0662,0.0817,0.103,0.1228,0.1351,0.1404,0.1415,0.142,0.1436,0.1458,0.1442,0.1388,0.1383,0.1452,0.1303,0.0806,0.0342,0.0075,-0.0219,-0.0587,-0.0838,-0.1068,-0.1255,-0.11,-0.0908,-0.0961,-0.118,-0.1404,-0.1458,-0.1447,-0.1468,-0.1527,-0.157,-0.1644,-0.1767,-0.1863,-0.1885,0.0545,0.0518,0.0486,0.0406,0.0294,0.0219,0.0235,0.0352,0.0539,0.0742,0.094,0.1116,0.126,0.1377,0.1442,0.1458,0.1442,0.1431,0.142,0.1415,0.1393,0.1367,0.1361,0.1447,0.1612,0.165,0.1393,0.0998,0.0609,0.024,-0.0166,-0.0561,-0.0806,-0.1111,-0.1463,-0.1281,-0.0982,-0.1041,-0.1153,-0.1244,-0.1308,-0.134,-0.134,-0.134,-0.1393,-0.1484,-0.1522,0.0694,0.0657,0.0641,0.0635,0.0635,0.0646,0.0694,0.079,0.0913,0.103,0.1132,0.1228,0.1313,0.1393,0.1447,0.1458,0.1447,0.1426,0.1415,0.1404,0.1377,0.134,0.1308,0.1319,0.141,0.1522,0.1484,0.1244,0.0918,0.0571,0.0198,-0.0208,-0.0619,-0.0828,-0.1095,-0.1506,-0.1714,-0.1516,-0.1143,-0.1052,-0.1169,-0.1207,-0.1121,-0.1036,-0.0961,-0.0913,-0.0929,0.0806,0.079,0.079,0.0796,0.0812,0.0844,0.0892,0.0956,0.103,0.1111,0.1191,0.1271,0.1351,0.1415,0.1452,0.1452,0.1431,0.1404,0.1372,0.134,0.1308,0.1271,0.1249,0.1249,0.126,0.1271,0.1244,0.1175,0.1052,0.0806,0.0459,0.0075,-0.0326,-0.0657,-0.0865,-0.1153,-0.15,-0.1837,-0.1954,-0.1762,-0.1458,-0.1228,-0.1105,-0.0961,-0.0817,-0.0683,-0.0641,0.0758,0.0806,0.0849,0.0876,0.0892,0.0913,0.095,0.0998,0.1062,0.1148,0.1244,0.1335,0.1415,0.1463,0.1468,0.1452,0.142,0.1377,0.1345,0.1324,0.1313,0.1297,0.1271,0.1228,0.1175,0.1105,0.102,0.0945,0.0886,0.0828,0.0635,0.0256,-0.0182,-0.0529,-0.0774,-0.0977,-0.1335,-0.1746,-0.1917,-0.2173,-0.2317,-0.2072,-0.1676,-0.1313,-0.1041,-0.0806,-0.0699,0.0774,0.0747,0.078,0.0886,0.0945,0.0977,0.1009,0.1052,0.1121,0.1223,0.1335,0.1436,0.1511,0.1543,0.1538,0.1506,0.1463,0.1415,0.1377,0.1372,0.1377,0.1361,0.1303,0.1212,0.1121,0.1036,0.0961,0.0886,0.0806,0.0721,0.0625,0.0384,-0.0048,-0.0475,-0.0769,-0.0998,-0.1217,-0.1506,-0.1943,-0.2146,-0.2082,-0.2306,-0.2504,-0.229,-0.1789,-0.1281,-0.0982,0.1959,0.1757,0.149,0.1196,0.1046,0.1036,0.1052,0.1089,0.1169,0.1281,0.1415,0.1538,0.1607,0.1639,0.1644,0.1628,0.158,0.1522,0.1468,0.1431,0.1377,0.1287,0.1185,0.11,0.1046,0.1009,0.0966,0.0892,0.0769,0.0625,0.0497,0.0352,0.0064,-0.0358,-0.0683,-0.0854,-0.1046,-0.1329,-0.1511,-0.1554,-0.1794,-0.2072,-0.2184,-0.2579,-0.2734,-0.22,-0.1666,0.2157,0.1997,0.1847,0.1719,0.1623,0.1431,0.1228,0.1153,0.1223,0.1399,0.1698,0.1981,0.205,0.2018,0.189,0.1751,0.1692,0.1596,0.1506,0.1404,0.1281,0.1159,0.1057,0.0993,0.0966,0.0945,0.0892,0.0763,0.0603,0.0464,0.0347,0.0256,0.0133,-0.0144,-0.0486,-0.0673,-0.0705,-0.0747,-0.087,-0.1041,-0.1239,-0.1351,-0.1709,-0.2355,-0.2605,-0.2557,-0.2573,0.1783,0.1516,0.1479,0.158,0.1644,0.1666,0.1618,0.1548,0.1532,0.1671,0.1879,0.1943,0.1874,0.1943,0.1943,0.1767,0.1666,0.1548,0.141,0.1255,0.1105,0.0998,0.0918,0.0881,0.0924,0.0833,0.0796,0.0667,0.0448,0.0294,0.0214,0.0139,0.0069,-0.0021,-0.0192,-0.0406,-0.0523,-0.0571,-0.0614,-0.063,-0.0651,-0.0812,-0.1324,-0.1874,-0.2488,-0.3027,-0.3182,0.1447,0.1052,0.0902,0.1164,0.1319,0.1287,0.118,0.1308,0.149,0.1564,0.1671,0,0.1415,0,0.1794,0.1538,0.1458,0.141,0.1276,0.1078,0.0886,0.0731,0.0593,0.0523,0.0534,0.0603,0.0641,0.0662,0.0641,0.0699,0.0694,0.0582,0.0459,0.0416,0.0347,0.0117,-0.0198,-0.0406,-0.0598,-0.0822,-0.1004,-0.1084,-0.1143,-0.1452,-0.2077,-0.2638,-0.284,0,0,0,0,0,0.0972,0.1089,0,0,0,0,0,0,0,0,0,0,0,0,0,0,0,0,0,0,0,0.0358,0.0331,0.0438,0.0635,0.0737,0.0646,0.047,0.0459,0.0454,0.0374,0.0251,-0.0133,-0.0539,-0.0902,-0.126,-0.1431,-0.1388,-0.1196,-0.1148,-0.1404,-0.1783,0,0,0,0,0,0,0,0,0,0,0,0,0,0,0,0,0,0,0,0,0,0,0,0,0,0,0,0,0,0.0411,0.04,0.0416,0.0539,0.0529,0.0443,0.0395,0.0427,0.0475,0.0128,-0.0534,-0.0801,-0.094,-0.1036,-0.0993,-0.0892,-0.0812,-0.0849,0,0,0,0,0,0,0,0,0,0,0,0,0,0,0,0,0,0,0,0,0,0,0,0,0,0,0,0,0,0,0,0,0,0,0,0,0.0416,0.0534,0.0699,0.0251,-0.0091,-0.032,-0.0587,-0.0812,-0.0929,-0.0902,-0.079,0,0,0,0,0,0,0,0,0,0,0,0,0,0,0,0,0,0,0,0,0,0,0,0,0,0,0,0,0,0,0,0,0,0,0,0,0,0,0.0384,0.0481,0.0374,0.0256,0.0021,-0.0219,-0.0486,-0.0657,-0.0646,0,0,0,0,0,0,0,0,0,0,0,0,0,0,0,0,0,0,0,0,0,0,0,0,0,0,0,0,0,0,0,0,0,0,0,0,0,0,0,0,0,-0.0048,-0.0149,-0.0267,-0.0384,-0.0454,-0.039,0,0,0,0,0,0,0,0,0,0,0,0,0,0,0,0,0,0,0,0,0,0,0,0,0,0,0,0,0,0,0,0,0,0,0,0,0,0,0,0,0,0,0,0,0,0,-0.0048,0,0,0,0,0,0,0,0,0,0,0,0,0,0,0,0,0,0,0,0,0,0,0,0,0,0,0,0,0,0,0,0,0,0,0,0,0,0,0,0,0,0,0,0,0,0,0,0,0,0,0,0,0,0,0,0,0,0,0,0,0,0,0,0,0,0,0,0,0,0,0,0,0,0,0,0,0,0,0,0,0,0,0,0,0,0,0,0,0,0,0,0,0,0,0,0,0,0,0,0,0,0,0,0,0,0,0,0,0,0,0,0,0,0,0,0,0,0,0,0,0,0,0,0,0,0,0,0,0,0,0,0,0,0,0,0,0,0,0,0,0,0,0,0,0,0,0,0,0,0,0,0,0,0,0,0,0,0,0,0,0,0,0,0,0,0,0,0,0,0,0,0,0,0,0,0,0,0,0,0,0,0,0,0,0,0,0,0,0,0,0,0,0,0,0,0,0,0,0,0,0,0,0,0,0,0,0,0,0,0,0,0,0,0,0,0,0,0,0,0,0,0,0,0,0,0,0,0,0,0,0,0,0,0,0,0,0,0,0,0,0,0,0,0,0,0,0,0,0,0,0,0,0,0,0,0,0,0,0,0,0,0,0,0,0,0,0,0,0,0,0,0,0,0,0,0,0,0,0,0,0,0,0,0,0,0,0,0,0,0,0,0,0,0,0,0,0,0,0,0,0,0,0,0,0,0,0,0,0,0,0,0,0,0,0,0,0,0,0,0,0,0,0,0,0,0,0,0,0,0,0,0,0,0,0,0,0,0,0,0,0,0,0,0,0,0,0,0,0,0,0,0,0,0,0,0,0,0,0,0,0,0,0,0,0,0,0,0,0,0,0,0,0,0,0,0,0,0,0,0,0,0,0,0,0,0,0,0,0,0,0,0,0,0,0,0,0,0,0,0,0,0,0,0,0,0,0,0,0,0,0,0,0,0,0,0,0,0,0,0,0,0,0,0,0,0,0,0,0,0,0,0,0,0,0,0,0,0,0,0,0,0,0,0,0,0,0,0,0,0,0,0,0,0,0,0,0,0,0,0,0,0,0,0,0,0,0,0,0,0,0,0,0,0,0,0,0,0,0,0,0,0,0,0,0,0,0,0,0,0,0,0,0,0,0,0,0,0,0,0,0,0,0,0,0,0,0,0,0,0,0,0,0,0,0,0,0,0,0,0,0,0,0,0,0,0,0,0,0,0,0,0,0,0,0,0,0,0,0,0,0,0,0,0,0,0,0,0,0,0,0,0,0,0,0,0,0,0,0,0,0,0,0,0,0,0,0,0,0,0,0,0,0,0,0,0,0,0,0,0,0,0,0,0,0,0,0,0,0,0,0,0,0,0,0,0,0,0,0,0,0,0,0,0,0,0,0,0,0,0,0,0,0,0,0,0,0,0,0,0,0,0,0,0,0,0,0,0,0,0,0,0,0,0,0,0,0,0,0,0,0,0,0,0,0,0,0,0,0,0,0,0,0,0,0,0,0,0,0,0,0,0,0,0,0,0,0,0,0,0,0,0,0,0,0,0,0,0,0,0,0,0,0,0,0,0,0,0,0,0,0,0,0,0,0,0,0,0,0,0,0,0,0,0,0]}],[{"header":{"parameterUnit":"kt","parameterCategory":2,"dx":1,"dy":1,"la1":29.764190673828125,"la2":30.86408042907715,"lo1":-88.46762084960938,"lo2":-86.9344482421875,"nx":47,"ny":34,"refTime":"2022-10-14T00:00:00:Z","depth":"12","parameterNumber":3,"parameterNumberName":"V-component_of_CURRENTS"},"data":[-0.1313,-0.1735,-0.1991,-0.1538,-0.0689,-0.0133,-0.0144,-0.0545,-0.0961,-0.1212,-0.1212,-0.11,-0.0966,-0.0705,-0.0523,-0.04,-0.0299,-0.0176,-0.0411,-0.0796,-0.1111,-0.0892,-0.0747,-0.1639,-0.2691,-0.2461,-0.213,-0.26,-0.2915,-0.3054,-0.3129,-0.299,-0.2419,-0.1799,-0.1281,-0.1004,-0.0822,-0.0699,-0.0577,-0.0395,-0.0149,0.008,0.0278,0.0454,0.0555,0.0603,0.0646,-0.1249,-0.1516,-0.1853,-0.1698,-0.1148,-0.063,-0.0464,-0.0587,-0.0747,-0.0806,-0.0796,-0.0801,-0.0694,-0.0561,-0.0555,-0.0545,-0.0486,-0.0384,-0.0513,-0.0753,-0.0886,-0.0683,-0.0491,-0.1025,-0.1959,-0.1863,-0.166,-0.2349,-0.3225,-0.3433,-0.3251,-0.3166,-0.2947,-0.2445,-0.1901,-0.15,-0.1143,-0.0956,-0.0828,-0.0705,-0.0502,-0.0299,-0.0166,-0.0027,0.0064,0.0117,0.0187,-0.1217,-0.1276,-0.1516,-0.157,-0.1308,-0.095,-0.0699,-0.0641,-0.0651,-0.0662,-0.0651,-0.0651,-0.0587,-0.0603,-0.0683,-0.0683,-0.0625,-0.0523,-0.0534,-0.0651,-0.0721,-0.0603,-0.0304,-0.0379,-0.0988,-0.1404,-0.149,-0.2034,-0.2904,-0.3567,-0.37,-0.338,-0.3097,-0.2926,-0.268,-0.2312,-0.1853,-0.1602,-0.1426,-0.1287,-0.1095,-0.087,-0.0715,-0.0635,-0.0582,-0.0529,-0.0411,-0.1201,-0.1127,-0.1196,-0.1292,-0.1228,-0.1052,-0.0854,-0.0737,-0.0673,-0.0689,-0.0683,-0.0657,-0.0646,-0.071,-0.0758,-0.0753,-0.0683,-0.0593,-0.0539,-0.0545,-0.0582,-0.0513,-0.0272,-0.0091,-0.0267,-0.0785,-0.1212,-0.181,-0.2355,-0.3075,-0.362,-0.3657,-0.3209,-0.2904,-0.2878,-0.2904,-0.2654,-0.2387,-0.213,-0.1922,-0.1746,-0.1548,-0.1351,-0.1281,-0.1265,-0.1239,-0.1127,-0.1159,-0.1073,-0.1036,-0.1062,-0.1057,-0.102,-0.0934,-0.0854,-0.0796,-0.0796,-0.0796,-0.0785,-0.0769,-0.0769,-0.078,-0.0763,-0.0699,-0.0614,-0.0545,-0.0518,-0.0513,-0.0475,-0.0358,-0.0176,-0.0096,-0.0363,-0.0817,-0.1313,-0.1815,-0.2349,-0.2926,-0.3358,-0.3219,-0.2904,-0.2632,-0.2627,-0.2707,-0.2723,-0.2573,-0.229,-0.213,-0.1986,-0.1858,-0.1773,-0.1757,-0.1741,-0.1639,-0.1095,-0.1036,-0.0988,-0.0972,-0.0966,-0.0966,-0.0961,-0.0945,-0.0934,-0.0934,-0.0934,-0.0918,-0.0881,-0.0838,-0.0806,-0.0769,-0.0705,-0.0625,-0.0561,-0.0534,-0.0534,-0.0507,-0.0432,-0.032,-0.0203,-0.0294,-0.0539,-0.0854,-0.1271,-0.1703,-0.2189,-0.2686,-0.2883,-0.2819,-0.2605,-0.2397,-0.2355,-0.2264,-0.2296,-0.2232,-0.2221,-0.2056,-0.1949,-0.1874,-0.1826,-0.1773,-0.166,-0.1041,-0.102,-0.0982,-0.0972,-0.0972,-0.0982,-0.1004,-0.1025,-0.1036,-0.1041,-0.1052,-0.1036,-0.0993,-0.0934,-0.086,-0.079,-0.071,-0.063,-0.0566,-0.0545,-0.055,-0.0539,-0.0491,-0.0406,-0.031,-0.0283,-0.0358,-0.0529,-0.0806,-0.1153,-0.1564,-0.2077,-0.2461,-0.2504,-0.2419,-0.2429,-0.2381,-0.2162,-0.197,-0.1799,-0.1879,-0.1901,-0.1895,-0.1789,-0.1644,-0.1506,-0.1329,-0.1084,-0.1078,-0.1041,-0.102,-0.1014,-0.1036,-0.1068,-0.11,-0.1121,-0.1137,-0.1148,-0.1137,-0.1089,-0.102,-0.0924,-0.0822,-0.0721,-0.063,-0.0566,-0.0555,-0.0582,-0.0593,-0.055,-0.0454,-0.0342,-0.0262,-0.0262,-0.0379,-0.0545,-0.071,-0.1025,-0.1522,-0.2002,-0.2232,-0.2093,-0.204,-0.2248,-0.2365,-0.2141,-0.1927,-0.1762,-0.1735,-0.173,-0.1607,-0.142,-0.1153,-0.0892,-0.1164,-0.1207,-0.1249,-0.1143,-0.1095,-0.1089,-0.1121,-0.1164,-0.1201,-0.1233,-0.1244,-0.1217,-0.1148,-0.1052,-0.094,-0.0828,-0.071,-0.0614,-0.0571,-0.0593,-0.0641,-0.0657,-0.0587,-0.0464,-0.0336,-0.024,-0.0219,-0.0315,-0.0448,-0.0497,-0.0603,-0.0982,-0.1511,-0.1847,-0.1837,-0.1703,-0.181,-0.2002,-0.2168,-0.2253,-0.2162,-0.2168,-0.205,-0.1634,-0.1244,-0.0812,-0.0406,-0.1046,-0.1078,-0.1207,-0.1212,-0.1164,-0.1137,-0.1148,-0.1217,-0.1287,-0.1351,-0.1372,-0.1287,-0.1132,-0.102,-0.0908,-0.0785,-0.0667,-0.0587,-0.0577,-0.0619,-0.0662,-0.0646,-0.0571,-0.0475,-0.0374,-0.0267,-0.0219,-0.0262,-0.0331,-0.0352,-0.0368,-0.0534,-0.094,-0.1404,-0.1575,-0.1506,-0.1468,-0.149,-0.1773,-0.2056,-0.22,-0.236,-0.2467,-0.2242,-0.1623,-0.0849,-0.0139,-0.0352,-0.0304,-0.0683,-0.0849,-0.0993,-0.103,-0.103,-0.118,-0.1287,-0.1313,-0.1207,-0.0966,-0.0715,-0.0715,-0.0609,-0.0635,-0.0555,-0.0513,-0.0529,-0.0561,-0.0577,-0.0555,-0.0518,-0.0497,-0.0464,-0.0368,-0.0294,-0.0256,-0.0224,-0.0192,-0.0219,-0.0299,-0.0481,-0.0902,-0.1297,-0.1393,-0.1324,-0.118,-0.1335,-0.1687,-0.1757,-0.1703,-0.1975,-0.2264,-0.2013,-0.1393,-0.0683,-0.0064,0.032,0.0112,-0.0358,-0.0539,-0.0539,-0.0721,-0.1175,-0.1191,-0.1078,-0.079,-0.0481,-0.0139,-0.0523,-0.0059,-0.0176,-0.0342,-0.0342,-0.0363,-0.0294,-0.0166,-0.0133,-0.0155,-0.016,-0.0059,-0.0011,-0.0166,-0.0091,-0.008,-0.0064,-0.0064,-0.0139,-0.0235,-0.0497,-0.0913,-0.1207,-0.1244,-0.1036,-0.1137,-0.1367,-0.1377,-0.1223,-0.1201,-0.134,-0.1596,-0.1399,-0.1095,0.0059,0.0529,0.0107,-0.0203,-0.0267,0.0016,-0.0117,-0.0555,-0.0625,-0.0523,-0.0657,0,0.0053,0,0.0331,0.0358,-0.0016,-0.0123,-0.016,-0.0064,0.0085,0.023,0.0294,0.0256,0.0299,0.0379,0.0534,0.0427,0.0347,0.0053,0.0053,0.0016,-0.0032,-0.0166,-0.0459,-0.0774,-0.0945,-0.0854,-0.0966,-0.1351,-0.1345,-0.11,-0.0731,-0.0646,-0.0876,-0.094,-0.0966,0,0,0,0,0,0.0192,0.0166,0,0,0,0,0,0,0,0,0,0,0,0,0,0,0,0,0,0,0,0.0518,0.0651,0.0657,0.0635,0.0539,0.0283,0.0219,0.0021,-0.0128,-0.0278,-0.0363,-0.0464,-0.0715,-0.1121,-0.1169,-0.1084,-0.0801,-0.0491,-0.0358,-0.0555,-0.0822,0,0,0,0,0,0,0,0,0,0,0,0,0,0,0,0,0,0,0,0,0,0,0,0,0,0,0,0,0,0.0646,0.071,0.0817,0.0828,0.0662,0.055,0.0464,0.0363,0.0112,-0.0166,-0.0603,-0.0737,-0.0849,-0.0812,-0.0566,-0.0304,-0.0235,-0.0406,0,0,0,0,0,0,0,0,0,0,0,0,0,0,0,0,0,0,0,0,0,0,0,0,0,0,0,0,0,0,0,0,0,0,0,0,0.0502,0.0518,0.0593,-0.0171,-0.0326,-0.0422,-0.0518,-0.0454,-0.0299,-0.0133,-0.0133,0,0,0,0,0,0,0,0,0,0,0,0,0,0,0,0,0,0,0,0,0,0,0,0,0,0,0,0,0,0,0,0,0,0,0,0,0,0,0.0609,0.0502,0.0235,-0.0011,-0.0133,-0.0208,-0.0192,-0.0117,-0.0112,0,0,0,0,0,0,0,0,0,0,0,0,0,0,0,0,0,0,0,0,0,0,0,0,0,0,0,0,0,0,0,0,0,0,0,0,0,0,0,0,0,0.0144,-0.0043,-0.0048,-0.0149,-0.0091,-0.0139,0,0,0,0,0,0,0,0,0,0,0,0,0,0,0,0,0,0,0,0,0,0,0,0,0,0,0,0,0,0,0,0,0,0,0,0,0,0,0,0,0,0,0,0,0,0,-0.0182,0,0,0,0,0,0,0,0,0,0,0,0,0,0,0,0,0,0,0,0,0,0,0,0,0,0,0,0,0,0,0,0,0,0,0,0,0,0,0,0,0,0,0,0,0,0,0,0,0,0,0,0,0,0,0,0,0,0,0,0,0,0,0,0,0,0,0,0,0,0,0,0,0,0,0,0,0,0,0,0,0,0,0,0,0,0,0,0,0,0,0,0,0,0,0,0,0,0,0,0,0,0,0,0,0,0,0,0,0,0,0,0,0,0,0,0,0,0,0,0,0,0,0,0,0,0,0,0,0,0,0,0,0,0,0,0,0,0,0,0,0,0,0,0,0,0,0,0,0,0,0,0,0,0,0,0,0,0,0,0,0,0,0,0,0,0,0,0,0,0,0,0,0,0,0,0,0,0,0,0,0,0,0,0,0,0,0,0,0,0,0,0,0,0,0,0,0,0,0,0,0,0,0,0,0,0,0,0,0,0,0,0,0,0,0,0,0,0,0,0,0,0,0,0,0,0,0,0,0,0,0,0,0,0,0,0,0,0,0,0,0,0,0,0,0,0,0,0,0,0,0,0,0,0,0,0,0,0,0,0,0,0,0,0,0,0,0,0,0,0,0,0,0,0,0,0,0,0,0,0,0,0,0,0,0,0,0,0,0,0,0,0,0,0,0,0,0,0,0,0,0,0,0,0,0,0,0,0,0,0,0,0,0,0,0,0,0,0,0,0,0,0,0,0,0,0,0,0,0,0,0,0,0,0,0,0,0,0,0,0,0,0,0,0,0,0,0,0,0,0,0,0,0,0,0,0,0,0,0,0,0,0,0,0,0,0,0,0,0,0,0,0,0,0,0,0,0,0,0,0,0,0,0,0,0,0,0,0,0,0,0,0,0,0,0,0,0,0,0,0,0,0,0,0,0,0,0,0,0,0,0,0,0,0,0,0,0,0,0,0,0,0,0,0,0,0,0,0,0,0,0,0,0,0,0,0,0,0,0,0,0,0,0,0,0,0,0,0,0,0,0,0,0,0,0,0,0,0,0,0,0,0,0,0,0,0,0,0,0,0,0,0,0,0,0,0,0,0,0,0,0,0,0,0,0,0,0,0,0,0,0,0,0,0,0,0,0,0,0,0,0,0,0,0,0,0,0,0,0,0,0,0,0,0,0,0,0,0,0,0,0,0,0,0,0,0,0,0,0,0,0,0,0,0,0,0,0,0,0,0,0,0,0,0,0,0,0,0,0,0,0,0,0,0,0,0,0,0,0,0,0,0,0,0,0,0,0,0,0,0,0,0,0,0,0,0,0,0,0,0,0,0,0,0,0,0,0,0,0,0,0,0,0,0,0,0,0,0,0,0,0,0,0,0,0,0,0,0,0,0,0,0,0,0,0,0,0,0,0,0,0,0,0,0,0,0,0,0,0,0,0,0,0,0,0,0,0,0,0,0,0,0,0,0,0,0,0,0,0,0,0,0,0,0,0,0,0,0,0,0,0,0,0,0,0,0,0,0,0,0,0,0,0,0,0,0,0,0,0,0,0,0,0,0,0,0,0,0,0,0,0,0,0,0,0,0,0,0,0,0,0,0,0,0,0]}]],[[{"header":{"parameterUnit":"kt","parameterCategory":2,"dx":1,"dy":1,"la1":29.764190673828125,"la2":30.86408042907715,"lo1":-88.46762084960938,"lo2":-86.9344482421875,"nx":47,"ny":34,"refTime":"2022-10-14T00:00:00:Z","depth":"15","parameterNumber":2,"parameterNumberName":"U-component_of_CURRENTS"},"data":[0.0304,0.0198,0.0112,0.0187,0.0518,0.0929,0.1281,0.158,0.1746,0.1634,0.1308,0.0993,0.0806,0.0689,0.0641,0.0705,0.0892,0.1132,0.1287,0.1356,0.1329,0.118,0.0961,0.0721,0.0497,0.0144,-0.0438,-0.1169,-0.1575,-0.1265,-0.0785,-0.0929,-0.1511,-0.1922,-0.2088,-0.2082,-0.205,-0.205,-0.2056,-0.204,-0.1975,-0.1874,-0.1719,-0.1532,-0.1361,-0.1244,-0.1201,0.0299,0.0139,-0.0096,-0.0251,-0.0171,0.0155,0.0534,0.0806,0.0918,0.0902,0.0812,0.0715,0.0667,0.0646,0.0742,0.0961,0.1164,0.1351,0.1506,0.1527,0.142,0.1281,0.11,0.071,0.0112,-0.0379,-0.0614,-0.0747,-0.1164,-0.1575,-0.1329,-0.0854,-0.0881,-0.1351,-0.1757,-0.1959,-0.2007,-0.2029,-0.2007,-0.1943,-0.1869,-0.1805,-0.1751,-0.1703,-0.1671,-0.1676,-0.1709,0.0347,0.0246,-0.0032,-0.0304,-0.0374,-0.0272,-0.0059,0.0198,0.0427,0.0555,0.063,0.0699,0.0763,0.0908,0.1111,0.1249,0.134,0.1415,0.1511,0.1538,0.1463,0.1383,0.1308,0.1057,0.0422,-0.0192,-0.0406,-0.0459,-0.0529,-0.0849,-0.1292,-0.1276,-0.0876,-0.0774,-0.1175,-0.1484,-0.1602,-0.173,-0.1751,-0.1709,-0.166,-0.166,-0.1709,-0.1789,-0.1863,-0.1906,-0.1895,0.0422,0.04,0.0288,0.0069,-0.0128,-0.0171,-0.0053,0.0149,0.0358,0.0539,0.0683,0.0838,0.1046,0.1244,0.1361,0.1415,0.1426,0.1431,0.1447,0.1463,0.1452,0.1393,0.1388,0.1463,0.1329,0.0934,0.0678,0.0545,0.0272,-0.0085,-0.0454,-0.0908,-0.1196,-0.1025,-0.087,-0.094,-0.1159,-0.1388,-0.1442,-0.1431,-0.1452,-0.1506,-0.1554,-0.1623,-0.1746,-0.1837,-0.1858,0.055,0.0523,0.0491,0.0416,0.0304,0.0235,0.0256,0.0374,0.0561,0.0763,0.0956,0.1127,0.1271,0.1388,0.1452,0.1468,0.1452,0.1436,0.1431,0.142,0.1399,0.1367,0.1361,0.1452,0.1628,0.1671,0.1436,0.1068,0.0742,0.0459,0.0112,-0.0379,-0.0747,-0.1078,-0.1388,-0.1223,-0.0945,-0.102,-0.1132,-0.1217,-0.1281,-0.1319,-0.1319,-0.1319,-0.1372,-0.1463,-0.15,0.0699,0.0662,0.0646,0.0641,0.0641,0.0657,0.0705,0.0801,0.0924,0.1041,0.1143,0.1239,0.1329,0.141,0.1458,0.1468,0.1452,0.1436,0.142,0.141,0.1383,0.1345,0.1308,0.1324,0.142,0.1538,0.1506,0.126,0.0934,0.0593,0.0262,-0.008,-0.0513,-0.0796,-0.1073,-0.1474,-0.1666,-0.1474,-0.1105,-0.1025,-0.1143,-0.1175,-0.1095,-0.1014,-0.0945,-0.0897,-0.0913,0.0812,0.0796,0.0796,0.0801,0.0817,0.0849,0.0902,0.0966,0.1041,0.1121,0.1201,0.1281,0.1361,0.1426,0.1458,0.1458,0.1442,0.141,0.1383,0.1351,0.1313,0.1276,0.1255,0.1249,0.1271,0.1281,0.1255,0.1191,0.1068,0.0817,0.0464,0.0101,-0.0256,-0.0577,-0.0806,-0.1111,-0.1474,-0.1805,-0.1917,-0.1719,-0.142,-0.1185,-0.1073,-0.094,-0.0806,-0.0673,-0.0625,0.0763,0.0812,0.0849,0.0876,0.0897,0.0924,0.0956,0.1009,0.1073,0.1159,0.1255,0.1345,0.142,0.1458,0.1468,0.1452,0.142,0.1383,0.1345,0.1324,0.1308,0.1297,0.1271,0.1233,0.118,0.1111,0.103,0.095,0.0892,0.0833,0.0646,0.0272,-0.0144,-0.047,-0.0715,-0.0908,-0.1244,-0.1671,-0.189,-0.2157,-0.229,-0.2034,-0.1628,-0.1281,-0.102,-0.0796,-0.0683,0.1335,0.1132,0.0924,0.0897,0.095,0.0982,0.1014,0.1057,0.1132,0.1223,0.1335,0.1431,0.1495,0.1527,0.1522,0.149,0.1447,0.1404,0.1367,0.1356,0.1361,0.1345,0.1297,0.1212,0.1127,0.1041,0.0966,0.0892,0.0806,0.0726,0.063,0.04,-0.0011,-0.0406,-0.0699,-0.0929,-0.11,-0.1383,-0.1863,-0.2109,-0.2056,-0.2269,-0.2461,-0.2237,-0.1762,-0.1265,-0.0966,0.1725,0.1596,0.15,0.1313,0.1089,0.1036,0.1052,0.1089,0.1164,0.1271,0.1399,0.1506,0.1564,0.1591,0.1596,0.1559,0.15,0.1442,0.1404,0.1372,0.1335,0.126,0.1169,0.1089,0.1041,0.1009,0.0966,0.0892,0.0769,0.063,0.0502,0.0363,0.0091,-0.0294,-0.0593,-0.0769,-0.0961,-0.126,-0.1447,-0.1484,-0.1692,-0.1943,-0.1991,-0.2499,-0.268,-0.2173,-0.1644,0.1607,0.1372,0.1271,0.1303,0.1351,0.1335,0.1212,0.1143,0.1191,0.1324,0.1527,0.1698,0.173,0.1698,0.1618,0.1559,0.1532,0.1458,0.1372,0.1292,0.1196,0.1089,0.0988,0.0924,0.0908,0.0918,0.0913,0.0822,0.0635,0.0475,0.0358,0.0267,0.0144,-0.0107,-0.0395,-0.0566,-0.0635,-0.0694,-0.0817,-0.0982,-0.1175,-0.1212,-0.1335,-0.204,-0.2387,-0.2435,-0.252,0,0,0.1111,0.1169,0.1265,0.1356,0.1351,0.1287,0.1281,0.1426,0.1655,0,0,0,0,0,0,0,0,0,0,0,0,0,0.0683,0.0721,0.0822,0.0822,0.0833,0.0571,0.0299,0.016,0.0085,0.0032,-0.008,-0.0272,-0.0448,-0.0534,-0.0587,-0.0614,-0.0646,-0.0796,-0.1159,-0.1591,-0.2098,-0.2648,-0.2878,0,0,0,0,0,0,0.1009,0.1127,0,0,0,0,0,0,0,0,0,0,0,0,0,0,0,0,0,0,0.0561,0.0523,0.0486,0.0529,0.0513,0.0443,0.0406,0.0416,0.0411,0.0262,-0.0091,-0.0384,-0.0577,-0.0758,-0.0892,-0.0972,-0.1041,-0.134,-0.1911,-0.2387,-0.2429,0,0,0,0,0,0,0,0,0,0,0,0,0,0,0,0,0,0,0,0,0,0,0,0,0,0,0,0,0.039,0.0448,0.0368,0.0315,0.04,0.0384,0.0331,0.032,0.0278,-0.0021,-0.0459,-0.0705,-0.0892,-0.0977,-0.0972,-0.095,-0.1009,-0.1164,-0.1372,0,0,0,0,0,0,0,0,0,0,0,0,0,0,0,0,0,0,0,0,0,0,0,0,0,0,0,0,0,0,0,0,0,0,0,0.0272,0.023,0.0336,0.04,0.0011,-0.0192,-0.031,-0.0443,-0.0486,-0.0486,-0.0475,-0.0523,0,0,0,0,0,0,0,0,0,0,0,0,0,0,0,0,0,0,0,0,0,0,0,0,0,0,0,0,0,0,0,0,0,0,0,0,0,0,0.0577,0.0726,0.0657,0.0406,0.0064,-0.0208,-0.0363,-0.0454,-0.0438,0,0,0,0,0,0,0,0,0,0,0,0,0,0,0,0,0,0,0,0,0,0,0,0,0,0,0,0,0,0,0,0,0,0,0,0,0,0,0,0,0,0.0459,0.0395,0.0246,-0.0011,-0.0235,-0.0304,0,0,0,0,0,0,0,0,0,0,0,0,0,0,0,0,0,0,0,0,0,0,0,0,0,0,0,0,0,0,0,0,0,0,0,0,0,0,0,0,0,0,-0.0112,-0.0144,-0.0267,-0.031,-0.0208,0,0,0,0,0,0,0,0,0,0,0,0,0,0,0,0,0,0,0,0,0,0,0,0,0,0,0,0,0,0,0,0,0,0,0,0,0,0,0,0,0,0,0,0,0,0,-0.0043,0,0,0,0,0,0,0,0,0,0,0,0,0,0,0,0,0,0,0,0,0,0,0,0,0,0,0,0,0,0,0,0,0,0,0,0,0,0,0,0,0,0,0,0,0,0,0,0,0,0,0,0,0,0,0,0,0,0,0,0,0,0,0,0,0,0,0,0,0,0,0,0,0,0,0,0,0,0,0,0,0,0,0,0,0,0,0,0,0,0,0,0,0,0,0,0,0,0,0,0,0,0,0,0,0,0,0,0,0,0,0,0,0,0,0,0,0,0,0,0,0,0,0,0,0,0,0,0,0,0,0,0,0,0,0,0,0,0,0,0,0,0,0,0,0,0,0,0,0,0,0,0,0,0,0,0,0,0,0,0,0,0,0,0,0,0,0,0,0,0,0,0,0,0,0,0,0,0,0,0,0,0,0,0,0,0,0,0,0,0,0,0,0,0,0,0,0,0,0,0,0,0,0,0,0,0,0,0,0,0,0,0,0,0,0,0,0,0,0,0,0,0,0,0,0,0,0,0,0,0,0,0,0,0,0,0,0,0,0,0,0,0,0,0,0,0,0,0,0,0,0,0,0,0,0,0,0,0,0,0,0,0,0,0,0,0,0,0,0,0,0,0,0,0,0,0,0,0,0,0,0,0,0,0,0,0,0,0,0,0,0,0,0,0,0,0,0,0,0,0,0,0,0,0,0,0,0,0,0,0,0,0,0,0,0,0,0,0,0,0,0,0,0,0,0,0,0,0,0,0,0,0,0,0,0,0,0,0,0,0,0,0,0,0,0,0,0,0,0,0,0,0,0,0,0,0,0,0,0,0,0,0,0,0,0,0,0,0,0,0,0,0,0,0,0,0,0,0,0,0,0,0,0,0,0,0,0,0,0,0,0,0,0,0,0,0,0,0,0,0,0,0,0,0,0,0,0,0,0,0,0,0,0,0,0,0,0,0,0,0,0,0,0,0,0,0,0,0,0,0,0,0,0,0,0,0,0,0,0,0,0,0,0,0,0,0,0,0,0,0,0,0,0,0,0,0,0,0,0,0,0,0,0,0,0,0,0,0,0,0,0,0,0,0,0,0,0,0,0,0,0,0,0,0,0,0,0,0,0,0,0,0,0,0,0,0,0,0,0,0,0,0,0,0,0,0,0,0,0,0,0,0,0,0,0,0,0,0,0,0,0,0,0,0,0,0,0,0,0,0,0,0,0,0,0,0,0,0,0,0,0,0,0,0,0,0,0,0,0,0,0,0,0,0,0,0,0,0,0,0,0,0,0,0,0,0,0,0,0,0,0,0,0,0,0,0,0,0,0,0,0,0,0,0,0,0,0,0,0,0,0,0,0,0,0,0,0,0,0,0,0,0,0,0,0,0,0,0,0,0,0,0,0,0,0,0,0,0,0,0,0,0,0,0,0,0,0,0,0,0,0,0,0,0,0,0,0,0,0,0,0,0,0,0,0,0,0,0,0,0,0,0,0,0,0,0,0,0,0,0,0,0,0,0,0,0,0,0,0,0,0,0,0,0,0,0,0,0,0,0,0,0,0,0,0,0,0,0,0,0,0,0,0,0,0,0,0,0,0,0,0,0,0,0,0]}],[{"header":{"parameterUnit":"kt","parameterCategory":2,"dx":1,"dy":1,"la1":29.764190673828125,"la2":30.86408042907715,"lo1":-88.46762084960938,"lo2":-86.9344482421875,"nx":47,"ny":34,"refTime":"2022-10-14T00:00:00:Z","depth":"15","parameterNumber":3,"parameterNumberName":"V-component_of_CURRENTS"},"data":[-0.1297,-0.1725,-0.1981,-0.1527,-0.0678,-0.0123,-0.0133,-0.0534,-0.095,-0.1207,-0.1196,-0.1084,-0.0945,-0.0683,-0.0502,-0.0379,-0.0272,-0.0149,-0.0384,-0.0774,-0.1089,-0.087,-0.0726,-0.1602,-0.2568,-0.2296,-0.2007,-0.2477,-0.2798,-0.2969,-0.3086,-0.2969,-0.2403,-0.1773,-0.1265,-0.0982,-0.0806,-0.0689,-0.0561,-0.0384,-0.0144,0.0085,0.0283,0.0459,0.0561,0.0614,0.0651,-0.1233,-0.15,-0.1837,-0.1687,-0.1137,-0.0619,-0.0459,-0.0577,-0.0737,-0.0796,-0.078,-0.078,-0.0678,-0.0539,-0.0534,-0.0523,-0.0464,-0.0363,-0.0491,-0.0731,-0.0865,-0.0662,-0.047,-0.0998,-0.1858,-0.1639,-0.141,-0.2109,-0.2979,-0.323,-0.3161,-0.3129,-0.2926,-0.2419,-0.1879,-0.1479,-0.1121,-0.0929,-0.0806,-0.0683,-0.0491,-0.0288,-0.0155,-0.0016,0.0075,0.0133,0.0208,-0.1196,-0.1255,-0.15,-0.1554,-0.1297,-0.094,-0.0689,-0.063,-0.063,-0.0646,-0.0635,-0.0635,-0.0566,-0.0587,-0.0662,-0.0662,-0.0603,-0.0502,-0.0518,-0.063,-0.0699,-0.0577,-0.0283,-0.0352,-0.0929,-0.1191,-0.1201,-0.1719,-0.2531,-0.3209,-0.3438,-0.3284,-0.3054,-0.2894,-0.2654,-0.2285,-0.1826,-0.1575,-0.1393,-0.1255,-0.1073,-0.0849,-0.0694,-0.0614,-0.0555,-0.0502,-0.0379,-0.118,-0.1111,-0.1175,-0.1271,-0.1212,-0.103,-0.0838,-0.0715,-0.0657,-0.0673,-0.0667,-0.0635,-0.063,-0.0694,-0.0737,-0.0731,-0.0667,-0.0577,-0.0518,-0.0523,-0.0555,-0.0491,-0.0251,-0.0075,-0.024,-0.0694,-0.1052,-0.1623,-0.2056,-0.2654,-0.3171,-0.3406,-0.3113,-0.2856,-0.2846,-0.2872,-0.2632,-0.2355,-0.2104,-0.1895,-0.1714,-0.1522,-0.1324,-0.1255,-0.1233,-0.1207,-0.1095,-0.1143,-0.1057,-0.102,-0.1041,-0.1041,-0.0993,-0.0913,-0.0833,-0.078,-0.0774,-0.078,-0.0769,-0.0753,-0.0753,-0.0758,-0.0742,-0.0683,-0.0598,-0.0529,-0.0497,-0.0491,-0.0454,-0.0336,-0.0155,-0.0075,-0.0342,-0.078,-0.126,-0.1703,-0.2114,-0.2536,-0.299,-0.3091,-0.2856,-0.2547,-0.2584,-0.267,-0.2696,-0.2547,-0.2264,-0.2093,-0.1954,-0.1826,-0.1741,-0.173,-0.1714,-0.1612,-0.1078,-0.102,-0.0977,-0.0956,-0.095,-0.095,-0.094,-0.0929,-0.0918,-0.0918,-0.0918,-0.0902,-0.086,-0.0817,-0.078,-0.0742,-0.0683,-0.0603,-0.0539,-0.0513,-0.0507,-0.0481,-0.0406,-0.0294,-0.0182,-0.0267,-0.0513,-0.0828,-0.1244,-0.1655,-0.2018,-0.2419,-0.2686,-0.275,-0.2563,-0.2349,-0.2296,-0.2226,-0.2264,-0.2205,-0.2189,-0.2013,-0.1906,-0.1837,-0.1799,-0.1751,-0.1639,-0.103,-0.1009,-0.0972,-0.0961,-0.0956,-0.0972,-0.0988,-0.1009,-0.102,-0.102,-0.1025,-0.1009,-0.0961,-0.0902,-0.0833,-0.0763,-0.0683,-0.0603,-0.0545,-0.0518,-0.0523,-0.0513,-0.0464,-0.0379,-0.0283,-0.0256,-0.0331,-0.0507,-0.0785,-0.1127,-0.1516,-0.1965,-0.2274,-0.2365,-0.2344,-0.2355,-0.2339,-0.2114,-0.1927,-0.1757,-0.1847,-0.1863,-0.1847,-0.1746,-0.1618,-0.1479,-0.1303,-0.1068,-0.1062,-0.1025,-0.1004,-0.0998,-0.1014,-0.1041,-0.1073,-0.1089,-0.1105,-0.1111,-0.1095,-0.1046,-0.0977,-0.0881,-0.0785,-0.0689,-0.0598,-0.0539,-0.0534,-0.0561,-0.0571,-0.0534,-0.0438,-0.032,-0.0246,-0.0246,-0.0363,-0.0529,-0.0689,-0.0993,-0.1468,-0.1885,-0.2056,-0.1986,-0.1959,-0.2152,-0.2285,-0.2093,-0.189,-0.1725,-0.1698,-0.1687,-0.157,-0.1393,-0.1132,-0.0865,-0.0993,-0.095,-0.1014,-0.1111,-0.1068,-0.1062,-0.1089,-0.1127,-0.1164,-0.1191,-0.1196,-0.1153,-0.1078,-0.0988,-0.0886,-0.0785,-0.0667,-0.0582,-0.0539,-0.0571,-0.0625,-0.0635,-0.0571,-0.0454,-0.0326,-0.023,-0.0208,-0.0304,-0.0438,-0.0486,-0.0582,-0.094,-0.141,-0.1692,-0.1698,-0.1623,-0.1703,-0.189,-0.2072,-0.2189,-0.2109,-0.2098,-0.2007,-0.1586,-0.1212,-0.0785,-0.0384,-0.0486,-0.0459,-0.0667,-0.087,-0.0998,-0.1089,-0.11,-0.1159,-0.1223,-0.1271,-0.1271,-0.1164,-0.1004,-0.0892,-0.0806,-0.0705,-0.0598,-0.0529,-0.0529,-0.0582,-0.063,-0.0619,-0.0545,-0.0454,-0.0358,-0.0256,-0.0208,-0.0251,-0.032,-0.0342,-0.0358,-0.0507,-0.087,-0.1276,-0.142,-0.141,-0.1361,-0.1404,-0.1692,-0.1917,-0.2077,-0.2178,-0.221,-0.2152,-0.157,-0.0812,-0.0112,-0.0128,-0.0043,-0.0176,-0.0374,-0.0683,-0.087,-0.0945,-0.1095,-0.1169,-0.1121,-0.0972,-0.0753,-0.0561,-0.0529,-0.04,-0.0497,-0.0481,-0.0448,-0.0464,-0.0491,-0.0502,-0.047,-0.0427,-0.0379,-0.0272,-0.0112,-0.0075,-0.0101,-0.0144,-0.0176,-0.0208,-0.0283,-0.0443,-0.0801,-0.1111,-0.1239,-0.1212,-0.1127,-0.126,-0.1543,-0.1671,-0.1527,-0.1591,-0.1917,-0.1751,-0.1255,-0.063,0,0,0.0155,-0.0176,-0.0304,-0.0358,-0.0534,-0.0892,-0.0966,-0.0886,-0.0662,0,0,0,0,0,0,0,0,0,0,0,0,0,0.0091,0.0262,0.04,0.0411,0.0272,0.0149,0.0005,-0.0117,-0.0208,-0.04,-0.0683,-0.095,-0.1078,-0.0998,-0.1084,-0.1287,-0.1335,-0.1175,-0.102,-0.1121,-0.1276,-0.1095,-0.0908,0,0,0,0,0,0,-0.0064,-0.0422,0,0,0,0,0,0,0,0,0,0,0,0,0,0,0,0,0,0,0.0486,0.0571,0.055,0.0475,0.0304,0.0171,0.0064,-0.0096,-0.024,-0.0464,-0.0651,-0.0806,-0.0929,-0.1201,-0.1196,-0.0977,-0.0641,-0.0555,-0.0747,-0.0785,-0.071,0,0,0,0,0,0,0,0,0,0,0,0,0,0,0,0,0,0,0,0,0,0,0,0,0,0,0,0,0.0625,0.0603,0.0619,0.0678,0.0502,0.0347,0.0235,0.0133,-0.0032,-0.0331,-0.063,-0.0822,-0.0838,-0.0774,-0.0561,-0.0326,-0.0272,-0.0283,-0.0347,0,0,0,0,0,0,0,0,0,0,0,0,0,0,0,0,0,0,0,0,0,0,0,0,0,0,0,0,0,0,0,0,0,0,0,0.0395,0.0352,0.024,-0.0011,-0.0283,-0.0374,-0.047,-0.0448,-0.0299,-0.016,-0.0016,-0.0032,0,0,0,0,0,0,0,0,0,0,0,0,0,0,0,0,0,0,0,0,0,0,0,0,0,0,0,0,0,0,0,0,0,0,0,0,0,0,0.0448,0.0272,0.0085,-0.0085,-0.0149,-0.0128,-0.0069,0.0037,0.0069,0,0,0,0,0,0,0,0,0,0,0,0,0,0,0,0,0,0,0,0,0,0,0,0,0,0,0,0,0,0,0,0,0,0,0,0,0,0,0,0,0,0.0315,0.023,0.0176,0.0027,0.0064,0.0069,0,0,0,0,0,0,0,0,0,0,0,0,0,0,0,0,0,0,0,0,0,0,0,0,0,0,0,0,0,0,0,0,0,0,0,0,0,0,0,0,0,0,0.0128,0.0523,0.0112,0.0123,-0.0005,0,0,0,0,0,0,0,0,0,0,0,0,0,0,0,0,0,0,0,0,0,0,0,0,0,0,0,0,0,0,0,0,0,0,0,0,0,0,0,0,0,0,0,0,0,0,-0.0149,0,0,0,0,0,0,0,0,0,0,0,0,0,0,0,0,0,0,0,0,0,0,0,0,0,0,0,0,0,0,0,0,0,0,0,0,0,0,0,0,0,0,0,0,0,0,0,0,0,0,0,0,0,0,0,0,0,0,0,0,0,0,0,0,0,0,0,0,0,0,0,0,0,0,0,0,0,0,0,0,0,0,0,0,0,0,0,0,0,0,0,0,0,0,0,0,0,0,0,0,0,0,0,0,0,0,0,0,0,0,0,0,0,0,0,0,0,0,0,0,0,0,0,0,0,0,0,0,0,0,0,0,0,0,0,0,0,0,0,0,0,0,0,0,0,0,0,0,0,0,0,0,0,0,0,0,0,0,0,0,0,0,0,0,0,0,0,0,0,0,0,0,0,0,0,0,0,0,0,0,0,0,0,0,0,0,0,0,0,0,0,0,0,0,0,0,0,0,0,0,0,0,0,0,0,0,0,0,0,0,0,0,0,0,0,0,0,0,0,0,0,0,0,0,0,0,0,0,0,0,0,0,0,0,0,0,0,0,0,0,0,0,0,0,0,0,0,0,0,0,0,0,0,0,0,0,0,0,0,0,0,0,0,0,0,0,0,0,0,0,0,0,0,0,0,0,0,0,0,0,0,0,0,0,0,0,0,0,0,0,0,0,0,0,0,0,0,0,0,0,0,0,0,0,0,0,0,0,0,0,0,0,0,0,0,0,0,0,0,0,0,0,0,0,0,0,0,0,0,0,0,0,0,0,0,0,0,0,0,0,0,0,0,0,0,0,0,0,0,0,0,0,0,0,0,0,0,0,0,0,0,0,0,0,0,0,0,0,0,0,0,0,0,0,0,0,0,0,0,0,0,0,0,0,0,0,0,0,0,0,0,0,0,0,0,0,0,0,0,0,0,0,0,0,0,0,0,0,0,0,0,0,0,0,0,0,0,0,0,0,0,0,0,0,0,0,0,0,0,0,0,0,0,0,0,0,0,0,0,0,0,0,0,0,0,0,0,0,0,0,0,0,0,0,0,0,0,0,0,0,0,0,0,0,0,0,0,0,0,0,0,0,0,0,0,0,0,0,0,0,0,0,0,0,0,0,0,0,0,0,0,0,0,0,0,0,0,0,0,0,0,0,0,0,0,0,0,0,0,0,0,0,0,0,0,0,0,0,0,0,0,0,0,0,0,0,0,0,0,0,0,0,0,0,0,0,0,0,0,0,0,0,0,0,0,0,0,0,0,0,0,0,0,0,0,0,0,0,0,0,0,0,0,0,0,0,0,0,0,0,0,0,0,0,0,0,0,0,0,0,0,0,0,0,0,0,0,0,0,0,0,0,0,0,0,0,0,0,0,0,0,0,0,0,0,0,0,0,0,0,0,0,0,0,0,0,0,0,0,0,0,0,0,0,0,0,0,0,0,0,0,0,0,0,0,0,0,0,0,0,0,0,0,0,0,0,0,0,0,0,0,0,0,0,0,0,0,0,0,0,0,0,0,0,0,0,0,0,0,0,0,0,0,0,0,0,0,0,0,0,0,0,0,0,0,0,0,0,0,0,0,0,0,0,0,0,0,0,0,0,0,0,0,0,0]}]],[[{"header":{"parameterUnit":"kt","parameterCategory":2,"dx":1,"dy":1,"la1":29.764190673828125,"la2":30.86408042907715,"lo1":-88.46762084960938,"lo2":-86.9344482421875,"nx":47,"ny":34,"refTime":"2022-10-14T00:00:00:Z","depth":"20","parameterNumber":2,"parameterNumberName":"U-component_of_CURRENTS"},"data":[0.032,0.0251,0.016,0.0224,0.0582,0.1073,0.1516,0.1783,0.181,0.1655,0.134,0.103,0.0854,0.0742,0.0689,0.0747,0.0934,0.1175,0.1335,0.1383,0.134,0.1191,0.0993,0.079,0.0619,0.0427,0.0166,-0.0481,-0.0929,-0.0571,-0.0262,-0.0475,-0.1345,-0.1719,-0.1901,-0.1927,-0.1938,-0.2002,-0.2024,-0.2013,-0.1954,-0.1853,-0.1698,-0.1516,-0.1345,-0.1228,-0.1185,0.0304,0.0166,-0.0053,-0.0214,-0.0144,0.0192,0.0571,0.0838,0.0956,0.0956,0.086,0.0769,0.0721,0.0689,0.0785,0.0993,0.1191,0.1372,0.1527,0.1538,0.1426,0.1292,0.1132,0.0774,0.0352,0.0256,0.0454,0.0368,-0.023,-0.0817,-0.0801,-0.0529,-0.0529,-0.1164,-0.1628,-0.1874,-0.1943,-0.1965,-0.1959,-0.1922,-0.1853,-0.1789,-0.1735,-0.1687,-0.1655,-0.1655,-0.1676,0.0352,0.0262,-0.0005,-0.0256,-0.0342,-0.024,-0.0016,0.0267,0.0502,0.0609,0.0694,0.0758,0.0806,0.094,0.1137,0.1265,0.1351,0.1431,0.1527,0.1554,0.1474,0.1393,0.1329,0.11,0.0646,0.0529,0.0721,0.0806,0.0689,0.0251,-0.0342,-0.0747,-0.0635,-0.0448,-0.0961,-0.1383,-0.1543,-0.1671,-0.1714,-0.1687,-0.1644,-0.1639,-0.1682,-0.1757,-0.1831,-0.1863,-0.1853,0.0422,0.0406,0.0299,0.0091,-0.0096,-0.0117,0.0027,0.023,0.0422,0.0593,0.0721,0.087,0.1078,0.1265,0.1372,0.142,0.1431,0.1436,0.1458,0.1474,0.1452,0.1393,0.1399,0.1479,0.1404,0.1324,0.1447,0.1495,0.1324,0.0961,0.0411,-0.0123,-0.0587,-0.0737,-0.0475,-0.0699,-0.1062,-0.1313,-0.1351,-0.1361,-0.1415,-0.1479,-0.1522,-0.158,-0.1698,-0.1789,-0.181,0.055,0.0529,0.0502,0.0427,0.0326,0.0262,0.0294,0.0411,0.0593,0.0796,0.0982,0.1148,0.1287,0.1399,0.1458,0.1468,0.1458,0.1442,0.1436,0.142,0.1393,0.1361,0.1361,0.1463,0.1644,0.1719,0.1564,0.134,0.1233,0.1153,0.0801,0.0246,-0.0304,-0.0534,-0.0833,-0.0689,-0.0561,-0.0667,-0.0956,-0.1041,-0.1111,-0.1212,-0.1271,-0.1281,-0.1329,-0.142,-0.1463,0.0699,0.0662,0.0651,0.0651,0.0651,0.0667,0.0721,0.0817,0.094,0.1052,0.1153,0.1249,0.1335,0.1415,0.1463,0.1468,0.1452,0.1436,0.1426,0.141,0.1377,0.134,0.1303,0.1324,0.1431,0.1559,0.1538,0.1303,0.0988,0.0747,0.0603,0.04,0.0053,-0.0288,-0.0507,-0.0817,-0.103,-0.0865,-0.0667,-0.0705,-0.0753,-0.0849,-0.0934,-0.0961,-0.0918,-0.0876,-0.0892,0.0812,0.0796,0.0796,0.0806,0.0822,0.086,0.0908,0.0972,0.1046,0.1127,0.1207,0.1287,0.1361,0.141,0.1442,0.1447,0.1431,0.1404,0.1377,0.134,0.1303,0.1265,0.1244,0.1244,0.1271,0.1287,0.1265,0.1207,0.1089,0.0844,0.0518,0.0251,0.0064,-0.0149,-0.0315,-0.0518,-0.0908,-0.134,-0.1426,-0.1175,-0.0822,-0.0651,-0.0678,-0.078,-0.0763,-0.0651,-0.0603,0.0774,0.0806,0.0849,0.0876,0.0897,0.0924,0.0961,0.1014,0.1078,0.1153,0.1223,0.1292,0.1345,0.1377,0.1383,0.1377,0.1356,0.1329,0.1303,0.1281,0.126,0.1255,0.1244,0.1217,0.1175,0.1111,0.103,0.095,0.0892,0.0838,0.0689,0.0422,0.0182,-0.0032,-0.0283,-0.0427,-0.0566,-0.1041,-0.1404,-0.1671,-0.1938,-0.1506,-0.1014,-0.0838,-0.0913,-0.0763,-0.0662,0.126,0.1105,0.0918,0.0876,0.0924,0.0956,0.0988,0.1025,0.1084,0.1164,0.126,0.134,0,0,0,0,0,0.1319,0.1281,0.1265,0.126,0.1249,0.1217,0.1159,0.11,0.1036,0.0961,0.0881,0.0806,0.0726,0.0635,0.0523,0.0342,0.0064,-0.0278,-0.0491,-0.0587,-0.0747,-0.0993,-0.1655,-0.1837,-0.1959,-0.1927,-0.1671,-0.1313,-0.1116,-0.0929,0,0,0,0,0.103,0.0993,0.1009,0,0,0,0,0,0,0,0,0,0,0,0,0,0,0,0,0,0.1009,0.0982,0.0945,0.0876,0.0769,0.0635,0.0513,0.0379,0.0256,0.0133,-0.0117,-0.0368,-0.0497,-0.0545,-0.0731,-0.094,-0.1068,-0.1564,-0.1842,-0.1826,-0.1975,-0.1676,-0.1447,0,0,0,0,0,0,0,0,0,0,0,0,0,0,0,0,0,0,0,0,0,0,0,0,0,0,0.0833,0.078,0.0657,0.0491,0.0368,0.0278,0.0176,0.0091,0.0053,-0.008,-0.031,-0.0438,-0.0443,-0.0448,-0.0571,-0.086,-0.1089,-0.1628,-0.205,-0.1837,-0.1831,0,0,0,0,0,0,0,0,0,0,0,0,0,0,0,0,0,0,0,0,0,0,0,0,0,0,0,0,0.0667,0.0545,0.0352,0.0192,0.0128,0.0166,0.0214,0.0139,-0.0101,-0.0342,-0.0481,-0.055,-0.0598,-0.0678,-0.0683,-0.0892,-0.1191,-0.1575,-0.1698,0,0,0,0,0,0,0,0,0,0,0,0,0,0,0,0,0,0,0,0,0,0,0,0,0,0,0,0,0,0.0395,0.0347,0.0294,0.0288,0.0315,0.031,0.0272,0.0091,-0.0235,-0.0395,-0.0475,-0.0523,-0.0619,-0.0694,-0.0753,-0.0897,-0.1159,-0.1383,0,0,0,0,0,0,0,0,0,0,0,0,0,0,0,0,0,0,0,0,0,0,0,0,0,0,0,0,0,0,0,0,0,0,0,0,0,0.0112,-0.0128,-0.0187,-0.0123,-0.0155,-0.0176,-0.0256,-0.0363,-0.0427,-0.0502,0,0,0,0,0,0,0,0,0,0,0,0,0,0,0,0,0,0,0,0,0,0,0,0,0,0,0,0,0,0,0,0,0,0,0,0,0,0,0.0363,0.0448,0.0513,0.0497,0.0438,0.0331,0.0304,0.0272,0.0139,0,0,0,0,0,0,0,0,0,0,0,0,0,0,0,0,0,0,0,0,0,0,0,0,0,0,0,0,0,0,0,0,0,0,0,0,0,0,0,0,0,0.0555,0.0502,0.0507,0.0459,0.0342,0.0256,0,0,0,0,0,0,0,0,0,0,0,0,0,0,0,0,0,0,0,0,0,0,0,0,0,0,0,0,0,0,0,0,0,0,0,0,0,0,0,0,0,0,0,0,0.0529,0.055,0.047,0,0,0,0,0,0,0,0,0,0,0,0,0,0,0,0,0,0,0,0,0,0,0,0,0,0,0,0,0,0,0,0,0,0,0,0,0,0,0,0,0,0,0,0,0,0.0016,0.0198,0,0,0,0,0,0,0,0,0,0,0,0,0,0,0,0,0,0,0,0,0,0,0,0,0,0,0,0,0,0,0,0,0,0,0,0,0,0,0,0,0,0,0,0,0,0,0,0,0,0,0,0,0,0,0,0,0,0,0,0,0,0,0,0,0,0,0,0,0,0,0,0,0,0,0,0,0,0,0,0,0,0,0,0,0,0,0,0,0,0,0,0,0,0,0,0,0,0,0,0,0,0,0,0,0,0,0,0,0,0,0,0,0,0,0,0,0,0,0,0,0,0,0,0,0,0,0,0,0,0,0,0,0,0,0,0,0,0,0,0,0,0,0,0,0,0,0,0,0,0,0,0,0,0,0,0,0,0,0,0,0,0,0,0,0,0,0,0,0,0,0,0,0,0,0,0,0,0,0,0,0,0,0,0,0,0,0,0,0,0,0,0,0,0,0,0,0,0,0,0,0,0,0,0,0,0,0,0,0,0,0,0,0,0,0,0,0,0,0,0,0,0,0,0,0,0,0,0,0,0,0,0,0,0,0,0,0,0,0,0,0,0,0,0,0,0,0,0,0,0,0,0,0,0,0,0,0,0,0,0,0,0,0,0,0,0,0,0,0,0,0,0,0,0,0,0,0,0,0,0,0,0,0,0,0,0,0,0,0,0,0,0,0,0,0,0,0,0,0,0,0,0,0,0,0,0,0,0,0,0,0,0,0,0,0,0,0,0,0,0,0,0,0,0,0,0,0,0,0,0,0,0,0,0,0,0,0,0,0,0,0,0,0,0,0,0,0,0,0,0,0,0,0,0,0,0,0,0,0,0,0,0,0,0,0,0,0,0,0,0,0,0,0,0,0,0,0,0,0,0,0,0,0,0,0,0,0,0,0,0,0,0,0,0,0,0,0,0,0,0,0,0,0,0,0,0,0,0,0,0,0,0,0,0,0,0,0,0,0,0,0,0,0,0,0,0,0,0,0,0,0,0,0,0,0,0,0,0,0,0,0,0,0,0,0,0,0,0,0,0,0,0,0,0,0,0,0,0,0,0,0,0,0,0,0,0,0,0,0,0,0,0,0,0,0,0,0,0,0,0,0,0,0,0,0,0,0,0,0,0,0,0,0,0,0,0,0,0,0,0,0,0,0,0,0,0,0,0,0,0,0,0,0,0,0,0,0,0,0,0,0,0,0,0,0,0,0,0,0,0,0,0,0,0,0,0,0,0,0,0,0,0,0,0,0,0,0,0,0,0,0,0,0,0,0,0,0,0,0,0,0,0,0,0,0,0,0,0,0,0,0,0,0,0,0,0,0,0,0,0,0,0,0,0,0,0,0,0,0,0,0,0,0,0,0,0,0,0,0,0,0,0,0,0,0,0,0,0,0,0,0,0,0,0,0,0,0,0,0,0,0,0,0,0,0,0,0,0,0,0,0,0,0,0,0,0,0,0,0,0,0,0,0,0,0,0,0,0,0,0,0,0,0,0,0,0,0,0,0,0,0,0,0,0,0,0,0,0,0,0,0,0,0,0,0,0,0,0,0,0,0,0,0,0,0,0,0,0,0,0,0,0,0,0,0,0,0,0,0,0,0,0,0,0,0,0,0,0,0,0,0,0,0,0,0,0,0,0,0,0,0,0,0,0,0,0,0,0,0,0,0,0,0,0,0,0,0,0,0,0,0,0,0,0,0,0,0,0,0,0,0,0]}],[{"header":{"parameterUnit":"kt","parameterCategory":2,"dx":1,"dy":1,"la1":29.764190673828125,"la2":30.86408042907715,"lo1":-88.46762084960938,"lo2":-86.9344482421875,"nx":47,"ny":34,"refTime":"2022-10-14T00:00:00:Z","depth":"20","parameterNumber":3,"parameterNumberName":"V-component_of_CURRENTS"},"data":[-0.1276,-0.1687,-0.1949,-0.1516,-0.0662,-0.0101,-0.0117,-0.0464,-0.0924,-0.1191,-0.118,-0.1062,-0.0913,-0.0646,-0.047,-0.0336,-0.0224,-0.0112,-0.0347,-0.0737,-0.1057,-0.0838,-0.0699,-0.149,-0.1965,-0.1692,-0.166,-0.2093,-0.2403,-0.2403,-0.2541,-0.2659,-0.2296,-0.1618,-0.1153,-0.0902,-0.0769,-0.0667,-0.0534,-0.0379,-0.0144,0.0085,0.0288,0.0459,0.0566,0.0614,0.0662,-0.1212,-0.1468,-0.181,-0.1671,-0.1132,-0.0609,-0.0443,-0.055,-0.0715,-0.0763,-0.0753,-0.0747,-0.0641,-0.0507,-0.0497,-0.0481,-0.0422,-0.0331,-0.0454,-0.0705,-0.0833,-0.063,-0.0438,-0.0929,-0.1415,-0.1078,-0.1057,-0.1692,-0.2472,-0.275,-0.267,-0.2616,-0.2611,-0.2226,-0.1767,-0.1393,-0.1046,-0.0849,-0.0742,-0.0651,-0.047,-0.0272,-0.0139,0.0,0.0091,0.0155,0.024,-0.1164,-0.1223,-0.1468,-0.1522,-0.1281,-0.0918,-0.0667,-0.0593,-0.0587,-0.0614,-0.0609,-0.0603,-0.0539,-0.0555,-0.0625,-0.063,-0.0571,-0.0481,-0.0486,-0.0598,-0.0662,-0.0539,-0.0251,-0.0315,-0.0699,-0.071,-0.0838,-0.1351,-0.1917,-0.2515,-0.283,-0.2766,-0.2541,-0.2467,-0.2413,-0.212,-0.173,-0.1442,-0.1265,-0.1191,-0.102,-0.0822,-0.0662,-0.0577,-0.0518,-0.0454,-0.0331,-0.1143,-0.1078,-0.1143,-0.1228,-0.1175,-0.0988,-0.0796,-0.0667,-0.0625,-0.0641,-0.0641,-0.0609,-0.0609,-0.0667,-0.071,-0.0705,-0.0635,-0.055,-0.0491,-0.0486,-0.0513,-0.0454,-0.0219,-0.0048,-0.016,-0.0464,-0.0817,-0.1324,-0.1506,-0.1815,-0.2301,-0.2691,-0.2718,-0.2408,-0.2253,-0.2445,-0.2472,-0.2205,-0.1959,-0.1746,-0.1628,-0.1474,-0.1292,-0.1207,-0.1185,-0.1153,-0.1041,-0.1111,-0.103,-0.0988,-0.1009,-0.1009,-0.095,-0.087,-0.079,-0.0753,-0.0747,-0.0753,-0.0742,-0.0726,-0.0726,-0.0726,-0.071,-0.0646,-0.0566,-0.0497,-0.0459,-0.0448,-0.0416,-0.0304,-0.0128,-0.0037,-0.0304,-0.0715,-0.1137,-0.1442,-0.1511,-0.1618,-0.2082,-0.2403,-0.2387,-0.2152,-0.2125,-0.2253,-0.2333,-0.2355,-0.2077,-0.1885,-0.1821,-0.1762,-0.1692,-0.1682,-0.166,-0.1564,-0.1052,-0.0998,-0.095,-0.0929,-0.0918,-0.0918,-0.0913,-0.0897,-0.0886,-0.0886,-0.0886,-0.087,-0.0822,-0.0774,-0.0737,-0.0699,-0.0641,-0.0561,-0.0497,-0.047,-0.0464,-0.0438,-0.0363,-0.0251,-0.0144,-0.0219,-0.0475,-0.078,-0.1169,-0.1415,-0.1474,-0.1666,-0.1949,-0.2114,-0.1986,-0.1821,-0.1863,-0.1773,-0.1965,-0.1959,-0.1853,-0.166,-0.1676,-0.1746,-0.1757,-0.1714,-0.1607,-0.1004,-0.0988,-0.095,-0.0934,-0.0934,-0.0945,-0.0961,-0.0977,-0.0982,-0.0977,-0.0972,-0.0945,-0.0886,-0.0822,-0.0758,-0.0699,-0.0625,-0.055,-0.0491,-0.047,-0.0475,-0.0464,-0.0416,-0.0331,-0.024,-0.0214,-0.0299,-0.047,-0.0737,-0.1046,-0.1287,-0.1484,-0.1644,-0.1735,-0.173,-0.1612,-0.1634,-0.1559,-0.1474,-0.1377,-0.1516,-0.1511,-0.1436,-0.1474,-0.1538,-0.1447,-0.1271,-0.0972,-0.1014,-0.0988,-0.0972,-0.0966,-0.0972,-0.0993,-0.1014,-0.102,-0.1009,-0.0988,-0.095,-0.0892,-0.0833,-0.0747,-0.0667,-0.0587,-0.0513,-0.047,-0.047,-0.0507,-0.0529,-0.0497,-0.0406,-0.0294,-0.0219,-0.0224,-0.0336,-0.0502,-0.0641,-0.0849,-0.11,-0.1292,-0.1361,-0.1415,-0.1356,-0.1308,-0.1329,-0.118,-0.1223,-0.1345,-0.1244,-0.1271,-0.1201,-0.1271,-0.1073,-0.0828,-0.0678,-0.0721,-0.0844,-0.0961,-0.0956,-0.0956,-0.0966,-0.0988,-0.1009,-0.103,-0.103,-0.0998,0,0,0,0,0,-0.0502,-0.0475,-0.0513,-0.0566,-0.0582,-0.0523,-0.0422,-0.0304,-0.0214,-0.0198,-0.0294,-0.0427,-0.047,-0.0518,-0.0678,-0.0828,-0.1014,-0.1121,-0.118,-0.102,-0.1078,-0.126,-0.1116,-0.1084,-0.1148,-0.1265,-0.1169,-0.0886,-0.0619,-0.0331,0,0,0,0,-0.086,-0.0956,-0.0977,0,0,0,0,0,0,0,0,0,0,0,0,0,0,0,0,0,-0.0326,-0.0235,-0.0192,-0.024,-0.031,-0.0331,-0.0336,-0.04,-0.0475,-0.0683,-0.0849,-0.0988,-0.0886,-0.0929,-0.0924,-0.0886,-0.1105,-0.1095,-0.1271,-0.1356,-0.1046,-0.0448,0.0064,0,0,0,0,0,0,0,0,0,0,0,0,0,0,0,0,0,0,0,0,0,0,0,0,0,0,0.0064,0.0085,-0.0032,-0.0139,-0.0192,-0.0256,-0.0278,-0.0358,-0.0523,-0.0705,-0.0774,-0.0886,-0.086,-0.0913,-0.1014,-0.0908,-0.0902,-0.1057,-0.1041,-0.0721,-0.039,0,0,0,0,0,0,0,0,0,0,0,0,0,0,0,0,0,0,0,0,0,0,0,0,0,0,0,0,0.0336,0.0192,0.0059,-0.0075,-0.0139,-0.0016,0.0011,-0.0198,-0.0513,-0.078,-0.0881,-0.1036,-0.1116,-0.0849,-0.0555,-0.0507,-0.0721,-0.0657,-0.039,0,0,0,0,0,0,0,0,0,0,0,0,0,0,0,0,0,0,0,0,0,0,0,0,0,0,0,0,0,0.0454,0.0374,0.0272,0.0128,0.0112,0.0133,0.0139,0.0011,-0.0566,-0.0667,-0.0667,-0.0705,-0.0593,-0.0416,-0.0214,-0.032,-0.0443,-0.0384,0,0,0,0,0,0,0,0,0,0,0,0,0,0,0,0,0,0,0,0,0,0,0,0,0,0,0,0,0,0,0,0,0,0,0,0,0,-0.0107,-0.0192,-0.008,-0.0166,-0.0235,-0.0182,-0.0016,0.0005,0.0203,0.0251,0,0,0,0,0,0,0,0,0,0,0,0,0,0,0,0,0,0,0,0,0,0,0,0,0,0,0,0,0,0,0,0,0,0,0,0,0,0,0.0219,0.0326,0.0267,0.016,0.0075,0.0064,0.0091,0.0363,0.0625,0,0,0,0,0,0,0,0,0,0,0,0,0,0,0,0,0,0,0,0,0,0,0,0,0,0,0,0,0,0,0,0,0,0,0,0,0,0,0,0,0,0.0427,0.0416,0.0336,0.0198,0.0224,0.0395,0,0,0,0,0,0,0,0,0,0,0,0,0,0,0,0,0,0,0,0,0,0,0,0,0,0,0,0,0,0,0,0,0,0,0,0,0,0,0,0,0,0,0,0,0.0379,0.0326,0.04,0,0,0,0,0,0,0,0,0,0,0,0,0,0,0,0,0,0,0,0,0,0,0,0,0,0,0,0,0,0,0,0,0,0,0,0,0,0,0,0,0,0,0,0,0,0.0406,0.0171,0,0,0,0,0,0,0,0,0,0,0,0,0,0,0,0,0,0,0,0,0,0,0,0,0,0,0,0,0,0,0,0,0,0,0,0,0,0,0,0,0,0,0,0,0,0,0,0,0,0,0,0,0,0,0,0,0,0,0,0,0,0,0,0,0,0,0,0,0,0,0,0,0,0,0,0,0,0,0,0,0,0,0,0,0,0,0,0,0,0,0,0,0,0,0,0,0,0,0,0,0,0,0,0,0,0,0,0,0,0,0,0,0,0,0,0,0,0,0,0,0,0,0,0,0,0,0,0,0,0,0,0,0,0,0,0,0,0,0,0,0,0,0,0,0,0,0,0,0,0,0,0,0,0,0,0,0,0,0,0,0,0,0,0,0,0,0,0,0,0,0,0,0,0,0,0,0,0,0,0,0,0,0,0,0,0,0,0,0,0,0,0,0,0,0,0,0,0,0,0,0,0,0,0,0,0,0,0,0,0,0,0,0,0,0,0,0,0,0,0,0,0,0,0,0,0,0,0,0,0,0,0,0,0,0,0,0,0,0,0,0,0,0,0,0,0,0,0,0,0,0,0,0,0,0,0,0,0,0,0,0,0,0,0,0,0,0,0,0,0,0,0,0,0,0,0,0,0,0,0,0,0,0,0,0,0,0,0,0,0,0,0,0,0,0,0,0,0,0,0,0,0,0,0,0,0,0,0,0,0,0,0,0,0,0,0,0,0,0,0,0,0,0,0,0,0,0,0,0,0,0,0,0,0,0,0,0,0,0,0,0,0,0,0,0,0,0,0,0,0,0,0,0,0,0,0,0,0,0,0,0,0,0,0,0,0,0,0,0,0,0,0,0,0,0,0,0,0,0,0,0,0,0,0,0,0,0,0,0,0,0,0,0,0,0,0,0,0,0,0,0,0,0,0,0,0,0,0,0,0,0,0,0,0,0,0,0,0,0,0,0,0,0,0,0,0,0,0,0,0,0,0,0,0,0,0,0,0,0,0,0,0,0,0,0,0,0,0,0,0,0,0,0,0,0,0,0,0,0,0,0,0,0,0,0,0,0,0,0,0,0,0,0,0,0,0,0,0,0,0,0,0,0,0,0,0,0,0,0,0,0,0,0,0,0,0,0,0,0,0,0,0,0,0,0,0,0,0,0,0,0,0,0,0,0,0,0,0,0,0,0,0,0,0,0,0,0,0,0,0,0,0,0,0,0,0,0,0,0,0,0,0,0,0,0,0,0,0,0,0,0,0,0,0,0,0,0,0,0,0,0,0,0,0,0,0,0,0,0,0,0,0,0,0,0,0,0,0,0,0,0,0,0,0,0,0,0,0,0,0,0,0,0,0,0,0,0,0,0,0,0,0,0,0,0,0,0,0,0,0,0,0,0,0,0,0,0,0,0,0,0,0,0,0,0,0,0,0,0,0,0,0,0,0,0,0,0,0,0,0,0,0,0,0,0,0,0,0,0,0,0,0,0,0,0,0,0,0,0,0,0,0,0,0,0,0,0,0,0,0,0,0,0,0,0,0,0,0,0,0,0,0,0,0,0,0,0,0,0,0,0,0,0,0,0,0,0,0,0,0,0,0,0,0,0,0,0,0,0,0,0,0,0,0,0,0,0,0,0,0,0,0,0,0,0,0,0,0,0,0,0,0,0,0,0,0,0,0,0,0,0,0,0,0,0,0,0,0,0,0,0,0]}]],[[{"header":{"parameterUnit":"kt","parameterCategory":2,"dx":1,"dy":1,"la1":29.764190673828125,"la2":30.86408042907715,"lo1":-88.46762084960938,"lo2":-86.9344482421875,"nx":47,"ny":34,"refTime":"2022-10-14T00:00:00:Z","depth":"25","parameterNumber":2,"parameterNumberName":"U-component_of_CURRENTS"},"data":[0.0411,0.0619,0.0817,0.1025,0.1628,0.2285,0.2568,0.2451,0.2205,0.1959,0.1741,0.1634,0.1495,0.1212,0.0897,0.0844,0.0998,0.1244,0.158,0.157,0.1393,0.1276,0.1169,0.1025,0.0731,0.0497,0.0587,0.0368,-0.0085,-0.0283,-0.0315,-0.0278,-0.0705,-0.1265,-0.149,-0.1612,-0.1639,-0.173,-0.1858,-0.1954,-0.1943,-0.1831,-0.1676,-0.15,-0.1335,-0.1217,-0.1175,0.0315,0.0432,0.0448,0.0518,0.0667,0.1009,0.1361,0.1559,0.1623,0.1506,0.1468,0.1495,0.1164,0.0801,0.0844,0.103,0.1201,0.1383,0.157,0.1586,0.1431,0.1308,0.1196,0.095,0.0683,0.0646,0.0769,0.0619,0.0096,-0.0459,-0.0726,-0.0796,-0.0539,-0.0651,-0.1169,-0.1527,-0.1687,-0.1762,-0.1815,-0.1847,-0.1821,-0.1751,-0.1714,-0.1666,-0.1634,-0.1634,-0.1639,0.0352,0.0299,0.0342,0.0336,0.0416,0.071,0.0982,0.1052,0.1148,0.1308,0.1345,0.1132,0.0913,0.0998,0.1164,0.1265,0.134,0.142,0.1527,0.1564,0.1479,0.1399,0.1351,0.1169,0.1004,0.118,0.1399,0.1399,0.1009,0.0272,-0.0358,-0.0678,-0.0854,-0.0694,-0.0683,-0.0977,-0.1169,-0.1426,-0.1527,-0.157,-0.1591,-0.1602,-0.166,-0.1719,-0.1773,-0.1783,-0.1794,0.0422,0.0411,0.0326,0.032,0.0448,0.0593,0.0817,0.1084,0.1185,0.0972,0.0838,0.0918,0.1116,0.1276,0.1356,0.1388,0.1399,0.142,0.1436,0.1447,0.1442,0.1388,0.1399,0.149,0.1634,0.1906,0.2093,0.2104,0.2007,0.1586,0.0657,-0.0096,-0.0432,-0.0715,-0.0694,-0.0555,-0.0689,-0.0913,-0.0993,-0.0982,-0.1121,-0.1308,-0.1484,-0.1516,-0.1602,-0.1682,-0.173,0.0539,0.0523,0.0507,0.0443,0.0374,0.0411,0.0534,0.0609,0.0694,0.0849,0.1009,0.1159,0.1287,0.1383,0.142,0.1415,0.141,0.1404,0.1404,0.1388,0.1361,0.134,0.1345,0.1458,0.166,0.1842,0.1949,0.1906,0.1842,0.1767,0.1281,0.0497,-0.0149,-0.031,-0.0513,-0.071,-0.0534,-0.0561,-0.0427,-0.0432,-0.0427,-0.0593,-0.0812,-0.1169,-0.1233,-0.126,-0.1292,0.0683,0.0657,0.0651,0.0651,0.0657,0.0678,0.0737,0.0828,0.094,0.1046,0.1143,0.1233,0.1308,0.1372,0.141,0.141,0.1399,0.1383,0.1372,0.1351,0.1319,0.1287,0.1276,0.1313,0.1426,0.1575,0.1639,0.1634,0.1554,0.1393,0.1132,0.0689,0.0336,-0.0139,-0.0294,-0.0454,-0.0726,-0.0625,-0.039,-0.0272,-0.0133,-0.0048,-0.0214,-0.0507,-0.071,-0.0828,-0.0849,0.0785,0.0774,0.078,0.079,0.0812,0.0849,0.0897,0.0956,0.1025,0.11,0.1175,0.1249,0,0,0,0,0,0.1356,0.1324,0.1292,0.1249,0.1207,0.1185,0.1196,0.1239,0.1271,0.126,0.1201,0.1132,0.1041,0.0849,0.063,0.0448,0.032,0.0069,-0.0139,-0.0481,-0.0854,-0.0972,-0.0747,-0.0459,-0.0208,-0.0053,-0.016,-0.039,-0.0534,-0.0486,0.0758,0.0785,0.0822,0.0854,0.0876,0.0902,0.094,0,0,0,0,0,0,0,0,0,0,0,0,0,0,0,0,0.1175,0.1132,0.1078,0.1009,0.0924,0.0838,0.0699,0.0518,0.0427,0.04,0.0294,0.0117,-0.0144,-0.0267,-0.04,-0.1191,-0.1442,-0.1516,-0.1169,-0.0635,-0.0149,-0.0096,-0.0384,-0.0464,0,0,0,0,0,0,0,0,0,0,0,0,0,0,0,0,0,0,0,0,0,0,0,0,0,0,0.0934,0.0854,0.0774,0.0678,0.0502,0.0315,0.024,0.0219,0.0128,0.0005,-0.0278,-0.0635,-0.0598,-0.1084,-0.1783,-0.1906,-0.1703,-0.1255,-0.0662,-0.0187,-0.0358,0,0,0,0,0,0,0,0,0,0,0,0,0,0,0,0,0,0,0,0,0,0,0,0,0,0,0,0,0,0.0625,0.0502,0.0352,0.0219,0.0182,0.0214,0.0182,0.0069,0.0048,-0.0278,-0.0758,-0.0838,-0.1095,-0.1767,-0.1794,-0.165,-0.1191,-0.0513,0,0,0,0,0,0,0,0,0,0,0,0,0,0,0,0,0,0,0,0,0,0,0,0,0,0,0,0,0,0,0,0,0,0.0219,0.031,0.0336,0.0262,0.0155,0.0059,0.0005,-0.0048,-0.0411,-0.0758,-0.1153,-0.1869,-0.1757,-0.1479,0,0,0,0,0,0,0,0,0,0,0,0,0,0,0,0,0,0,0,0,0,0,0,0,0,0,0,0,0,0,0,0,0,0,0,0,0,0.0043,-0.0149,-0.0299,-0.0422,-0.0475,-0.0315,-0.0454,-0.0683,-0.1127,-0.1559,0,0,0,0,0,0,0,0,0,0,0,0,0,0,0,0,0,0,0,0,0,0,0,0,0,0,0,0,0,0,0,0,0,0,0,0,0,0,-0.0187,-0.0278,-0.0368,-0.0347,-0.0336,-0.0267,-0.0096,-0.0256,-0.0721,0,0,0,0,0,0,0,0,0,0,0,0,0,0,0,0,0,0,0,0,0,0,0,0,0,0,0,0,0,0,0,0,0,0,0,0,0,0,0,0.0016,0.0048,0.0128,0.024,0.0299,0.0326,0.016,-0.0043,0,0,0,0,0,0,0,0,0,0,0,0,0,0,0,0,0,0,0,0,0,0,0,0,0,0,0,0,0,0,0,0,0,0,0,0,0,0,0,0,0,0,0,0,0.0614,0.0593,0.0422,0,0,0,0,0,0,0,0,0,0,0,0,0,0,0,0,0,0,0,0,0,0,0,0,0,0,0,0,0,0,0,0,0,0,0,0,0,0,0,0,0,0,0,0,0,0,0,0,0,0,0,0,0,0,0,0,0,0,0,0,0,0,0,0,0,0,0,0,0,0,0,0,0,0,0,0,0,0,0,0,0,0,0,0,0,0,0,0,0,0,0,0,0,0,0,0,0,0,0,0,0,0,0,0,0,0,0,0,0,0,0,0,0,0,0,0,0,0,0,0,0,0,0,0,0,0,0,0,0,0,0,0,0,0,0,0,0,0,0,0,0,0,0,0,0,0,0,0,0,0,0,0,0,0,0,0,0,0,0,0,0,0,0,0,0,0,0,0,0,0,0,0,0,0,0,0,0,0,0,0,0,0,0,0,0,0,0,0,0,0,0,0,0,0,0,0,0,0,0,0,0,0,0,0,0,0,0,0,0,0,0,0,0,0,0,0,0,0,0,0,0,0,0,0,0,0,0,0,0,0,0,0,0,0,0,0,0,0,0,0,0,0,0,0,0,0,0,0,0,0,0,0,0,0,0,0,0,0,0,0,0,0,0,0,0,0,0,0,0,0,0,0,0,0,0,0,0,0,0,0,0,0,0,0,0,0,0,0,0,0,0,0,0,0,0,0,0,0,0,0,0,0,0,0,0,0,0,0,0,0,0,0,0,0,0,0,0,0,0,0,0,0,0,0,0,0,0,0,0,0,0,0,0,0,0,0,0,0,0,0,0,0,0,0,0,0,0,0,0,0,0,0,0,0,0,0,0,0,0,0,0,0,0,0,0,0,0,0,0,0,0,0,0,0,0,0,0,0,0,0,0,0,0,0,0,0,0,0,0,0,0,0,0,0,0,0,0,0,0,0,0,0,0,0,0,0,0,0,0,0,0,0,0,0,0,0,0,0,0,0,0,0,0,0,0,0,0,0,0,0,0,0,0,0,0,0,0,0,0,0,0,0,0,0,0,0,0,0,0,0,0,0,0,0,0,0,0,0,0,0,0,0,0,0,0,0,0,0,0,0,0,0,0,0,0,0,0,0,0,0,0,0,0,0,0,0,0,0,0,0,0,0,0,0,0,0,0,0,0,0,0,0,0,0,0,0,0,0,0,0,0,0,0,0,0,0,0,0,0,0,0,0,0,0,0,0,0,0,0,0,0,0,0,0,0,0,0,0,0,0,0,0,0,0,0,0,0,0,0,0,0,0,0,0,0,0,0,0,0,0,0,0,0,0,0,0,0,0,0,0,0,0,0,0,0,0,0,0,0,0,0,0,0,0,0,0,0,0,0,0,0,0,0,0,0,0,0,0,0,0,0,0,0,0,0,0,0,0,0,0,0,0,0,0,0,0,0,0,0,0,0,0,0,0,0,0,0,0,0,0,0,0,0,0,0,0,0,0,0,0,0,0,0,0,0,0,0,0,0,0,0,0,0,0,0,0,0,0,0,0,0,0,0,0,0,0,0,0,0,0,0,0,0,0,0,0,0,0,0,0,0,0,0,0,0,0,0,0,0,0,0,0,0,0,0,0,0,0,0,0,0,0,0,0,0,0,0,0,0,0,0,0,0,0,0,0,0,0,0,0,0,0,0,0,0,0,0,0,0,0,0,0,0,0,0,0,0,0,0,0,0,0,0,0,0,0,0,0,0,0,0,0,0,0,0,0,0,0,0,0,0,0,0,0,0,0,0,0,0,0,0,0,0,0,0,0,0,0,0,0,0,0,0,0,0,0,0,0,0,0,0,0,0,0,0,0,0,0,0,0,0,0,0,0,0,0,0,0,0,0,0,0,0,0,0,0,0,0,0,0,0,0,0,0,0,0,0,0,0,0,0,0,0,0,0,0,0,0,0,0,0,0,0,0,0,0,0,0,0,0,0,0,0,0,0,0,0,0,0,0,0,0,0,0,0,0,0,0,0,0,0,0,0,0,0,0,0,0,0,0,0,0,0,0,0,0,0,0,0,0,0,0,0]}],[{"header":{"parameterUnit":"kt","parameterCategory":2,"dx":1,"dy":1,"la1":29.764190673828125,"la2":30.86408042907715,"lo1":-88.46762084960938,"lo2":-86.9344482421875,"nx":47,"ny":34,"refTime":"2022-10-14T00:00:00:Z","depth":"25","parameterNumber":3,"parameterNumberName":"V-component_of_CURRENTS"},"data":[-0.1212,-0.1426,-0.165,-0.1185,-0.0064,0.0545,0.0726,0.0587,0.0091,-0.0432,-0.0651,-0.0699,-0.0609,-0.0497,-0.0358,-0.0272,-0.0155,-0.0059,-0.0235,-0.0603,-0.0876,-0.0683,-0.0657,-0.1057,-0.0758,-0.0299,-0.0486,-0.1137,-0.1559,-0.1506,-0.1586,-0.173,-0.1506,-0.1073,-0.0742,-0.0609,-0.0523,-0.0427,-0.0352,-0.024,-0.0128,0.0069,0.0278,0.0454,0.0566,0.0641,0.0667,-0.118,-0.134,-0.1575,-0.1415,-0.063,0.0117,0.0368,0.031,0.0032,-0.0278,-0.0555,-0.0635,-0.0545,-0.0432,-0.0427,-0.0416,-0.0368,-0.0288,-0.0384,-0.0619,-0.0731,-0.0566,-0.0406,-0.071,-0.0582,-0.024,-0.04,-0.0918,-0.1313,-0.1511,-0.1725,-0.1826,-0.1767,-0.141,-0.1052,-0.0833,-0.0603,-0.0336,-0.0155,-0.0256,-0.0379,-0.0224,-0.0101,0.0016,0.0107,0.0182,0.0283,-0.1127,-0.1153,-0.1319,-0.1265,-0.1014,-0.0518,-0.0246,-0.0101,-0.0166,-0.0411,-0.0582,-0.0534,-0.0475,-0.0491,-0.0539,-0.0571,-0.0534,-0.0443,-0.0427,-0.0545,-0.0603,-0.0491,-0.0208,-0.0251,-0.0251,-0.0149,-0.0432,-0.0844,-0.0982,-0.1159,-0.1575,-0.1815,-0.1901,-0.181,-0.1447,-0.1175,-0.1025,-0.0646,-0.0491,-0.0491,-0.0689,-0.0747,-0.063,-0.0523,-0.0459,-0.0363,-0.0262,-0.1095,-0.1041,-0.1084,-0.1068,-0.102,-0.0763,-0.0603,-0.0486,-0.0523,-0.0545,-0.0582,-0.0571,-0.0566,-0.0609,-0.0646,-0.0646,-0.0587,-0.0507,-0.0438,-0.04,-0.0438,-0.0406,-0.0187,-0.0016,-0.0005,-0.0187,-0.0673,-0.0892,-0.0812,-0.0667,-0.0673,-0.1399,-0.1634,-0.1676,-0.1618,-0.1602,-0.1426,-0.0966,-0.0913,-0.0796,-0.0913,-0.1137,-0.1244,-0.1121,-0.1084,-0.0998,-0.0961,-0.1057,-0.0988,-0.095,-0.095,-0.0929,-0.0801,-0.0737,-0.0667,-0.0689,-0.0699,-0.0705,-0.071,-0.0689,-0.0678,-0.0662,-0.0641,-0.0582,-0.0507,-0.0438,-0.0395,-0.0384,-0.0368,-0.0267,-0.0101,0.0011,-0.0246,-0.0694,-0.1009,-0.0817,-0.047,-0.0192,-0.0646,-0.1127,-0.1506,-0.1538,-0.1271,-0.1367,-0.1345,-0.1308,-0.0982,-0.0812,-0.0934,-0.1233,-0.157,-0.1575,-0.1511,-0.1463,-0.0998,-0.095,-0.0913,-0.0886,-0.087,-0.086,-0.0844,-0.0822,-0.0828,-0.0833,-0.0822,-0.0806,-0.0753,-0.0699,-0.0657,-0.0625,-0.0561,-0.0486,-0.0427,-0.04,-0.039,-0.0363,-0.0299,-0.0203,-0.0096,-0.0155,-0.0411,-0.0683,-0.0699,-0.0448,0.0005,-0.016,-0.0769,-0.0908,-0.118,-0.1201,-0.118,-0.0988,-0.1116,-0.1014,-0.1004,-0.078,-0.0689,-0.1004,-0.1303,-0.1591,-0.1511,-0.095,-0.0934,-0.0902,-0.0892,-0.0886,-0.0881,-0.0892,-0.0892,-0.0902,-0.0897,-0.0892,-0.086,0,0,0,0,0,-0.0491,-0.0438,-0.0416,-0.0416,-0.04,-0.0342,-0.0262,-0.0176,-0.0133,-0.0224,-0.0368,-0.0416,-0.0182,0.0107,0.0096,-0.0166,-0.0523,-0.0545,-0.0566,-0.094,-0.0854,-0.0545,-0.0507,-0.0828,-0.0881,-0.0763,-0.0593,-0.0838,-0.1191,-0.1095,-0.0902,-0.094,-0.0924,-0.0908,-0.0902,-0.0908,-0.0924,0,0,0,0,0,0,0,0,0,0,0,0,0,0,0,0,-0.0374,-0.0256,-0.0176,-0.0182,-0.0304,-0.0395,-0.0144,0.0352,0.0497,0.0347,0.0021,-0.0443,-0.0406,-0.0352,-0.0571,-0.0518,-0.0432,-0.0406,-0.0459,-0.0726,-0.0651,-0.0507,-0.0529,-0.0614,0,0,0,0,0,0,0,0,0,0,0,0,0,0,0,0,0,0,0,0,0,0,0,0,0,0,-0.0187,-0.0283,-0.0406,-0.0363,0.0032,0.0518,0.0603,0.0315,-0.0101,-0.0422,-0.0331,-0.0219,-0.031,-0.0304,-0.0529,-0.0726,-0.0881,-0.0721,-0.0406,0.0085,0.0272,0,0,0,0,0,0,0,0,0,0,0,0,0,0,0,0,0,0,0,0,0,0,0,0,0,0,0,0,0,-0.0315,-0.0272,-0.0005,0.0438,0.0491,0.0187,-0.0139,-0.0304,-0.0278,-0.0128,-0.0192,-0.0336,-0.0475,-0.0961,-0.1297,-0.0902,-0.0262,0.0342,0,0,0,0,0,0,0,0,0,0,0,0,0,0,0,0,0,0,0,0,0,0,0,0,0,0,0,0,0,0,0,0,0,0.0395,0.0331,0.0107,-0.0091,-0.032,-0.0427,-0.0208,-0.0304,-0.0352,-0.0331,-0.0539,-0.0838,-0.0678,-0.0315,0,0,0,0,0,0,0,0,0,0,0,0,0,0,0,0,0,0,0,0,0,0,0,0,0,0,0,0,0,0,0,0,0,0,0,0,0,-0.0347,-0.0422,-0.0374,-0.0448,-0.0406,-0.0182,-0.0064,-0.0422,-0.0721,-0.055,0,0,0,0,0,0,0,0,0,0,0,0,0,0,0,0,0,0,0,0,0,0,0,0,0,0,0,0,0,0,0,0,0,0,0,0,0,0,-0.0288,-0.0069,-0.0166,-0.024,-0.023,-0.008,0.0208,-0.0053,-0.0144,0,0,0,0,0,0,0,0,0,0,0,0,0,0,0,0,0,0,0,0,0,0,0,0,0,0,0,0,0,0,0,0,0,0,0,0,0,0,0,0.0347,0.0278,0.0117,0.0069,0.0128,0.0187,0.0443,0.0598,0,0,0,0,0,0,0,0,0,0,0,0,0,0,0,0,0,0,0,0,0,0,0,0,0,0,0,0,0,0,0,0,0,0,0,0,0,0,0,0,0,0,0,0,0.023,0.0454,0.0742,0,0,0,0,0,0,0,0,0,0,0,0,0,0,0,0,0,0,0,0,0,0,0,0,0,0,0,0,0,0,0,0,0,0,0,0,0,0,0,0,0,0,0,0,0,0,0,0,0,0,0,0,0,0,0,0,0,0,0,0,0,0,0,0,0,0,0,0,0,0,0,0,0,0,0,0,0,0,0,0,0,0,0,0,0,0,0,0,0,0,0,0,0,0,0,0,0,0,0,0,0,0,0,0,0,0,0,0,0,0,0,0,0,0,0,0,0,0,0,0,0,0,0,0,0,0,0,0,0,0,0,0,0,0,0,0,0,0,0,0,0,0,0,0,0,0,0,0,0,0,0,0,0,0,0,0,0,0,0,0,0,0,0,0,0,0,0,0,0,0,0,0,0,0,0,0,0,0,0,0,0,0,0,0,0,0,0,0,0,0,0,0,0,0,0,0,0,0,0,0,0,0,0,0,0,0,0,0,0,0,0,0,0,0,0,0,0,0,0,0,0,0,0,0,0,0,0,0,0,0,0,0,0,0,0,0,0,0,0,0,0,0,0,0,0,0,0,0,0,0,0,0,0,0,0,0,0,0,0,0,0,0,0,0,0,0,0,0,0,0,0,0,0,0,0,0,0,0,0,0,0,0,0,0,0,0,0,0,0,0,0,0,0,0,0,0,0,0,0,0,0,0,0,0,0,0,0,0,0,0,0,0,0,0,0,0,0,0,0,0,0,0,0,0,0,0,0,0,0,0,0,0,0,0,0,0,0,0,0,0,0,0,0,0,0,0,0,0,0,0,0,0,0,0,0,0,0,0,0,0,0,0,0,0,0,0,0,0,0,0,0,0,0,0,0,0,0,0,0,0,0,0,0,0,0,0,0,0,0,0,0,0,0,0,0,0,0,0,0,0,0,0,0,0,0,0,0,0,0,0,0,0,0,0,0,0,0,0,0,0,0,0,0,0,0,0,0,0,0,0,0,0,0,0,0,0,0,0,0,0,0,0,0,0,0,0,0,0,0,0,0,0,0,0,0,0,0,0,0,0,0,0,0,0,0,0,0,0,0,0,0,0,0,0,0,0,0,0,0,0,0,0,0,0,0,0,0,0,0,0,0,0,0,0,0,0,0,0,0,0,0,0,0,0,0,0,0,0,0,0,0,0,0,0,0,0,0,0,0,0,0,0,0,0,0,0,0,0,0,0,0,0,0,0,0,0,0,0,0,0,0,0,0,0,0,0,0,0,0,0,0,0,0,0,0,0,0,0,0,0,0,0,0,0,0,0,0,0,0,0,0,0,0,0,0,0,0,0,0,0,0,0,0,0,0,0,0,0,0,0,0,0,0,0,0,0,0,0,0,0,0,0,0,0,0,0,0,0,0,0,0,0,0,0,0,0,0,0,0,0,0,0,0,0,0,0,0,0,0,0,0,0,0,0,0,0,0,0,0,0,0,0,0,0,0,0,0,0,0,0,0,0,0,0,0,0,0,0,0,0,0,0,0,0,0,0,0,0,0,0,0,0,0,0,0,0,0,0,0,0,0,0,0,0,0,0,0,0,0,0,0,0,0,0,0,0,0,0,0,0,0,0,0,0,0,0,0,0,0,0,0,0,0,0,0,0,0,0,0,0,0,0,0,0,0,0,0,0,0,0,0,0,0,0,0,0,0,0,0,0,0,0,0,0,0,0,0,0,0,0,0,0,0,0,0,0,0,0,0,0,0,0,0,0,0,0,0,0,0,0,0,0,0,0,0,0,0,0,0,0,0,0,0,0,0,0,0,0,0,0,0,0,0,0,0,0,0,0,0,0,0,0,0,0,0,0,0,0,0,0,0,0,0,0,0,0,0,0,0,0,0,0,0,0,0,0,0,0,0,0,0,0,0,0,0,0,0,0,0,0,0,0,0,0,0,0,0,0,0,0,0,0,0,0,0,0,0,0,0,0,0,0,0,0,0,0,0,0,0,0,0,0,0,0,0,0,0,0,0,0,0,0,0,0,0,0,0,0,0,0,0,0,0]}]]]